<?xml version="1.0" encoding="UTF-8" standalone="no" ?>
<gpx xmlns="http://www.topografix.com/GPX/1/1" xmlns:xsi="http://www.w3.org/2001/XMLSchema-instance" xsi:schemaLocation="http://www.topografix.com/GPX/1/1 http://www.topografix.com/GPX/1/1/gpx.xsd" version="1.1" creator="VisuGPX - https://www.visugpx.com">
  <metadata>
    <name>Virade de l\\\'espoir Lacroix Laval 2015</name>
    <desc><![CDATA[Avec un petit détour au casino en prime!]]></desc>
  </metadata>
  <trk>
    <name><![CDATA[27-SEP-15 11:44:39]]></name>
    <trkseg>
      <trkpt lat="45.78518" lon="4.71875">
        <ele>290.94</ele>
        <time>2015-09-27T06:52:03Z</time>
      </trkpt>
      <trkpt lat="45.78523" lon="4.71868">
        <ele>284.21</ele>
        <time>2015-09-27T06:52:21Z</time>
      </trkpt>
      <trkpt lat="45.78521" lon="4.71868">
        <ele>284.69</ele>
        <time>2015-09-27T06:52:23Z</time>
      </trkpt>
      <trkpt lat="45.78521" lon="4.71876">
        <ele>284.69</ele>
        <time>2015-09-27T06:52:26Z</time>
      </trkpt>
      <trkpt lat="45.78515" lon="4.71881">
        <ele>285.17</ele>
        <time>2015-09-27T06:52:30Z</time>
      </trkpt>
      <trkpt lat="45.78508" lon="4.71889">
        <ele>285.17</ele>
        <time>2015-09-27T06:52:45Z</time>
      </trkpt>
      <trkpt lat="45.78508" lon="4.71891">
        <ele>285.17</ele>
        <time>2015-09-27T06:52:55Z</time>
      </trkpt>
      <trkpt lat="45.78517" lon="4.71878">
        <ele>287.57</ele>
        <time>2015-09-27T06:52:59Z</time>
      </trkpt>
      <trkpt lat="45.78521" lon="4.71866">
        <ele>289.01</ele>
        <time>2015-09-27T06:53:07Z</time>
      </trkpt>
      <trkpt lat="45.78511" lon="4.71842">
        <ele>290.46</ele>
        <time>2015-09-27T06:53:15Z</time>
      </trkpt>
      <trkpt lat="45.78494" lon="4.7179">
        <ele>295.26</ele>
        <time>2015-09-27T06:53:30Z</time>
      </trkpt>
      <trkpt lat="45.78498" lon="4.71769">
        <ele>297.67</ele>
        <time>2015-09-27T06:53:41Z</time>
      </trkpt>
      <trkpt lat="45.78492" lon="4.71777">
        <ele>297.67</ele>
        <time>2015-09-27T06:53:47Z</time>
      </trkpt>
      <trkpt lat="45.78471" lon="4.71776">
        <ele>297.67</ele>
        <time>2015-09-27T06:53:59Z</time>
      </trkpt>
      <trkpt lat="45.78469" lon="4.71773">
        <ele>299.59</ele>
        <time>2015-09-27T06:54:18Z</time>
      </trkpt>
      <trkpt lat="45.78456" lon="4.71765">
        <ele>298.63</ele>
        <time>2015-09-27T06:54:29Z</time>
      </trkpt>
      <trkpt lat="45.78431" lon="4.71761">
        <ele>299.59</ele>
        <time>2015-09-27T06:54:38Z</time>
      </trkpt>
      <trkpt lat="45.78429" lon="4.71766">
        <ele>299.59</ele>
        <time>2015-09-27T06:54:39Z</time>
      </trkpt>
      <trkpt lat="45.78431" lon="4.71785">
        <ele>299.11</ele>
        <time>2015-09-27T06:54:43Z</time>
      </trkpt>
      <trkpt lat="45.78441" lon="4.71804">
        <ele>299.11</ele>
        <time>2015-09-27T06:54:47Z</time>
      </trkpt>
      <trkpt lat="45.78443" lon="4.71811">
        <ele>299.11</ele>
        <time>2015-09-27T06:54:48Z</time>
      </trkpt>
      <trkpt lat="45.78445" lon="4.71819">
        <ele>299.11</ele>
        <time>2015-09-27T06:54:49Z</time>
      </trkpt>
      <trkpt lat="45.78446" lon="4.71828">
        <ele>299.11</ele>
        <time>2015-09-27T06:54:50Z</time>
      </trkpt>
      <trkpt lat="45.78448" lon="4.71837">
        <ele>299.11</ele>
        <time>2015-09-27T06:54:51Z</time>
      </trkpt>
      <trkpt lat="45.78461" lon="4.7197">
        <ele>296.22</ele>
        <time>2015-09-27T06:55:06Z</time>
      </trkpt>
      <trkpt lat="45.78481" lon="4.72157">
        <ele>293.82</ele>
        <time>2015-09-27T06:55:27Z</time>
      </trkpt>
      <trkpt lat="45.78488" lon="4.72271">
        <ele>294.3</ele>
        <time>2015-09-27T06:55:40Z</time>
      </trkpt>
      <trkpt lat="45.78486" lon="4.72294">
        <ele>295.26</ele>
        <time>2015-09-27T06:55:43Z</time>
      </trkpt>
      <trkpt lat="45.78484" lon="4.723">
        <ele>295.26</ele>
        <time>2015-09-27T06:55:44Z</time>
      </trkpt>
      <trkpt lat="45.78481" lon="4.72307">
        <ele>295.26</ele>
        <time>2015-09-27T06:55:45Z</time>
      </trkpt>
      <trkpt lat="45.78459" lon="4.7235">
        <ele>296.22</ele>
        <time>2015-09-27T06:55:52Z</time>
      </trkpt>
      <trkpt lat="45.78456" lon="4.72357">
        <ele>296.22</ele>
        <time>2015-09-27T06:55:53Z</time>
      </trkpt>
      <trkpt lat="45.78445" lon="4.72387">
        <ele>296.22</ele>
        <time>2015-09-27T06:55:58Z</time>
      </trkpt>
      <trkpt lat="45.78408" lon="4.72485">
        <ele>292.86</ele>
        <time>2015-09-27T06:56:10Z</time>
      </trkpt>
      <trkpt lat="45.78395" lon="4.72622">
        <ele>284.69</ele>
        <time>2015-09-27T06:56:22Z</time>
      </trkpt>
      <trkpt lat="45.78374" lon="4.72776">
        <ele>277</ele>
        <time>2015-09-27T06:56:34Z</time>
      </trkpt>
      <trkpt lat="45.78373" lon="4.72943">
        <ele>268.83</ele>
        <time>2015-09-27T06:56:47Z</time>
      </trkpt>
      <trkpt lat="45.7837" lon="4.73005">
        <ele>266.9</ele>
        <time>2015-09-27T06:56:52Z</time>
      </trkpt>
      <trkpt lat="45.78374" lon="4.73131">
        <ele>264.02</ele>
        <time>2015-09-27T06:57:02Z</time>
      </trkpt>
      <trkpt lat="45.78378" lon="4.73142">
        <ele>263.54</ele>
        <time>2015-09-27T06:57:03Z</time>
      </trkpt>
      <trkpt lat="45.78382" lon="4.73153">
        <ele>263.54</ele>
        <time>2015-09-27T06:57:04Z</time>
      </trkpt>
      <trkpt lat="45.78438" lon="4.73239">
        <ele>262.58</ele>
        <time>2015-09-27T06:57:13Z</time>
      </trkpt>
      <trkpt lat="45.78496" lon="4.73359">
        <ele>262.58</ele>
        <time>2015-09-27T06:57:24Z</time>
      </trkpt>
      <trkpt lat="45.78513" lon="4.73401">
        <ele>259.69</ele>
        <time>2015-09-27T06:57:30Z</time>
      </trkpt>
      <trkpt lat="45.78516" lon="4.73407">
        <ele>259.69</ele>
        <time>2015-09-27T06:57:31Z</time>
      </trkpt>
      <trkpt lat="45.78521" lon="4.73412">
        <ele>258.73</ele>
        <time>2015-09-27T06:57:32Z</time>
      </trkpt>
      <trkpt lat="45.78552" lon="4.73452">
        <ele>253.44</ele>
        <time>2015-09-27T06:57:40Z</time>
      </trkpt>
      <trkpt lat="45.78556" lon="4.73454">
        <ele>252.96</ele>
        <time>2015-09-27T06:57:41Z</time>
      </trkpt>
      <trkpt lat="45.78562" lon="4.73454">
        <ele>252.48</ele>
        <time>2015-09-27T06:57:42Z</time>
      </trkpt>
      <trkpt lat="45.78568" lon="4.73452">
        <ele>252</ele>
        <time>2015-09-27T06:57:43Z</time>
      </trkpt>
      <trkpt lat="45.78573" lon="4.73449">
        <ele>252</ele>
        <time>2015-09-27T06:57:44Z</time>
      </trkpt>
      <trkpt lat="45.7858" lon="4.73445">
        <ele>251.52</ele>
        <time>2015-09-27T06:57:45Z</time>
      </trkpt>
      <trkpt lat="45.78591" lon="4.73435">
        <ele>250.56</ele>
        <time>2015-09-27T06:57:47Z</time>
      </trkpt>
      <trkpt lat="45.78595" lon="4.7343">
        <ele>250.08</ele>
        <time>2015-09-27T06:57:48Z</time>
      </trkpt>
      <trkpt lat="45.78638" lon="4.73353">
        <ele>249.6</ele>
        <time>2015-09-27T06:58:03Z</time>
      </trkpt>
      <trkpt lat="45.78676" lon="4.73298">
        <ele>251.04</ele>
        <time>2015-09-27T06:58:16Z</time>
      </trkpt>
      <trkpt lat="45.78702" lon="4.73269">
        <ele>252</ele>
        <time>2015-09-27T06:58:25Z</time>
      </trkpt>
      <trkpt lat="45.78734" lon="4.73254">
        <ele>254.89</ele>
        <time>2015-09-27T06:58:37Z</time>
      </trkpt>
      <trkpt lat="45.78758" lon="4.73253">
        <ele>257.77</ele>
        <time>2015-09-27T06:58:48Z</time>
      </trkpt>
      <trkpt lat="45.78768" lon="4.73255">
        <ele>259.21</ele>
        <time>2015-09-27T06:58:55Z</time>
      </trkpt>
      <trkpt lat="45.78769" lon="4.73255">
        <ele>259.21</ele>
        <time>2015-09-27T06:58:56Z</time>
      </trkpt>
      <trkpt lat="45.7877" lon="4.73256">
        <ele>259.21</ele>
        <time>2015-09-27T06:58:57Z</time>
      </trkpt>
      <trkpt lat="45.7879" lon="4.73269">
        <ele>258.25</ele>
        <time>2015-09-27T06:59:08Z</time>
      </trkpt>
      <trkpt lat="45.78793" lon="4.73271">
        <ele>258.25</ele>
        <time>2015-09-27T06:59:09Z</time>
      </trkpt>
      <trkpt lat="45.78821" lon="4.73288">
        <ele>258.25</ele>
        <time>2015-09-27T06:59:21Z</time>
      </trkpt>
      <trkpt lat="45.78844" lon="4.733">
        <ele>261.62</ele>
        <time>2015-09-27T06:59:31Z</time>
      </trkpt>
      <trkpt lat="45.78845" lon="4.73302">
        <ele>261.62</ele>
        <time>2015-09-27T06:59:32Z</time>
      </trkpt>
      <trkpt lat="45.78848" lon="4.73304">
        <ele>261.62</ele>
        <time>2015-09-27T06:59:33Z</time>
      </trkpt>
      <trkpt lat="45.78849" lon="4.73305">
        <ele>261.62</ele>
        <time>2015-09-27T06:59:34Z</time>
      </trkpt>
      <trkpt lat="45.78851" lon="4.73307">
        <ele>261.62</ele>
        <time>2015-09-27T06:59:35Z</time>
      </trkpt>
      <trkpt lat="45.78853" lon="4.73309">
        <ele>262.1</ele>
        <time>2015-09-27T06:59:36Z</time>
      </trkpt>
      <trkpt lat="45.78854" lon="4.7331">
        <ele>262.1</ele>
        <time>2015-09-27T06:59:37Z</time>
      </trkpt>
      <trkpt lat="45.78855" lon="4.73311">
        <ele>262.1</ele>
        <time>2015-09-27T06:59:38Z</time>
      </trkpt>
      <trkpt lat="45.78856" lon="4.73312">
        <ele>262.1</ele>
        <time>2015-09-27T06:59:39Z</time>
      </trkpt>
      <trkpt lat="45.7887" lon="4.73319">
        <ele>263.06</ele>
        <time>2015-09-27T06:59:42Z</time>
      </trkpt>
      <trkpt lat="45.78894" lon="4.73333">
        <ele>263.06</ele>
        <time>2015-09-27T06:59:54Z</time>
      </trkpt>
      <trkpt lat="45.78932" lon="4.73346">
        <ele>264.02</ele>
        <time>2015-09-27T07:00:06Z</time>
      </trkpt>
      <trkpt lat="45.78978" lon="4.73366">
        <ele>264.5</ele>
        <time>2015-09-27T07:00:17Z</time>
      </trkpt>
      <trkpt lat="45.78988" lon="4.73368">
        <ele>264.5</ele>
        <time>2015-09-27T07:00:19Z</time>
      </trkpt>
      <trkpt lat="45.78993" lon="4.73369">
        <ele>264.98</ele>
        <time>2015-09-27T07:00:20Z</time>
      </trkpt>
      <trkpt lat="45.78998" lon="4.7337">
        <ele>264.98</ele>
        <time>2015-09-27T07:00:21Z</time>
      </trkpt>
      <trkpt lat="45.79003" lon="4.73372">
        <ele>265.46</ele>
        <time>2015-09-27T07:00:22Z</time>
      </trkpt>
      <trkpt lat="45.79007" lon="4.73374">
        <ele>265.46</ele>
        <time>2015-09-27T07:00:23Z</time>
      </trkpt>
      <trkpt lat="45.79052" lon="4.73387">
        <ele>265.46</ele>
        <time>2015-09-27T07:00:35Z</time>
      </trkpt>
      <trkpt lat="45.79104" lon="4.734">
        <ele>267.86</ele>
        <time>2015-09-27T07:00:48Z</time>
      </trkpt>
      <trkpt lat="45.79134" lon="4.73399">
        <ele>270.75</ele>
        <time>2015-09-27T07:00:59Z</time>
      </trkpt>
      <trkpt lat="45.79143" lon="4.73395">
        <ele>271.71</ele>
        <time>2015-09-27T07:01:03Z</time>
      </trkpt>
      <trkpt lat="45.79145" lon="4.73395">
        <ele>271.71</ele>
        <time>2015-09-27T07:01:04Z</time>
      </trkpt>
      <trkpt lat="45.79148" lon="4.73396">
        <ele>272.19</ele>
        <time>2015-09-27T07:01:05Z</time>
      </trkpt>
      <trkpt lat="45.79151" lon="4.73397">
        <ele>272.19</ele>
        <time>2015-09-27T07:01:06Z</time>
      </trkpt>
      <trkpt lat="45.79154" lon="4.73398">
        <ele>272.67</ele>
        <time>2015-09-27T07:01:07Z</time>
      </trkpt>
      <trkpt lat="45.7919" lon="4.7341">
        <ele>274.59</ele>
        <time>2015-09-27T07:01:19Z</time>
      </trkpt>
      <trkpt lat="45.79193" lon="4.73412">
        <ele>275.07</ele>
        <time>2015-09-27T07:01:20Z</time>
      </trkpt>
      <trkpt lat="45.79196" lon="4.73413">
        <ele>275.07</ele>
        <time>2015-09-27T07:01:21Z</time>
      </trkpt>
      <trkpt lat="45.79199" lon="4.73415">
        <ele>275.07</ele>
        <time>2015-09-27T07:01:22Z</time>
      </trkpt>
      <trkpt lat="45.79202" lon="4.73417">
        <ele>275.07</ele>
        <time>2015-09-27T07:01:23Z</time>
      </trkpt>
      <trkpt lat="45.79205" lon="4.73419">
        <ele>275.07</ele>
        <time>2015-09-27T07:01:24Z</time>
      </trkpt>
      <trkpt lat="45.79245" lon="4.73446">
        <ele>279.4</ele>
        <time>2015-09-27T07:01:39Z</time>
      </trkpt>
      <trkpt lat="45.79286" lon="4.73456">
        <ele>280.36</ele>
        <time>2015-09-27T07:01:53Z</time>
      </trkpt>
      <trkpt lat="45.79316" lon="4.73467">
        <ele>282.77</ele>
        <time>2015-09-27T07:02:06Z</time>
      </trkpt>
      <trkpt lat="45.79348" lon="4.73489">
        <ele>283.25</ele>
        <time>2015-09-27T07:02:19Z</time>
      </trkpt>
      <trkpt lat="45.79404" lon="4.73515">
        <ele>284.21</ele>
        <time>2015-09-27T07:02:34Z</time>
      </trkpt>
      <trkpt lat="45.79446" lon="4.73508">
        <ele>283.25</ele>
        <time>2015-09-27T07:02:47Z</time>
      </trkpt>
      <trkpt lat="45.79485" lon="4.73477">
        <ele>285.17</ele>
        <time>2015-09-27T07:03:02Z</time>
      </trkpt>
      <trkpt lat="45.7953" lon="4.73453">
        <ele>287.57</ele>
        <time>2015-09-27T07:03:16Z</time>
      </trkpt>
      <trkpt lat="45.7958" lon="4.73438">
        <ele>289.97</ele>
        <time>2015-09-27T07:03:33Z</time>
      </trkpt>
      <trkpt lat="45.79614" lon="4.73431">
        <ele>290.94</ele>
        <time>2015-09-27T07:03:45Z</time>
      </trkpt>
      <trkpt lat="45.79616" lon="4.73431">
        <ele>290.94</ele>
        <time>2015-09-27T07:03:46Z</time>
      </trkpt>
      <trkpt lat="45.79619" lon="4.73432">
        <ele>290.94</ele>
        <time>2015-09-27T07:03:47Z</time>
      </trkpt>
      <trkpt lat="45.79622" lon="4.73433">
        <ele>290.94</ele>
        <time>2015-09-27T07:03:48Z</time>
      </trkpt>
      <trkpt lat="45.79625" lon="4.73433">
        <ele>291.42</ele>
        <time>2015-09-27T07:03:49Z</time>
      </trkpt>
      <trkpt lat="45.79628" lon="4.73433">
        <ele>291.42</ele>
        <time>2015-09-27T07:03:50Z</time>
      </trkpt>
      <trkpt lat="45.79665" lon="4.73424">
        <ele>293.82</ele>
        <time>2015-09-27T07:04:04Z</time>
      </trkpt>
      <trkpt lat="45.79709" lon="4.73411">
        <ele>293.82</ele>
        <time>2015-09-27T07:04:19Z</time>
      </trkpt>
      <trkpt lat="45.7975" lon="4.73393">
        <ele>296.22</ele>
        <time>2015-09-27T07:04:33Z</time>
      </trkpt>
      <trkpt lat="45.79755" lon="4.73394">
        <ele>297.18</ele>
        <time>2015-09-27T07:04:35Z</time>
      </trkpt>
      <trkpt lat="45.79757" lon="4.73395">
        <ele>297.67</ele>
        <time>2015-09-27T07:04:36Z</time>
      </trkpt>
      <trkpt lat="45.7976" lon="4.73396">
        <ele>298.15</ele>
        <time>2015-09-27T07:04:37Z</time>
      </trkpt>
      <trkpt lat="45.79787" lon="4.73404">
        <ele>299.11</ele>
        <time>2015-09-27T07:04:48Z</time>
      </trkpt>
      <trkpt lat="45.79821" lon="4.73412">
        <ele>299.11</ele>
        <time>2015-09-27T07:04:59Z</time>
      </trkpt>
      <trkpt lat="45.79858" lon="4.73422">
        <ele>299.59</ele>
        <time>2015-09-27T07:05:10Z</time>
      </trkpt>
      <trkpt lat="45.79903" lon="4.73416">
        <ele>299.11</ele>
        <time>2015-09-27T07:05:22Z</time>
      </trkpt>
      <trkpt lat="45.79942" lon="4.73402">
        <ele>301.99</ele>
        <time>2015-09-27T07:05:32Z</time>
      </trkpt>
      <trkpt lat="45.79964" lon="4.7337">
        <ele>305.36</ele>
        <time>2015-09-27T07:05:44Z</time>
      </trkpt>
      <trkpt lat="45.79958" lon="4.73318">
        <ele>304.39</ele>
        <time>2015-09-27T07:05:54Z</time>
      </trkpt>
      <trkpt lat="45.79958" lon="4.73313">
        <ele>304.39</ele>
        <time>2015-09-27T07:05:55Z</time>
      </trkpt>
      <trkpt lat="45.7996" lon="4.73307">
        <ele>304.39</ele>
        <time>2015-09-27T07:05:56Z</time>
      </trkpt>
      <trkpt lat="45.79962" lon="4.73302">
        <ele>304.39</ele>
        <time>2015-09-27T07:05:57Z</time>
      </trkpt>
      <trkpt lat="45.79964" lon="4.73298">
        <ele>303.91</ele>
        <time>2015-09-27T07:05:58Z</time>
      </trkpt>
      <trkpt lat="45.79967" lon="4.73295">
        <ele>303.91</ele>
        <time>2015-09-27T07:05:59Z</time>
      </trkpt>
      <trkpt lat="45.7997" lon="4.73292">
        <ele>303.91</ele>
        <time>2015-09-27T07:06:00Z</time>
      </trkpt>
      <trkpt lat="45.79974" lon="4.73291">
        <ele>303.91</ele>
        <time>2015-09-27T07:06:01Z</time>
      </trkpt>
      <trkpt lat="45.79979" lon="4.7329">
        <ele>303.43</ele>
        <time>2015-09-27T07:06:02Z</time>
      </trkpt>
      <trkpt lat="45.80002" lon="4.73288">
        <ele>304.39</ele>
        <time>2015-09-27T07:06:07Z</time>
      </trkpt>
      <trkpt lat="45.8007" lon="4.73269">
        <ele>305.36</ele>
        <time>2015-09-27T07:06:23Z</time>
      </trkpt>
      <trkpt lat="45.80106" lon="4.73257">
        <ele>305.36</ele>
        <time>2015-09-27T07:06:32Z</time>
      </trkpt>
      <trkpt lat="45.80173" lon="4.73254">
        <ele>307.28</ele>
        <time>2015-09-27T07:06:48Z</time>
      </trkpt>
      <trkpt lat="45.80226" lon="4.7325">
        <ele>307.76</ele>
        <time>2015-09-27T07:07:01Z</time>
      </trkpt>
      <trkpt lat="45.80248" lon="4.7325">
        <ele>307.28</ele>
        <time>2015-09-27T07:07:06Z</time>
      </trkpt>
      <trkpt lat="45.80257" lon="4.7325">
        <ele>306.8</ele>
        <time>2015-09-27T07:07:08Z</time>
      </trkpt>
      <trkpt lat="45.80261" lon="4.7325">
        <ele>306.32</ele>
        <time>2015-09-27T07:07:09Z</time>
      </trkpt>
      <trkpt lat="45.8027" lon="4.73248">
        <ele>306.32</ele>
        <time>2015-09-27T07:07:11Z</time>
      </trkpt>
      <trkpt lat="45.80275" lon="4.73247">
        <ele>306.32</ele>
        <time>2015-09-27T07:07:12Z</time>
      </trkpt>
      <trkpt lat="45.80297" lon="4.73244">
        <ele>305.36</ele>
        <time>2015-09-27T07:07:17Z</time>
      </trkpt>
      <trkpt lat="45.80302" lon="4.73245">
        <ele>304.88</ele>
        <time>2015-09-27T07:07:18Z</time>
      </trkpt>
      <trkpt lat="45.80321" lon="4.73252">
        <ele>304.88</ele>
        <time>2015-09-27T07:07:22Z</time>
      </trkpt>
      <trkpt lat="45.80326" lon="4.73251">
        <ele>304.88</ele>
        <time>2015-09-27T07:07:23Z</time>
      </trkpt>
      <trkpt lat="45.8033" lon="4.73249">
        <ele>304.39</ele>
        <time>2015-09-27T07:07:24Z</time>
      </trkpt>
      <trkpt lat="45.80335" lon="4.73246">
        <ele>304.39</ele>
        <time>2015-09-27T07:07:25Z</time>
      </trkpt>
      <trkpt lat="45.80338" lon="4.73241">
        <ele>303.91</ele>
        <time>2015-09-27T07:07:26Z</time>
      </trkpt>
      <trkpt lat="45.80342" lon="4.73236">
        <ele>303.43</ele>
        <time>2015-09-27T07:07:27Z</time>
      </trkpt>
      <trkpt lat="45.80344" lon="4.7323">
        <ele>303.43</ele>
        <time>2015-09-27T07:07:28Z</time>
      </trkpt>
      <trkpt lat="45.80346" lon="4.73224">
        <ele>303.43</ele>
        <time>2015-09-27T07:07:29Z</time>
      </trkpt>
      <trkpt lat="45.80348" lon="4.73218">
        <ele>302.95</ele>
        <time>2015-09-27T07:07:30Z</time>
      </trkpt>
      <trkpt lat="45.80349" lon="4.73213">
        <ele>302.95</ele>
        <time>2015-09-27T07:07:31Z</time>
      </trkpt>
      <trkpt lat="45.8035" lon="4.73208">
        <ele>302.95</ele>
        <time>2015-09-27T07:07:32Z</time>
      </trkpt>
      <trkpt lat="45.80349" lon="4.73203">
        <ele>302.95</ele>
        <time>2015-09-27T07:07:33Z</time>
      </trkpt>
      <trkpt lat="45.80348" lon="4.732">
        <ele>302.95</ele>
        <time>2015-09-27T07:07:34Z</time>
      </trkpt>
      <trkpt lat="45.80347" lon="4.73196">
        <ele>303.43</ele>
        <time>2015-09-27T07:07:35Z</time>
      </trkpt>
      <trkpt lat="45.80348" lon="4.73147">
        <ele>305.84</ele>
        <time>2015-09-27T07:07:45Z</time>
      </trkpt>
      <trkpt lat="45.80337" lon="4.73105">
        <ele>307.28</ele>
        <time>2015-09-27T07:07:55Z</time>
      </trkpt>
      <trkpt lat="45.80308" lon="4.7304">
        <ele>305.84</ele>
        <time>2015-09-27T07:08:09Z</time>
      </trkpt>
      <trkpt lat="45.80293" lon="4.73004">
        <ele>305.36</ele>
        <time>2015-09-27T07:08:19Z</time>
      </trkpt>
      <trkpt lat="45.80294" lon="4.73">
        <ele>305.36</ele>
        <time>2015-09-27T07:08:25Z</time>
      </trkpt>
      <trkpt lat="45.80295" lon="4.73">
        <ele>305.36</ele>
        <time>2015-09-27T07:08:26Z</time>
      </trkpt>
      <trkpt lat="45.80297" lon="4.73">
        <ele>305.36</ele>
        <time>2015-09-27T07:08:27Z</time>
      </trkpt>
      <trkpt lat="45.80298" lon="4.72998">
        <ele>305.36</ele>
        <time>2015-09-27T07:08:28Z</time>
      </trkpt>
      <trkpt lat="45.80296" lon="4.72995">
        <ele>304.39</ele>
        <time>2015-09-27T07:08:32Z</time>
      </trkpt>
      <trkpt lat="45.80295" lon="4.72997">
        <ele>303.91</ele>
        <time>2015-09-27T07:08:38Z</time>
      </trkpt>
      <trkpt lat="45.80296" lon="4.72995">
        <ele>303.91</ele>
        <time>2015-09-27T07:08:39Z</time>
      </trkpt>
      <trkpt lat="45.80296" lon="4.72994">
        <ele>303.91</ele>
        <time>2015-09-27T07:08:40Z</time>
      </trkpt>
      <trkpt lat="45.80297" lon="4.72992">
        <ele>303.91</ele>
        <time>2015-09-27T07:08:41Z</time>
      </trkpt>
      <trkpt lat="45.80301" lon="4.72989">
        <ele>302.95</ele>
        <time>2015-09-27T07:08:44Z</time>
      </trkpt>
      <trkpt lat="45.80304" lon="4.72988">
        <ele>302.95</ele>
        <time>2015-09-27T07:08:45Z</time>
      </trkpt>
      <trkpt lat="45.80306" lon="4.72987">
        <ele>302.47</ele>
        <time>2015-09-27T07:08:46Z</time>
      </trkpt>
      <trkpt lat="45.80309" lon="4.72985">
        <ele>301.99</ele>
        <time>2015-09-27T07:08:47Z</time>
      </trkpt>
      <trkpt lat="45.80312" lon="4.72983">
        <ele>301.99</ele>
        <time>2015-09-27T07:08:48Z</time>
      </trkpt>
      <trkpt lat="45.80356" lon="4.72959">
        <ele>306.32</ele>
        <time>2015-09-27T07:09:00Z</time>
      </trkpt>
      <trkpt lat="45.80381" lon="4.72939">
        <ele>310.16</ele>
        <time>2015-09-27T07:09:10Z</time>
      </trkpt>
      <trkpt lat="45.80396" lon="4.72925">
        <ele>312.57</ele>
        <time>2015-09-27T07:09:15Z</time>
      </trkpt>
      <trkpt lat="45.80398" lon="4.7292">
        <ele>312.57</ele>
        <time>2015-09-27T07:09:16Z</time>
      </trkpt>
      <trkpt lat="45.804" lon="4.72916">
        <ele>312.57</ele>
        <time>2015-09-27T07:09:17Z</time>
      </trkpt>
      <trkpt lat="45.804" lon="4.72913">
        <ele>312.57</ele>
        <time>2015-09-27T07:09:18Z</time>
      </trkpt>
      <trkpt lat="45.80399" lon="4.72909">
        <ele>313.05</ele>
        <time>2015-09-27T07:09:19Z</time>
      </trkpt>
      <trkpt lat="45.80399" lon="4.72905">
        <ele>313.53</ele>
        <time>2015-09-27T07:09:20Z</time>
      </trkpt>
      <trkpt lat="45.80398" lon="4.72901">
        <ele>314.01</ele>
        <time>2015-09-27T07:09:21Z</time>
      </trkpt>
      <trkpt lat="45.80397" lon="4.72897">
        <ele>314.49</ele>
        <time>2015-09-27T07:09:22Z</time>
      </trkpt>
      <trkpt lat="45.80383" lon="4.72837">
        <ele>314.01</ele>
        <time>2015-09-27T07:09:34Z</time>
      </trkpt>
      <trkpt lat="45.80378" lon="4.72825">
        <ele>313.05</ele>
        <time>2015-09-27T07:09:36Z</time>
      </trkpt>
      <trkpt lat="45.8037" lon="4.72807">
        <ele>311.6</ele>
        <time>2015-09-27T07:09:39Z</time>
      </trkpt>
      <trkpt lat="45.80367" lon="4.72795">
        <ele>310.16</ele>
        <time>2015-09-27T07:09:41Z</time>
      </trkpt>
      <trkpt lat="45.80367" lon="4.72752">
        <ele>303.91</ele>
        <time>2015-09-27T07:09:50Z</time>
      </trkpt>
      <trkpt lat="45.80367" lon="4.72745">
        <ele>303.43</ele>
        <time>2015-09-27T07:09:51Z</time>
      </trkpt>
      <trkpt lat="45.80367" lon="4.72737">
        <ele>302.47</ele>
        <time>2015-09-27T07:09:52Z</time>
      </trkpt>
      <trkpt lat="45.80368" lon="4.72729">
        <ele>301.99</ele>
        <time>2015-09-27T07:09:53Z</time>
      </trkpt>
      <trkpt lat="45.8037" lon="4.72721">
        <ele>301.03</ele>
        <time>2015-09-27T07:09:54Z</time>
      </trkpt>
      <trkpt lat="45.80371" lon="4.72715">
        <ele>300.55</ele>
        <time>2015-09-27T07:09:55Z</time>
      </trkpt>
      <trkpt lat="45.80373" lon="4.72709">
        <ele>299.59</ele>
        <time>2015-09-27T07:09:56Z</time>
      </trkpt>
      <trkpt lat="45.80376" lon="4.72699">
        <ele>298.63</ele>
        <time>2015-09-27T07:09:58Z</time>
      </trkpt>
      <trkpt lat="45.80373" lon="4.72673">
        <ele>293.82</ele>
        <time>2015-09-27T07:10:04Z</time>
      </trkpt>
      <trkpt lat="45.80358" lon="4.72651">
        <ele>287.57</ele>
        <time>2015-09-27T07:10:12Z</time>
      </trkpt>
      <trkpt lat="45.80351" lon="4.72643">
        <ele>285.65</ele>
        <time>2015-09-27T07:10:14Z</time>
      </trkpt>
      <trkpt lat="45.80317" lon="4.72602">
        <ele>275.56</ele>
        <time>2015-09-27T07:10:23Z</time>
      </trkpt>
      <trkpt lat="45.8029" lon="4.72579">
        <ele>267.86</ele>
        <time>2015-09-27T07:10:32Z</time>
      </trkpt>
      <trkpt lat="45.8028" lon="4.72567">
        <ele>270.27</ele>
        <time>2015-09-27T07:10:38Z</time>
      </trkpt>
      <trkpt lat="45.80266" lon="4.72554">
        <ele>274.11</ele>
        <time>2015-09-27T07:10:46Z</time>
      </trkpt>
      <trkpt lat="45.80263" lon="4.72553">
        <ele>274.59</ele>
        <time>2015-09-27T07:10:48Z</time>
      </trkpt>
      <trkpt lat="45.80243" lon="4.7254">
        <ele>277.96</ele>
        <time>2015-09-27T07:11:00Z</time>
      </trkpt>
      <trkpt lat="45.80241" lon="4.72539">
        <ele>277.96</ele>
        <time>2015-09-27T07:11:01Z</time>
      </trkpt>
      <trkpt lat="45.8023" lon="4.72534">
        <ele>279.4</ele>
        <time>2015-09-27T07:11:06Z</time>
      </trkpt>
      <trkpt lat="45.80221" lon="4.72532">
        <ele>281.32</ele>
        <time>2015-09-27T07:11:10Z</time>
      </trkpt>
      <trkpt lat="45.8021" lon="4.7252">
        <ele>285.17</ele>
        <time>2015-09-27T07:11:17Z</time>
      </trkpt>
      <trkpt lat="45.80208" lon="4.72498">
        <ele>285.65</ele>
        <time>2015-09-27T07:11:25Z</time>
      </trkpt>
      <trkpt lat="45.80201" lon="4.72465">
        <ele>290.94</ele>
        <time>2015-09-27T07:11:36Z</time>
      </trkpt>
      <trkpt lat="45.80208" lon="4.7245">
        <ele>292.38</ele>
        <time>2015-09-27T07:11:43Z</time>
      </trkpt>
      <trkpt lat="45.80236" lon="4.72432">
        <ele>292.86</ele>
        <time>2015-09-27T07:11:55Z</time>
      </trkpt>
      <trkpt lat="45.80268" lon="4.72418">
        <ele>294.78</ele>
        <time>2015-09-27T07:12:07Z</time>
      </trkpt>
      <trkpt lat="45.80298" lon="4.72399">
        <ele>298.63</ele>
        <time>2015-09-27T07:12:19Z</time>
      </trkpt>
      <trkpt lat="45.80327" lon="4.7237">
        <ele>301.99</ele>
        <time>2015-09-27T07:12:31Z</time>
      </trkpt>
      <trkpt lat="45.80338" lon="4.72369">
        <ele>301.99</ele>
        <time>2015-09-27T07:12:35Z</time>
      </trkpt>
      <trkpt lat="45.80365" lon="4.72357">
        <ele>301.51</ele>
        <time>2015-09-27T07:12:45Z</time>
      </trkpt>
      <trkpt lat="45.80369" lon="4.72355">
        <ele>301.51</ele>
        <time>2015-09-27T07:12:47Z</time>
      </trkpt>
      <trkpt lat="45.80409" lon="4.72335">
        <ele>299.59</ele>
        <time>2015-09-27T07:13:00Z</time>
      </trkpt>
      <trkpt lat="45.80446" lon="4.72321">
        <ele>301.51</ele>
        <time>2015-09-27T07:13:11Z</time>
      </trkpt>
      <trkpt lat="45.80481" lon="4.72304">
        <ele>306.32</ele>
        <time>2015-09-27T07:13:22Z</time>
      </trkpt>
      <trkpt lat="45.80519" lon="4.72286">
        <ele>307.76</ele>
        <time>2015-09-27T07:13:33Z</time>
      </trkpt>
      <trkpt lat="45.80572" lon="4.72265">
        <ele>307.76</ele>
        <time>2015-09-27T07:13:46Z</time>
      </trkpt>
      <trkpt lat="45.80605" lon="4.7225">
        <ele>310.16</ele>
        <time>2015-09-27T07:13:57Z</time>
      </trkpt>
      <trkpt lat="45.80637" lon="4.72227">
        <ele>310.64</ele>
        <time>2015-09-27T07:14:09Z</time>
      </trkpt>
      <trkpt lat="45.80679" lon="4.72218">
        <ele>309.68</ele>
        <time>2015-09-27T07:14:21Z</time>
      </trkpt>
      <trkpt lat="45.80683" lon="4.72219">
        <ele>309.2</ele>
        <time>2015-09-27T07:14:22Z</time>
      </trkpt>
      <trkpt lat="45.80693" lon="4.72211">
        <ele>308.72</ele>
        <time>2015-09-27T07:14:26Z</time>
      </trkpt>
      <trkpt lat="45.80698" lon="4.7215">
        <ele>308.72</ele>
        <time>2015-09-27T07:14:41Z</time>
      </trkpt>
      <trkpt lat="45.80674" lon="4.72071">
        <ele>310.64</ele>
        <time>2015-09-27T07:15:01Z</time>
      </trkpt>
      <trkpt lat="45.80639" lon="4.72028">
        <ele>312.57</ele>
        <time>2015-09-27T07:15:13Z</time>
      </trkpt>
      <trkpt lat="45.80635" lon="4.72026">
        <ele>312.57</ele>
        <time>2015-09-27T07:15:14Z</time>
      </trkpt>
      <trkpt lat="45.80576" lon="4.72008">
        <ele>312.57</ele>
        <time>2015-09-27T07:15:28Z</time>
      </trkpt>
      <trkpt lat="45.80572" lon="4.72005">
        <ele>312.57</ele>
        <time>2015-09-27T07:15:29Z</time>
      </trkpt>
      <trkpt lat="45.80568" lon="4.72002">
        <ele>312.09</ele>
        <time>2015-09-27T07:15:30Z</time>
      </trkpt>
      <trkpt lat="45.80564" lon="4.71998">
        <ele>312.09</ele>
        <time>2015-09-27T07:15:31Z</time>
      </trkpt>
      <trkpt lat="45.8056" lon="4.71995">
        <ele>312.09</ele>
        <time>2015-09-27T07:15:32Z</time>
      </trkpt>
      <trkpt lat="45.80555" lon="4.71993">
        <ele>312.09</ele>
        <time>2015-09-27T07:15:33Z</time>
      </trkpt>
      <trkpt lat="45.8055" lon="4.71991">
        <ele>312.09</ele>
        <time>2015-09-27T07:15:34Z</time>
      </trkpt>
      <trkpt lat="45.80546" lon="4.71989">
        <ele>312.57</ele>
        <time>2015-09-27T07:15:35Z</time>
      </trkpt>
      <trkpt lat="45.80541" lon="4.71987">
        <ele>312.57</ele>
        <time>2015-09-27T07:15:36Z</time>
      </trkpt>
      <trkpt lat="45.80537" lon="4.71984">
        <ele>312.57</ele>
        <time>2015-09-27T07:15:37Z</time>
      </trkpt>
      <trkpt lat="45.80528" lon="4.7198">
        <ele>312.57</ele>
        <time>2015-09-27T07:15:39Z</time>
      </trkpt>
      <trkpt lat="45.80482" lon="4.71962">
        <ele>313.05</ele>
        <time>2015-09-27T07:15:49Z</time>
      </trkpt>
      <trkpt lat="45.80423" lon="4.71945">
        <ele>312.09</ele>
        <time>2015-09-27T07:16:01Z</time>
      </trkpt>
      <trkpt lat="45.80403" lon="4.7194">
        <ele>311.6</ele>
        <time>2015-09-27T07:16:05Z</time>
      </trkpt>
      <trkpt lat="45.80398" lon="4.7194">
        <ele>311.12</ele>
        <time>2015-09-27T07:16:06Z</time>
      </trkpt>
      <trkpt lat="45.80333" lon="4.71965">
        <ele>308.72</ele>
        <time>2015-09-27T07:16:19Z</time>
      </trkpt>
      <trkpt lat="45.80324" lon="4.71974">
        <ele>308.24</ele>
        <time>2015-09-27T07:16:21Z</time>
      </trkpt>
      <trkpt lat="45.80235" lon="4.72073">
        <ele>305.84</ele>
        <time>2015-09-27T07:16:39Z</time>
      </trkpt>
      <trkpt lat="45.80224" lon="4.72087">
        <ele>305.84</ele>
        <time>2015-09-27T07:16:41Z</time>
      </trkpt>
      <trkpt lat="45.80219" lon="4.72094">
        <ele>305.84</ele>
        <time>2015-09-27T07:16:42Z</time>
      </trkpt>
      <trkpt lat="45.80213" lon="4.721">
        <ele>305.84</ele>
        <time>2015-09-27T07:16:43Z</time>
      </trkpt>
      <trkpt lat="45.80154" lon="4.72157">
        <ele>303.43</ele>
        <time>2015-09-27T07:16:53Z</time>
      </trkpt>
      <trkpt lat="45.80146" lon="4.72159">
        <ele>303.43</ele>
        <time>2015-09-27T07:16:54Z</time>
      </trkpt>
      <trkpt lat="45.8014" lon="4.72161">
        <ele>303.43</ele>
        <time>2015-09-27T07:16:55Z</time>
      </trkpt>
      <trkpt lat="45.80134" lon="4.72166">
        <ele>303.43</ele>
        <time>2015-09-27T07:16:56Z</time>
      </trkpt>
      <trkpt lat="45.80129" lon="4.72172">
        <ele>303.43</ele>
        <time>2015-09-27T07:16:57Z</time>
      </trkpt>
      <trkpt lat="45.80125" lon="4.72179">
        <ele>302.95</ele>
        <time>2015-09-27T07:16:58Z</time>
      </trkpt>
      <trkpt lat="45.8012" lon="4.72185">
        <ele>302.95</ele>
        <time>2015-09-27T07:16:59Z</time>
      </trkpt>
      <trkpt lat="45.80114" lon="4.72191">
        <ele>302.95</ele>
        <time>2015-09-27T07:17:00Z</time>
      </trkpt>
      <trkpt lat="45.80109" lon="4.72195">
        <ele>302.95</ele>
        <time>2015-09-27T07:17:01Z</time>
      </trkpt>
      <trkpt lat="45.80019" lon="4.72264">
        <ele>301.99</ele>
        <time>2015-09-27T07:17:17Z</time>
      </trkpt>
      <trkpt lat="45.79928" lon="4.72312">
        <ele>301.51</ele>
        <time>2015-09-27T07:17:33Z</time>
      </trkpt>
      <trkpt lat="45.79853" lon="4.72346">
        <ele>301.03</ele>
        <time>2015-09-27T07:17:46Z</time>
      </trkpt>
      <trkpt lat="45.79847" lon="4.72348">
        <ele>300.55</ele>
        <time>2015-09-27T07:17:47Z</time>
      </trkpt>
      <trkpt lat="45.7975" lon="4.72381">
        <ele>296.7</ele>
        <time>2015-09-27T07:18:04Z</time>
      </trkpt>
      <trkpt lat="45.79734" lon="4.72386">
        <ele>295.74</ele>
        <time>2015-09-27T07:18:07Z</time>
      </trkpt>
      <trkpt lat="45.79729" lon="4.72387">
        <ele>295.26</ele>
        <time>2015-09-27T07:18:08Z</time>
      </trkpt>
      <trkpt lat="45.79723" lon="4.72388">
        <ele>294.78</ele>
        <time>2015-09-27T07:18:09Z</time>
      </trkpt>
      <trkpt lat="45.79687" lon="4.72402">
        <ele>292.38</ele>
        <time>2015-09-27T07:18:16Z</time>
      </trkpt>
      <trkpt lat="45.79682" lon="4.72406">
        <ele>291.9</ele>
        <time>2015-09-27T07:18:17Z</time>
      </trkpt>
      <trkpt lat="45.79677" lon="4.7241">
        <ele>291.9</ele>
        <time>2015-09-27T07:18:18Z</time>
      </trkpt>
      <trkpt lat="45.79596" lon="4.72466">
        <ele>289.49</ele>
        <time>2015-09-27T07:18:33Z</time>
      </trkpt>
      <trkpt lat="45.79519" lon="4.72523">
        <ele>288.05</ele>
        <time>2015-09-27T07:18:48Z</time>
      </trkpt>
      <trkpt lat="45.79431" lon="4.72612">
        <ele>286.13</ele>
        <time>2015-09-27T07:19:04Z</time>
      </trkpt>
      <trkpt lat="45.79346" lon="4.72699">
        <ele>284.21</ele>
        <time>2015-09-27T07:19:17Z</time>
      </trkpt>
      <trkpt lat="45.79282" lon="4.72805">
        <ele>281.32</ele>
        <time>2015-09-27T07:19:28Z</time>
      </trkpt>
      <trkpt lat="45.79273" lon="4.72824">
        <ele>280.84</ele>
        <time>2015-09-27T07:19:30Z</time>
      </trkpt>
      <trkpt lat="45.79208" lon="4.7295">
        <ele>280.36</ele>
        <time>2015-09-27T07:19:44Z</time>
      </trkpt>
      <trkpt lat="45.79167" lon="4.73038">
        <ele>278.92</ele>
        <time>2015-09-27T07:19:54Z</time>
      </trkpt>
      <trkpt lat="45.79165" lon="4.73047">
        <ele>278.92</ele>
        <time>2015-09-27T07:19:55Z</time>
      </trkpt>
      <trkpt lat="45.79165" lon="4.73058">
        <ele>278.92</ele>
        <time>2015-09-27T07:19:56Z</time>
      </trkpt>
      <trkpt lat="45.79166" lon="4.73067">
        <ele>278.92</ele>
        <time>2015-09-27T07:19:57Z</time>
      </trkpt>
      <trkpt lat="45.79169" lon="4.73077">
        <ele>278.92</ele>
        <time>2015-09-27T07:19:58Z</time>
      </trkpt>
      <trkpt lat="45.79188" lon="4.73137">
        <ele>276.52</ele>
        <time>2015-09-27T07:20:04Z</time>
      </trkpt>
      <trkpt lat="45.79189" lon="4.73148">
        <ele>276.04</ele>
        <time>2015-09-27T07:20:05Z</time>
      </trkpt>
      <trkpt lat="45.79189" lon="4.73159">
        <ele>275.07</ele>
        <time>2015-09-27T07:20:06Z</time>
      </trkpt>
      <trkpt lat="45.79188" lon="4.7317">
        <ele>274.59</ele>
        <time>2015-09-27T07:20:07Z</time>
      </trkpt>
      <trkpt lat="45.79186" lon="4.73181">
        <ele>273.63</ele>
        <time>2015-09-27T07:20:08Z</time>
      </trkpt>
      <trkpt lat="45.79181" lon="4.73191">
        <ele>272.67</ele>
        <time>2015-09-27T07:20:09Z</time>
      </trkpt>
      <trkpt lat="45.79175" lon="4.73199">
        <ele>272.19</ele>
        <time>2015-09-27T07:20:10Z</time>
      </trkpt>
      <trkpt lat="45.79167" lon="4.73206">
        <ele>271.23</ele>
        <time>2015-09-27T07:20:11Z</time>
      </trkpt>
      <trkpt lat="45.79159" lon="4.73211">
        <ele>270.75</ele>
        <time>2015-09-27T07:20:12Z</time>
      </trkpt>
      <trkpt lat="45.7915" lon="4.73215">
        <ele>270.27</ele>
        <time>2015-09-27T07:20:13Z</time>
      </trkpt>
      <trkpt lat="45.79142" lon="4.73219">
        <ele>269.31</ele>
        <time>2015-09-27T07:20:14Z</time>
      </trkpt>
      <trkpt lat="45.791" lon="4.73233">
        <ele>264.98</ele>
        <time>2015-09-27T07:20:20Z</time>
      </trkpt>
      <trkpt lat="45.79092" lon="4.73232">
        <ele>264.5</ele>
        <time>2015-09-27T07:20:21Z</time>
      </trkpt>
      <trkpt lat="45.79085" lon="4.73229">
        <ele>264.02</ele>
        <time>2015-09-27T07:20:22Z</time>
      </trkpt>
      <trkpt lat="45.79044" lon="4.73209">
        <ele>260.17</ele>
        <time>2015-09-27T07:20:28Z</time>
      </trkpt>
      <trkpt lat="45.78964" lon="4.73195">
        <ele>253.44</ele>
        <time>2015-09-27T07:20:39Z</time>
      </trkpt>
      <trkpt lat="45.78885" lon="4.73184">
        <ele>246.23</ele>
        <time>2015-09-27T07:20:50Z</time>
      </trkpt>
      <trkpt lat="45.78879" lon="4.73185">
        <ele>245.27</ele>
        <time>2015-09-27T07:20:51Z</time>
      </trkpt>
      <trkpt lat="45.78874" lon="4.73187">
        <ele>245.27</ele>
        <time>2015-09-27T07:20:52Z</time>
      </trkpt>
      <trkpt lat="45.78869" lon="4.73191">
        <ele>244.79</ele>
        <time>2015-09-27T07:20:53Z</time>
      </trkpt>
      <trkpt lat="45.78864" lon="4.73195">
        <ele>244.79</ele>
        <time>2015-09-27T07:20:54Z</time>
      </trkpt>
      <trkpt lat="45.7886" lon="4.732">
        <ele>244.31</ele>
        <time>2015-09-27T07:20:55Z</time>
      </trkpt>
      <trkpt lat="45.78855" lon="4.73205">
        <ele>244.31</ele>
        <time>2015-09-27T07:20:56Z</time>
      </trkpt>
      <trkpt lat="45.78844" lon="4.73221">
        <ele>244.31</ele>
        <time>2015-09-27T07:20:59Z</time>
      </trkpt>
      <trkpt lat="45.7884" lon="4.73224">
        <ele>243.83</ele>
        <time>2015-09-27T07:21:00Z</time>
      </trkpt>
      <trkpt lat="45.78835" lon="4.73226">
        <ele>243.83</ele>
        <time>2015-09-27T07:21:01Z</time>
      </trkpt>
      <trkpt lat="45.78831" lon="4.73228">
        <ele>243.83</ele>
        <time>2015-09-27T07:21:02Z</time>
      </trkpt>
      <trkpt lat="45.78826" lon="4.73231">
        <ele>243.83</ele>
        <time>2015-09-27T07:21:03Z</time>
      </trkpt>
      <trkpt lat="45.78821" lon="4.73234">
        <ele>243.83</ele>
        <time>2015-09-27T07:21:04Z</time>
      </trkpt>
      <trkpt lat="45.78817" lon="4.73236">
        <ele>244.31</ele>
        <time>2015-09-27T07:21:05Z</time>
      </trkpt>
      <trkpt lat="45.78815" lon="4.73239">
        <ele>244.31</ele>
        <time>2015-09-27T07:21:06Z</time>
      </trkpt>
      <trkpt lat="45.78796" lon="4.73243">
        <ele>245.27</ele>
        <time>2015-09-27T07:21:12Z</time>
      </trkpt>
      <trkpt lat="45.78789" lon="4.73243">
        <ele>244.79</ele>
        <time>2015-09-27T07:21:14Z</time>
      </trkpt>
      <trkpt lat="45.78784" lon="4.73242">
        <ele>244.79</ele>
        <time>2015-09-27T07:21:15Z</time>
      </trkpt>
      <trkpt lat="45.78743" lon="4.7324">
        <ele>243.35</ele>
        <time>2015-09-27T07:21:24Z</time>
      </trkpt>
      <trkpt lat="45.78728" lon="4.73244">
        <ele>242.39</ele>
        <time>2015-09-27T07:21:27Z</time>
      </trkpt>
      <trkpt lat="45.78723" lon="4.73247">
        <ele>242.39</ele>
        <time>2015-09-27T07:21:28Z</time>
      </trkpt>
      <trkpt lat="45.78706" lon="4.73258">
        <ele>242.87</ele>
        <time>2015-09-27T07:21:32Z</time>
      </trkpt>
      <trkpt lat="45.78702" lon="4.73261">
        <ele>242.87</ele>
        <time>2015-09-27T07:21:33Z</time>
      </trkpt>
      <trkpt lat="45.78698" lon="4.73263">
        <ele>242.87</ele>
        <time>2015-09-27T07:21:34Z</time>
      </trkpt>
      <trkpt lat="45.78695" lon="4.73263">
        <ele>242.87</ele>
        <time>2015-09-27T07:21:35Z</time>
      </trkpt>
      <trkpt lat="45.78693" lon="4.73264">
        <ele>242.87</ele>
        <time>2015-09-27T07:21:36Z</time>
      </trkpt>
      <trkpt lat="45.7869" lon="4.73264">
        <ele>242.87</ele>
        <time>2015-09-27T07:21:37Z</time>
      </trkpt>
      <trkpt lat="45.78688" lon="4.73265">
        <ele>244.31</ele>
        <time>2015-09-27T07:21:46Z</time>
      </trkpt>
      <trkpt lat="45.78688" lon="4.73264">
        <ele>246.23</ele>
        <time>2015-09-27T07:22:12Z</time>
      </trkpt>
      <trkpt lat="45.78688" lon="4.73263">
        <ele>248.16</ele>
        <time>2015-09-27T07:22:42Z</time>
      </trkpt>
      <trkpt lat="45.78689" lon="4.73263">
        <ele>247.68</ele>
        <time>2015-09-27T07:23:10Z</time>
      </trkpt>
      <trkpt lat="45.78692" lon="4.73263">
        <ele>249.12</ele>
        <time>2015-09-27T07:23:39Z</time>
      </trkpt>
      <trkpt lat="45.78689" lon="4.73266">
        <ele>248.16</ele>
        <time>2015-09-27T07:24:08Z</time>
      </trkpt>
      <trkpt lat="45.78688" lon="4.73265">
        <ele>249.6</ele>
        <time>2015-09-27T07:24:38Z</time>
      </trkpt>
      <trkpt lat="45.7869" lon="4.7327">
        <ele>247.2</ele>
        <time>2015-09-27T07:25:08Z</time>
      </trkpt>
      <trkpt lat="45.78689" lon="4.73272">
        <ele>247.2</ele>
        <time>2015-09-27T07:25:31Z</time>
      </trkpt>
      <trkpt lat="45.78688" lon="4.73271">
        <ele>248.16</ele>
        <time>2015-09-27T07:25:55Z</time>
      </trkpt>
      <trkpt lat="45.78687" lon="4.73271">
        <ele>250.56</ele>
        <time>2015-09-27T07:26:23Z</time>
      </trkpt>
      <trkpt lat="45.78688" lon="4.73269">
        <ele>252</ele>
        <time>2015-09-27T07:26:52Z</time>
      </trkpt>
      <trkpt lat="45.78687" lon="4.73267">
        <ele>250.56</ele>
        <time>2015-09-27T07:27:20Z</time>
      </trkpt>
      <trkpt lat="45.78687" lon="4.73267">
        <ele>251.04</ele>
        <time>2015-09-27T07:27:45Z</time>
      </trkpt>
      <trkpt lat="45.78687" lon="4.73268">
        <ele>252.96</ele>
        <time>2015-09-27T07:28:13Z</time>
      </trkpt>
      <trkpt lat="45.78688" lon="4.7327">
        <ele>255.37</ele>
        <time>2015-09-27T07:28:35Z</time>
      </trkpt>
      <trkpt lat="45.78689" lon="4.73271">
        <ele>255.37</ele>
        <time>2015-09-27T07:28:36Z</time>
      </trkpt>
      <trkpt lat="45.7869" lon="4.73272">
        <ele>255.37</ele>
        <time>2015-09-27T07:28:37Z</time>
      </trkpt>
      <trkpt lat="45.78693" lon="4.73272">
        <ele>254.89</ele>
        <time>2015-09-27T07:28:40Z</time>
      </trkpt>
      <trkpt lat="45.78695" lon="4.73268">
        <ele>254.41</ele>
        <time>2015-09-27T07:28:43Z</time>
      </trkpt>
      <trkpt lat="45.78696" lon="4.73266">
        <ele>254.41</ele>
        <time>2015-09-27T07:28:44Z</time>
      </trkpt>
      <trkpt lat="45.78725" lon="4.73249">
        <ele>254.89</ele>
        <time>2015-09-27T07:28:55Z</time>
      </trkpt>
      <trkpt lat="45.78755" lon="4.73247">
        <ele>254.89</ele>
        <time>2015-09-27T07:29:04Z</time>
      </trkpt>
      <trkpt lat="45.78778" lon="4.73249">
        <ele>254.89</ele>
        <time>2015-09-27T07:29:09Z</time>
      </trkpt>
      <trkpt lat="45.78783" lon="4.7325">
        <ele>254.89</ele>
        <time>2015-09-27T07:29:10Z</time>
      </trkpt>
      <trkpt lat="45.78816" lon="4.73252">
        <ele>254.89</ele>
        <time>2015-09-27T07:29:16Z</time>
      </trkpt>
      <trkpt lat="45.78821" lon="4.7325">
        <ele>254.41</ele>
        <time>2015-09-27T07:29:17Z</time>
      </trkpt>
      <trkpt lat="45.78827" lon="4.73249">
        <ele>254.41</ele>
        <time>2015-09-27T07:29:18Z</time>
      </trkpt>
      <trkpt lat="45.78832" lon="4.73249">
        <ele>254.89</ele>
        <time>2015-09-27T07:29:19Z</time>
      </trkpt>
      <trkpt lat="45.78838" lon="4.7325">
        <ele>254.89</ele>
        <time>2015-09-27T07:29:20Z</time>
      </trkpt>
      <trkpt lat="45.78843" lon="4.73248">
        <ele>254.89</ele>
        <time>2015-09-27T07:29:21Z</time>
      </trkpt>
      <trkpt lat="45.78847" lon="4.73244">
        <ele>254.41</ele>
        <time>2015-09-27T07:29:22Z</time>
      </trkpt>
      <trkpt lat="45.7885" lon="4.73238">
        <ele>254.41</ele>
        <time>2015-09-27T07:29:23Z</time>
      </trkpt>
      <trkpt lat="45.78851" lon="4.73231">
        <ele>253.93</ele>
        <time>2015-09-27T07:29:24Z</time>
      </trkpt>
      <trkpt lat="45.78853" lon="4.73224">
        <ele>253.93</ele>
        <time>2015-09-27T07:29:25Z</time>
      </trkpt>
      <trkpt lat="45.78856" lon="4.73218">
        <ele>253.93</ele>
        <time>2015-09-27T07:29:26Z</time>
      </trkpt>
      <trkpt lat="45.78859" lon="4.73212">
        <ele>253.93</ele>
        <time>2015-09-27T07:29:27Z</time>
      </trkpt>
      <trkpt lat="45.78862" lon="4.73207">
        <ele>253.93</ele>
        <time>2015-09-27T07:29:28Z</time>
      </trkpt>
      <trkpt lat="45.78868" lon="4.73199">
        <ele>254.41</ele>
        <time>2015-09-27T07:29:30Z</time>
      </trkpt>
      <trkpt lat="45.78872" lon="4.73196">
        <ele>254.41</ele>
        <time>2015-09-27T07:29:31Z</time>
      </trkpt>
      <trkpt lat="45.78879" lon="4.7319">
        <ele>254.89</ele>
        <time>2015-09-27T07:29:33Z</time>
      </trkpt>
      <trkpt lat="45.78883" lon="4.73189">
        <ele>255.37</ele>
        <time>2015-09-27T07:29:34Z</time>
      </trkpt>
      <trkpt lat="45.78886" lon="4.73188">
        <ele>255.37</ele>
        <time>2015-09-27T07:29:35Z</time>
      </trkpt>
      <trkpt lat="45.7889" lon="4.73188">
        <ele>255.85</ele>
        <time>2015-09-27T07:29:36Z</time>
      </trkpt>
      <trkpt lat="45.78894" lon="4.73188">
        <ele>255.85</ele>
        <time>2015-09-27T07:29:37Z</time>
      </trkpt>
      <trkpt lat="45.78897" lon="4.73188">
        <ele>256.33</ele>
        <time>2015-09-27T07:29:38Z</time>
      </trkpt>
      <trkpt lat="45.789" lon="4.73189">
        <ele>256.81</ele>
        <time>2015-09-27T07:29:39Z</time>
      </trkpt>
      <trkpt lat="45.78941" lon="4.73196">
        <ele>261.62</ele>
        <time>2015-09-27T07:29:53Z</time>
      </trkpt>
      <trkpt lat="45.7898" lon="4.73204">
        <ele>267.38</ele>
        <time>2015-09-27T07:30:07Z</time>
      </trkpt>
      <trkpt lat="45.79024" lon="4.73215">
        <ele>275.56</ele>
        <time>2015-09-27T07:30:21Z</time>
      </trkpt>
      <trkpt lat="45.79064" lon="4.73227">
        <ele>281.8</ele>
        <time>2015-09-27T07:30:33Z</time>
      </trkpt>
      <trkpt lat="45.791" lon="4.73235">
        <ele>280.84</ele>
        <time>2015-09-27T07:30:47Z</time>
      </trkpt>
      <trkpt lat="45.79141" lon="4.73221">
        <ele>275.56</ele>
        <time>2015-09-27T07:31:04Z</time>
      </trkpt>
      <trkpt lat="45.79179" lon="4.73201">
        <ele>279.88</ele>
        <time>2015-09-27T07:31:22Z</time>
      </trkpt>
      <trkpt lat="45.79198" lon="4.73167">
        <ele>280.84</ele>
        <time>2015-09-27T07:31:35Z</time>
      </trkpt>
      <trkpt lat="45.79193" lon="4.73119">
        <ele>281.32</ele>
        <time>2015-09-27T07:31:49Z</time>
      </trkpt>
      <trkpt lat="45.79179" lon="4.73068">
        <ele>282.77</ele>
        <time>2015-09-27T07:32:03Z</time>
      </trkpt>
      <trkpt lat="45.79184" lon="4.73012">
        <ele>284.21</ele>
        <time>2015-09-27T07:32:17Z</time>
      </trkpt>
      <trkpt lat="45.79216" lon="4.7294">
        <ele>285.17</ele>
        <time>2015-09-27T07:32:35Z</time>
      </trkpt>
      <trkpt lat="45.79237" lon="4.72896">
        <ele>285.17</ele>
        <time>2015-09-27T07:32:46Z</time>
      </trkpt>
      <trkpt lat="45.79261" lon="4.72847">
        <ele>286.13</ele>
        <time>2015-09-27T07:33:00Z</time>
      </trkpt>
      <trkpt lat="45.79266" lon="4.72836">
        <ele>286.13</ele>
        <time>2015-09-27T07:33:04Z</time>
      </trkpt>
      <trkpt lat="45.79268" lon="4.72831">
        <ele>286.13</ele>
        <time>2015-09-27T07:33:07Z</time>
      </trkpt>
      <trkpt lat="45.7927" lon="4.7283">
        <ele>286.13</ele>
        <time>2015-09-27T07:33:08Z</time>
      </trkpt>
      <trkpt lat="45.79271" lon="4.72829">
        <ele>286.61</ele>
        <time>2015-09-27T07:33:09Z</time>
      </trkpt>
      <trkpt lat="45.79273" lon="4.72827">
        <ele>286.61</ele>
        <time>2015-09-27T07:33:10Z</time>
      </trkpt>
      <trkpt lat="45.79274" lon="4.72825">
        <ele>286.61</ele>
        <time>2015-09-27T07:33:11Z</time>
      </trkpt>
      <trkpt lat="45.793" lon="4.72773">
        <ele>286.13</ele>
        <time>2015-09-27T07:33:23Z</time>
      </trkpt>
      <trkpt lat="45.79334" lon="4.72715">
        <ele>287.57</ele>
        <time>2015-09-27T07:33:37Z</time>
      </trkpt>
      <trkpt lat="45.79365" lon="4.72683">
        <ele>289.97</ele>
        <time>2015-09-27T07:33:47Z</time>
      </trkpt>
      <trkpt lat="45.79408" lon="4.72639">
        <ele>295.26</ele>
        <time>2015-09-27T07:34:02Z</time>
      </trkpt>
      <trkpt lat="45.79443" lon="4.72604">
        <ele>298.15</ele>
        <time>2015-09-27T07:34:15Z</time>
      </trkpt>
      <trkpt lat="45.79485" lon="4.72564">
        <ele>302.47</ele>
        <time>2015-09-27T07:34:29Z</time>
      </trkpt>
      <trkpt lat="45.79526" lon="4.72525">
        <ele>304.39</ele>
        <time>2015-09-27T07:34:43Z</time>
      </trkpt>
      <trkpt lat="45.79585" lon="4.72482">
        <ele>302.47</ele>
        <time>2015-09-27T07:34:59Z</time>
      </trkpt>
      <trkpt lat="45.79647" lon="4.72438">
        <ele>299.59</ele>
        <time>2015-09-27T07:35:13Z</time>
      </trkpt>
      <trkpt lat="45.7967" lon="4.72423">
        <ele>299.59</ele>
        <time>2015-09-27T07:35:18Z</time>
      </trkpt>
      <trkpt lat="45.79675" lon="4.72421">
        <ele>299.59</ele>
        <time>2015-09-27T07:35:19Z</time>
      </trkpt>
      <trkpt lat="45.79679" lon="4.72419">
        <ele>299.59</ele>
        <time>2015-09-27T07:35:20Z</time>
      </trkpt>
      <trkpt lat="45.79684" lon="4.72417">
        <ele>300.07</ele>
        <time>2015-09-27T07:35:21Z</time>
      </trkpt>
      <trkpt lat="45.79688" lon="4.72414">
        <ele>300.07</ele>
        <time>2015-09-27T07:35:22Z</time>
      </trkpt>
      <trkpt lat="45.79693" lon="4.72413">
        <ele>300.55</ele>
        <time>2015-09-27T07:35:23Z</time>
      </trkpt>
      <trkpt lat="45.79744" lon="4.72389">
        <ele>301.03</ele>
        <time>2015-09-27T07:35:34Z</time>
      </trkpt>
      <trkpt lat="45.79749" lon="4.72387">
        <ele>301.03</ele>
        <time>2015-09-27T07:35:35Z</time>
      </trkpt>
      <trkpt lat="45.79754" lon="4.72387">
        <ele>300.55</ele>
        <time>2015-09-27T07:35:36Z</time>
      </trkpt>
      <trkpt lat="45.79759" lon="4.72386">
        <ele>301.03</ele>
        <time>2015-09-27T07:35:37Z</time>
      </trkpt>
      <trkpt lat="45.79764" lon="4.72385">
        <ele>301.03</ele>
        <time>2015-09-27T07:35:38Z</time>
      </trkpt>
      <trkpt lat="45.79768" lon="4.72384">
        <ele>301.03</ele>
        <time>2015-09-27T07:35:39Z</time>
      </trkpt>
      <trkpt lat="45.79773" lon="4.72383">
        <ele>301.03</ele>
        <time>2015-09-27T07:35:40Z</time>
      </trkpt>
      <trkpt lat="45.79777" lon="4.72382">
        <ele>301.03</ele>
        <time>2015-09-27T07:35:41Z</time>
      </trkpt>
      <trkpt lat="45.79856" lon="4.72355">
        <ele>301.51</ele>
        <time>2015-09-27T07:35:58Z</time>
      </trkpt>
      <trkpt lat="45.79943" lon="4.72314">
        <ele>302.95</ele>
        <time>2015-09-27T07:36:18Z</time>
      </trkpt>
      <trkpt lat="45.80008" lon="4.72283">
        <ele>302.95</ele>
        <time>2015-09-27T07:36:33Z</time>
      </trkpt>
      <trkpt lat="45.80012" lon="4.7228">
        <ele>302.95</ele>
        <time>2015-09-27T07:36:34Z</time>
      </trkpt>
      <trkpt lat="45.80016" lon="4.72277">
        <ele>302.95</ele>
        <time>2015-09-27T07:36:35Z</time>
      </trkpt>
      <trkpt lat="45.80082" lon="4.72228">
        <ele>302.47</ele>
        <time>2015-09-27T07:36:51Z</time>
      </trkpt>
      <trkpt lat="45.80086" lon="4.72224">
        <ele>302.47</ele>
        <time>2015-09-27T07:36:52Z</time>
      </trkpt>
      <trkpt lat="45.80138" lon="4.72197">
        <ele>303.91</ele>
        <time>2015-09-27T07:37:05Z</time>
      </trkpt>
      <trkpt lat="45.80143" lon="4.72198">
        <ele>303.91</ele>
        <time>2015-09-27T07:37:06Z</time>
      </trkpt>
      <trkpt lat="45.80146" lon="4.72197">
        <ele>304.39</ele>
        <time>2015-09-27T07:37:07Z</time>
      </trkpt>
      <trkpt lat="45.8015" lon="4.72194">
        <ele>304.39</ele>
        <time>2015-09-27T07:37:08Z</time>
      </trkpt>
      <trkpt lat="45.80153" lon="4.7219">
        <ele>304.39</ele>
        <time>2015-09-27T07:37:09Z</time>
      </trkpt>
      <trkpt lat="45.80155" lon="4.72185">
        <ele>304.39</ele>
        <time>2015-09-27T07:37:10Z</time>
      </trkpt>
      <trkpt lat="45.80157" lon="4.7218">
        <ele>304.39</ele>
        <time>2015-09-27T07:37:11Z</time>
      </trkpt>
      <trkpt lat="45.80181" lon="4.72142">
        <ele>303.91</ele>
        <time>2015-09-27T07:37:23Z</time>
      </trkpt>
      <trkpt lat="45.80189" lon="4.72133">
        <ele>303.91</ele>
        <time>2015-09-27T07:37:34Z</time>
      </trkpt>
      <trkpt lat="45.80209" lon="4.72108">
        <ele>304.39</ele>
        <time>2015-09-27T07:37:44Z</time>
      </trkpt>
      <trkpt lat="45.80252" lon="4.7206">
        <ele>306.32</ele>
        <time>2015-09-27T07:37:57Z</time>
      </trkpt>
      <trkpt lat="45.80308" lon="4.71996">
        <ele>309.2</ele>
        <time>2015-09-27T07:38:14Z</time>
      </trkpt>
      <trkpt lat="45.80341" lon="4.71964">
        <ele>309.68</ele>
        <time>2015-09-27T07:38:23Z</time>
      </trkpt>
      <trkpt lat="45.80364" lon="4.71951">
        <ele>310.16</ele>
        <time>2015-09-27T07:38:29Z</time>
      </trkpt>
      <trkpt lat="45.80373" lon="4.71948">
        <ele>310.16</ele>
        <time>2015-09-27T07:38:31Z</time>
      </trkpt>
      <trkpt lat="45.80381" lon="4.71946">
        <ele>310.64</ele>
        <time>2015-09-27T07:38:33Z</time>
      </trkpt>
      <trkpt lat="45.80411" lon="4.71946">
        <ele>310.64</ele>
        <time>2015-09-27T07:38:40Z</time>
      </trkpt>
      <trkpt lat="45.80415" lon="4.71947">
        <ele>310.64</ele>
        <time>2015-09-27T07:38:41Z</time>
      </trkpt>
      <trkpt lat="45.80419" lon="4.71948">
        <ele>310.64</ele>
        <time>2015-09-27T07:38:42Z</time>
      </trkpt>
      <trkpt lat="45.80431" lon="4.71952">
        <ele>310.64</ele>
        <time>2015-09-27T07:38:45Z</time>
      </trkpt>
      <trkpt lat="45.80436" lon="4.71953">
        <ele>310.64</ele>
        <time>2015-09-27T07:38:46Z</time>
      </trkpt>
      <trkpt lat="45.80501" lon="4.71974">
        <ele>311.6</ele>
        <time>2015-09-27T07:39:01Z</time>
      </trkpt>
      <trkpt lat="45.80515" lon="4.71978">
        <ele>312.57</ele>
        <time>2015-09-27T07:39:04Z</time>
      </trkpt>
      <trkpt lat="45.80519" lon="4.71979">
        <ele>312.57</ele>
        <time>2015-09-27T07:39:05Z</time>
      </trkpt>
      <trkpt lat="45.80527" lon="4.7198">
        <ele>312.57</ele>
        <time>2015-09-27T07:39:07Z</time>
      </trkpt>
      <trkpt lat="45.8059" lon="4.71989">
        <ele>313.05</ele>
        <time>2015-09-27T07:39:21Z</time>
      </trkpt>
      <trkpt lat="45.80655" lon="4.71969">
        <ele>314.49</ele>
        <time>2015-09-27T07:39:35Z</time>
      </trkpt>
      <trkpt lat="45.80737" lon="4.71948">
        <ele>316.89</ele>
        <time>2015-09-27T07:39:53Z</time>
      </trkpt>
      <trkpt lat="45.80758" lon="4.71942">
        <ele>317.37</ele>
        <time>2015-09-27T07:39:58Z</time>
      </trkpt>
      <trkpt lat="45.80762" lon="4.7194">
        <ele>317.85</ele>
        <time>2015-09-27T07:39:59Z</time>
      </trkpt>
      <trkpt lat="45.8077" lon="4.71937">
        <ele>318.33</ele>
        <time>2015-09-27T07:40:01Z</time>
      </trkpt>
      <trkpt lat="45.80774" lon="4.71936">
        <ele>318.33</ele>
        <time>2015-09-27T07:40:02Z</time>
      </trkpt>
      <trkpt lat="45.80779" lon="4.71936">
        <ele>318.33</ele>
        <time>2015-09-27T07:40:03Z</time>
      </trkpt>
      <trkpt lat="45.80787" lon="4.71934">
        <ele>317.85</ele>
        <time>2015-09-27T07:40:05Z</time>
      </trkpt>
      <trkpt lat="45.80791" lon="4.71931">
        <ele>317.85</ele>
        <time>2015-09-27T07:40:06Z</time>
      </trkpt>
      <trkpt lat="45.80793" lon="4.71926">
        <ele>317.85</ele>
        <time>2015-09-27T07:40:07Z</time>
      </trkpt>
      <trkpt lat="45.80792" lon="4.71921">
        <ele>317.85</ele>
        <time>2015-09-27T07:40:08Z</time>
      </trkpt>
      <trkpt lat="45.80791" lon="4.71916">
        <ele>317.85</ele>
        <time>2015-09-27T07:40:09Z</time>
      </trkpt>
      <trkpt lat="45.80789" lon="4.7191">
        <ele>317.85</ele>
        <time>2015-09-27T07:40:10Z</time>
      </trkpt>
      <trkpt lat="45.80788" lon="4.71904">
        <ele>317.85</ele>
        <time>2015-09-27T07:40:11Z</time>
      </trkpt>
      <trkpt lat="45.80787" lon="4.71898">
        <ele>317.85</ele>
        <time>2015-09-27T07:40:12Z</time>
      </trkpt>
      <trkpt lat="45.80786" lon="4.71891">
        <ele>317.85</ele>
        <time>2015-09-27T07:40:13Z</time>
      </trkpt>
      <trkpt lat="45.80786" lon="4.71885">
        <ele>317.85</ele>
        <time>2015-09-27T07:40:14Z</time>
      </trkpt>
      <trkpt lat="45.80785" lon="4.71808">
        <ele>321.7</ele>
        <time>2015-09-27T07:40:29Z</time>
      </trkpt>
      <trkpt lat="45.80799" lon="4.71754">
        <ele>323.62</ele>
        <time>2015-09-27T07:40:41Z</time>
      </trkpt>
      <trkpt lat="45.80834" lon="4.71678">
        <ele>326.02</ele>
        <time>2015-09-27T07:40:58Z</time>
      </trkpt>
      <trkpt lat="45.80875" lon="4.71633">
        <ele>329.87</ele>
        <time>2015-09-27T07:41:13Z</time>
      </trkpt>
      <trkpt lat="45.80909" lon="4.71606">
        <ele>331.31</ele>
        <time>2015-09-27T07:41:26Z</time>
      </trkpt>
      <trkpt lat="45.80946" lon="4.71587">
        <ele>328.91</ele>
        <time>2015-09-27T07:41:39Z</time>
      </trkpt>
      <trkpt lat="45.80994" lon="4.71579">
        <ele>332.75</ele>
        <time>2015-09-27T07:41:56Z</time>
      </trkpt>
      <trkpt lat="45.81023" lon="4.71558">
        <ele>336.6</ele>
        <time>2015-09-27T07:42:10Z</time>
      </trkpt>
      <trkpt lat="45.81058" lon="4.7153">
        <ele>340.44</ele>
        <time>2015-09-27T07:42:26Z</time>
      </trkpt>
      <trkpt lat="45.811" lon="4.71493">
        <ele>346.21</ele>
        <time>2015-09-27T07:42:44Z</time>
      </trkpt>
      <trkpt lat="45.81119" lon="4.7146">
        <ele>348.13</ele>
        <time>2015-09-27T07:42:58Z</time>
      </trkpt>
      <trkpt lat="45.81092" lon="4.71396">
        <ele>347.17</ele>
        <time>2015-09-27T07:43:08Z</time>
      </trkpt>
      <trkpt lat="45.81074" lon="4.71363">
        <ele>345.73</ele>
        <time>2015-09-27T07:43:12Z</time>
      </trkpt>
      <trkpt lat="45.81016" lon="4.71289">
        <ele>342.37</ele>
        <time>2015-09-27T07:43:22Z</time>
      </trkpt>
      <trkpt lat="45.81011" lon="4.71279">
        <ele>341.41</ele>
        <time>2015-09-27T07:43:23Z</time>
      </trkpt>
      <trkpt lat="45.80954" lon="4.71147">
        <ele>341.41</ele>
        <time>2015-09-27T07:43:38Z</time>
      </trkpt>
      <trkpt lat="45.80921" lon="4.71036">
        <ele>339.96</ele>
        <time>2015-09-27T07:43:51Z</time>
      </trkpt>
      <trkpt lat="45.80906" lon="4.70966">
        <ele>337.08</ele>
        <time>2015-09-27T07:43:58Z</time>
      </trkpt>
      <trkpt lat="45.80906" lon="4.70956">
        <ele>337.08</ele>
        <time>2015-09-27T07:43:59Z</time>
      </trkpt>
      <trkpt lat="45.80907" lon="4.70945">
        <ele>336.6</ele>
        <time>2015-09-27T07:44:00Z</time>
      </trkpt>
      <trkpt lat="45.80908" lon="4.70935">
        <ele>336.12</ele>
        <time>2015-09-27T07:44:01Z</time>
      </trkpt>
      <trkpt lat="45.8091" lon="4.70924">
        <ele>335.64</ele>
        <time>2015-09-27T07:44:02Z</time>
      </trkpt>
      <trkpt lat="45.80921" lon="4.70874">
        <ele>332.75</ele>
        <time>2015-09-27T07:44:07Z</time>
      </trkpt>
      <trkpt lat="45.80925" lon="4.70865">
        <ele>332.75</ele>
        <time>2015-09-27T07:44:08Z</time>
      </trkpt>
      <trkpt lat="45.8093" lon="4.70858">
        <ele>332.27</ele>
        <time>2015-09-27T07:44:09Z</time>
      </trkpt>
      <trkpt lat="45.80934" lon="4.70852">
        <ele>332.27</ele>
        <time>2015-09-27T07:44:10Z</time>
      </trkpt>
      <trkpt lat="45.80937" lon="4.70844">
        <ele>331.79</ele>
        <time>2015-09-27T07:44:11Z</time>
      </trkpt>
      <trkpt lat="45.80938" lon="4.70834">
        <ele>331.31</ele>
        <time>2015-09-27T07:44:12Z</time>
      </trkpt>
      <trkpt lat="45.80937" lon="4.70824">
        <ele>330.83</ele>
        <time>2015-09-27T07:44:13Z</time>
      </trkpt>
      <trkpt lat="45.80913" lon="4.70703">
        <ele>325.54</ele>
        <time>2015-09-27T07:44:24Z</time>
      </trkpt>
      <trkpt lat="45.80908" lon="4.70694">
        <ele>324.58</ele>
        <time>2015-09-27T07:44:25Z</time>
      </trkpt>
      <trkpt lat="45.80884" lon="4.7065">
        <ele>321.7</ele>
        <time>2015-09-27T07:44:30Z</time>
      </trkpt>
      <trkpt lat="45.80881" lon="4.70639">
        <ele>320.74</ele>
        <time>2015-09-27T07:44:31Z</time>
      </trkpt>
      <trkpt lat="45.80878" lon="4.70626">
        <ele>320.26</ele>
        <time>2015-09-27T07:44:32Z</time>
      </trkpt>
      <trkpt lat="45.80878" lon="4.70612">
        <ele>319.78</ele>
        <time>2015-09-27T07:44:33Z</time>
      </trkpt>
      <trkpt lat="45.80879" lon="4.70598">
        <ele>318.81</ele>
        <time>2015-09-27T07:44:34Z</time>
      </trkpt>
      <trkpt lat="45.80882" lon="4.7045">
        <ele>310.16</ele>
        <time>2015-09-27T07:44:44Z</time>
      </trkpt>
      <trkpt lat="45.8088" lon="4.70437">
        <ele>309.68</ele>
        <time>2015-09-27T07:44:45Z</time>
      </trkpt>
      <trkpt lat="45.80877" lon="4.70424">
        <ele>308.72</ele>
        <time>2015-09-27T07:44:46Z</time>
      </trkpt>
      <trkpt lat="45.80873" lon="4.70413">
        <ele>307.76</ele>
        <time>2015-09-27T07:44:47Z</time>
      </trkpt>
      <trkpt lat="45.80867" lon="4.70403">
        <ele>306.8</ele>
        <time>2015-09-27T07:44:48Z</time>
      </trkpt>
      <trkpt lat="45.80861" lon="4.70394">
        <ele>305.84</ele>
        <time>2015-09-27T07:44:49Z</time>
      </trkpt>
      <trkpt lat="45.80855" lon="4.70385">
        <ele>304.88</ele>
        <time>2015-09-27T07:44:50Z</time>
      </trkpt>
      <trkpt lat="45.80839" lon="4.70374">
        <ele>302.95</ele>
        <time>2015-09-27T07:44:52Z</time>
      </trkpt>
      <trkpt lat="45.80831" lon="4.70372">
        <ele>301.99</ele>
        <time>2015-09-27T07:44:53Z</time>
      </trkpt>
      <trkpt lat="45.80818" lon="4.70363">
        <ele>300.07</ele>
        <time>2015-09-27T07:44:55Z</time>
      </trkpt>
      <trkpt lat="45.80814" lon="4.70361">
        <ele>299.11</ele>
        <time>2015-09-27T07:44:56Z</time>
      </trkpt>
      <trkpt lat="45.80815" lon="4.70357">
        <ele>297.67</ele>
        <time>2015-09-27T07:44:58Z</time>
      </trkpt>
      <trkpt lat="45.80817" lon="4.7035">
        <ele>296.7</ele>
        <time>2015-09-27T07:44:59Z</time>
      </trkpt>
      <trkpt lat="45.80817" lon="4.70341">
        <ele>296.22</ele>
        <time>2015-09-27T07:45:00Z</time>
      </trkpt>
      <trkpt lat="45.80816" lon="4.70332">
        <ele>295.74</ele>
        <time>2015-09-27T07:45:01Z</time>
      </trkpt>
      <trkpt lat="45.80814" lon="4.70324">
        <ele>294.78</ele>
        <time>2015-09-27T07:45:02Z</time>
      </trkpt>
      <trkpt lat="45.80812" lon="4.70317">
        <ele>294.3</ele>
        <time>2015-09-27T07:45:03Z</time>
      </trkpt>
      <trkpt lat="45.80808" lon="4.7031">
        <ele>293.34</ele>
        <time>2015-09-27T07:45:04Z</time>
      </trkpt>
      <trkpt lat="45.80807" lon="4.70302">
        <ele>292.86</ele>
        <time>2015-09-27T07:45:05Z</time>
      </trkpt>
      <trkpt lat="45.80807" lon="4.70292">
        <ele>292.38</ele>
        <time>2015-09-27T07:45:06Z</time>
      </trkpt>
      <trkpt lat="45.80808" lon="4.70283">
        <ele>291.9</ele>
        <time>2015-09-27T07:45:07Z</time>
      </trkpt>
      <trkpt lat="45.80811" lon="4.70242">
        <ele>287.57</ele>
        <time>2015-09-27T07:45:15Z</time>
      </trkpt>
      <trkpt lat="45.80809" lon="4.70237">
        <ele>287.57</ele>
        <time>2015-09-27T07:45:18Z</time>
      </trkpt>
      <trkpt lat="45.80809" lon="4.70234">
        <ele>287.09</ele>
        <time>2015-09-27T07:45:19Z</time>
      </trkpt>
      <trkpt lat="45.8081" lon="4.70232">
        <ele>287.09</ele>
        <time>2015-09-27T07:45:20Z</time>
      </trkpt>
      <trkpt lat="45.80811" lon="4.70229">
        <ele>286.61</ele>
        <time>2015-09-27T07:45:21Z</time>
      </trkpt>
      <trkpt lat="45.80812" lon="4.70224">
        <ele>286.13</ele>
        <time>2015-09-27T07:45:22Z</time>
      </trkpt>
      <trkpt lat="45.80812" lon="4.7022">
        <ele>285.65</ele>
        <time>2015-09-27T07:45:23Z</time>
      </trkpt>
      <trkpt lat="45.80812" lon="4.70216">
        <ele>285.17</ele>
        <time>2015-09-27T07:45:24Z</time>
      </trkpt>
      <trkpt lat="45.80813" lon="4.70212">
        <ele>285.17</ele>
        <time>2015-09-27T07:45:25Z</time>
      </trkpt>
      <trkpt lat="45.80814" lon="4.70208">
        <ele>284.69</ele>
        <time>2015-09-27T07:45:26Z</time>
      </trkpt>
      <trkpt lat="45.80811" lon="4.70174">
        <ele>284.69</ele>
        <time>2015-09-27T07:45:33Z</time>
      </trkpt>
      <trkpt lat="45.8081" lon="4.70168">
        <ele>285.17</ele>
        <time>2015-09-27T07:45:34Z</time>
      </trkpt>
      <trkpt lat="45.80809" lon="4.70163">
        <ele>285.65</ele>
        <time>2015-09-27T07:45:35Z</time>
      </trkpt>
      <trkpt lat="45.80809" lon="4.70159">
        <ele>286.13</ele>
        <time>2015-09-27T07:45:36Z</time>
      </trkpt>
      <trkpt lat="45.80809" lon="4.70154">
        <ele>286.61</ele>
        <time>2015-09-27T07:45:37Z</time>
      </trkpt>
      <trkpt lat="45.80808" lon="4.70149">
        <ele>286.61</ele>
        <time>2015-09-27T07:45:38Z</time>
      </trkpt>
      <trkpt lat="45.80809" lon="4.70144">
        <ele>287.09</ele>
        <time>2015-09-27T07:45:39Z</time>
      </trkpt>
      <trkpt lat="45.80809" lon="4.70138">
        <ele>287.57</ele>
        <time>2015-09-27T07:45:40Z</time>
      </trkpt>
      <trkpt lat="45.80812" lon="4.70102">
        <ele>289.01</ele>
        <time>2015-09-27T07:45:48Z</time>
      </trkpt>
      <trkpt lat="45.8081" lon="4.70098">
        <ele>289.01</ele>
        <time>2015-09-27T07:45:49Z</time>
      </trkpt>
      <trkpt lat="45.80808" lon="4.70095">
        <ele>289.01</ele>
        <time>2015-09-27T07:45:50Z</time>
      </trkpt>
      <trkpt lat="45.80804" lon="4.70092">
        <ele>289.01</ele>
        <time>2015-09-27T07:45:51Z</time>
      </trkpt>
      <trkpt lat="45.80801" lon="4.70089">
        <ele>288.53</ele>
        <time>2015-09-27T07:45:52Z</time>
      </trkpt>
      <trkpt lat="45.80779" lon="4.70068">
        <ele>286.13</ele>
        <time>2015-09-27T07:46:00Z</time>
      </trkpt>
      <trkpt lat="45.8075" lon="4.7006">
        <ele>283.25</ele>
        <time>2015-09-27T07:46:11Z</time>
      </trkpt>
      <trkpt lat="45.80731" lon="4.70064">
        <ele>282.28</ele>
        <time>2015-09-27T07:46:18Z</time>
      </trkpt>
      <trkpt lat="45.80729" lon="4.70066">
        <ele>282.28</ele>
        <time>2015-09-27T07:46:19Z</time>
      </trkpt>
      <trkpt lat="45.80727" lon="4.70068">
        <ele>283.25</ele>
        <time>2015-09-27T07:46:20Z</time>
      </trkpt>
      <trkpt lat="45.80725" lon="4.70071">
        <ele>283.73</ele>
        <time>2015-09-27T07:46:21Z</time>
      </trkpt>
      <trkpt lat="45.80725" lon="4.70073">
        <ele>284.21</ele>
        <time>2015-09-27T07:46:22Z</time>
      </trkpt>
      <trkpt lat="45.80724" lon="4.70076">
        <ele>284.21</ele>
        <time>2015-09-27T07:46:23Z</time>
      </trkpt>
      <trkpt lat="45.80725" lon="4.70079">
        <ele>284.69</ele>
        <time>2015-09-27T07:46:24Z</time>
      </trkpt>
      <trkpt lat="45.8073" lon="4.7011">
        <ele>289.97</ele>
        <time>2015-09-27T07:46:34Z</time>
      </trkpt>
      <trkpt lat="45.80714" lon="4.70125">
        <ele>293.82</ele>
        <time>2015-09-27T07:46:43Z</time>
      </trkpt>
      <trkpt lat="45.80681" lon="4.70144">
        <ele>294.3</ele>
        <time>2015-09-27T07:46:56Z</time>
      </trkpt>
      <trkpt lat="45.80656" lon="4.7016">
        <ele>297.18</ele>
        <time>2015-09-27T07:47:08Z</time>
      </trkpt>
      <trkpt lat="45.80635" lon="4.7017">
        <ele>298.63</ele>
        <time>2015-09-27T07:47:21Z</time>
      </trkpt>
      <trkpt lat="45.80616" lon="4.70181">
        <ele>299.11</ele>
        <time>2015-09-27T07:47:31Z</time>
      </trkpt>
      <trkpt lat="45.80597" lon="4.70192">
        <ele>297.67</ele>
        <time>2015-09-27T07:47:42Z</time>
      </trkpt>
      <trkpt lat="45.80594" lon="4.70194">
        <ele>297.18</ele>
        <time>2015-09-27T07:47:44Z</time>
      </trkpt>
      <trkpt lat="45.80585" lon="4.70195">
        <ele>298.15</ele>
        <time>2015-09-27T07:47:49Z</time>
      </trkpt>
      <trkpt lat="45.80555" lon="4.70179">
        <ele>303.91</ele>
        <time>2015-09-27T07:48:04Z</time>
      </trkpt>
      <trkpt lat="45.80534" lon="4.70153">
        <ele>306.8</ele>
        <time>2015-09-27T07:48:17Z</time>
      </trkpt>
      <trkpt lat="45.80512" lon="4.7013">
        <ele>309.2</ele>
        <time>2015-09-27T07:48:28Z</time>
      </trkpt>
      <trkpt lat="45.80502" lon="4.70123">
        <ele>309.2</ele>
        <time>2015-09-27T07:48:39Z</time>
      </trkpt>
      <trkpt lat="45.80501" lon="4.70122">
        <ele>309.2</ele>
        <time>2015-09-27T07:48:41Z</time>
      </trkpt>
      <trkpt lat="45.80493" lon="4.70122">
        <ele>308.72</ele>
        <time>2015-09-27T07:48:46Z</time>
      </trkpt>
      <trkpt lat="45.80461" lon="4.70105">
        <ele>304.88</ele>
        <time>2015-09-27T07:49:01Z</time>
      </trkpt>
      <trkpt lat="45.80423" lon="4.70084">
        <ele>307.28</ele>
        <time>2015-09-27T07:49:15Z</time>
      </trkpt>
      <trkpt lat="45.80389" lon="4.70063">
        <ele>311.6</ele>
        <time>2015-09-27T07:49:28Z</time>
      </trkpt>
      <trkpt lat="45.80348" lon="4.70036">
        <ele>313.05</ele>
        <time>2015-09-27T07:49:44Z</time>
      </trkpt>
      <trkpt lat="45.8032" lon="4.7003">
        <ele>313.05</ele>
        <time>2015-09-27T07:49:54Z</time>
      </trkpt>
      <trkpt lat="45.8029" lon="4.70044">
        <ele>314.01</ele>
        <time>2015-09-27T07:50:05Z</time>
      </trkpt>
      <trkpt lat="45.80265" lon="4.70071">
        <ele>314.01</ele>
        <time>2015-09-27T07:50:14Z</time>
      </trkpt>
      <trkpt lat="45.80238" lon="4.70106">
        <ele>315.45</ele>
        <time>2015-09-27T07:50:25Z</time>
      </trkpt>
      <trkpt lat="45.8021" lon="4.70136">
        <ele>312.09</ele>
        <time>2015-09-27T07:50:34Z</time>
      </trkpt>
      <trkpt lat="45.80207" lon="4.70139">
        <ele>311.6</ele>
        <time>2015-09-27T07:50:35Z</time>
      </trkpt>
      <trkpt lat="45.80196" lon="4.70157">
        <ele>309.68</ele>
        <time>2015-09-27T07:50:40Z</time>
      </trkpt>
      <trkpt lat="45.80167" lon="4.70187">
        <ele>306.8</ele>
        <time>2015-09-27T07:50:48Z</time>
      </trkpt>
      <trkpt lat="45.80151" lon="4.70202">
        <ele>305.36</ele>
        <time>2015-09-27T07:50:52Z</time>
      </trkpt>
      <trkpt lat="45.80147" lon="4.70205">
        <ele>304.88</ele>
        <time>2015-09-27T07:50:53Z</time>
      </trkpt>
      <trkpt lat="45.80127" lon="4.70213">
        <ele>302.95</ele>
        <time>2015-09-27T07:50:57Z</time>
      </trkpt>
      <trkpt lat="45.80122" lon="4.70215">
        <ele>302.95</ele>
        <time>2015-09-27T07:50:58Z</time>
      </trkpt>
      <trkpt lat="45.80117" lon="4.70213">
        <ele>302.47</ele>
        <time>2015-09-27T07:50:59Z</time>
      </trkpt>
      <trkpt lat="45.80111" lon="4.70205">
        <ele>301.51</ele>
        <time>2015-09-27T07:51:01Z</time>
      </trkpt>
      <trkpt lat="45.80109" lon="4.702">
        <ele>301.51</ele>
        <time>2015-09-27T07:51:02Z</time>
      </trkpt>
      <trkpt lat="45.80106" lon="4.70195">
        <ele>301.03</ele>
        <time>2015-09-27T07:51:03Z</time>
      </trkpt>
      <trkpt lat="45.80104" lon="4.7019">
        <ele>301.03</ele>
        <time>2015-09-27T07:51:04Z</time>
      </trkpt>
      <trkpt lat="45.80101" lon="4.70184">
        <ele>301.03</ele>
        <time>2015-09-27T07:51:05Z</time>
      </trkpt>
      <trkpt lat="45.80098" lon="4.70178">
        <ele>300.55</ele>
        <time>2015-09-27T07:51:06Z</time>
      </trkpt>
      <trkpt lat="45.80079" lon="4.70148">
        <ele>303.43</ele>
        <time>2015-09-27T07:51:12Z</time>
      </trkpt>
      <trkpt lat="45.80061" lon="4.70126">
        <ele>304.88</ele>
        <time>2015-09-27T07:51:17Z</time>
      </trkpt>
      <trkpt lat="45.80056" lon="4.70124">
        <ele>305.36</ele>
        <time>2015-09-27T07:51:18Z</time>
      </trkpt>
      <trkpt lat="45.80051" lon="4.70122">
        <ele>305.36</ele>
        <time>2015-09-27T07:51:19Z</time>
      </trkpt>
      <trkpt lat="45.80046" lon="4.70122">
        <ele>305.36</ele>
        <time>2015-09-27T07:51:20Z</time>
      </trkpt>
      <trkpt lat="45.8004" lon="4.70122">
        <ele>305.36</ele>
        <time>2015-09-27T07:51:21Z</time>
      </trkpt>
      <trkpt lat="45.80021" lon="4.70124">
        <ele>304.88</ele>
        <time>2015-09-27T07:51:25Z</time>
      </trkpt>
      <trkpt lat="45.80017" lon="4.70125">
        <ele>304.88</ele>
        <time>2015-09-27T07:51:26Z</time>
      </trkpt>
      <trkpt lat="45.80007" lon="4.70125">
        <ele>304.39</ele>
        <time>2015-09-27T07:51:28Z</time>
      </trkpt>
      <trkpt lat="45.79997" lon="4.70124">
        <ele>304.39</ele>
        <time>2015-09-27T07:51:30Z</time>
      </trkpt>
      <trkpt lat="45.79987" lon="4.70126">
        <ele>303.91</ele>
        <time>2015-09-27T07:51:32Z</time>
      </trkpt>
      <trkpt lat="45.79982" lon="4.70127">
        <ele>303.91</ele>
        <time>2015-09-27T07:51:33Z</time>
      </trkpt>
      <trkpt lat="45.79973" lon="4.7013">
        <ele>303.91</ele>
        <time>2015-09-27T07:51:35Z</time>
      </trkpt>
      <trkpt lat="45.79969" lon="4.70131">
        <ele>303.91</ele>
        <time>2015-09-27T07:51:36Z</time>
      </trkpt>
      <trkpt lat="45.79957" lon="4.70131">
        <ele>304.39</ele>
        <time>2015-09-27T07:51:39Z</time>
      </trkpt>
      <trkpt lat="45.79954" lon="4.70128">
        <ele>304.88</ele>
        <time>2015-09-27T07:51:40Z</time>
      </trkpt>
      <trkpt lat="45.7995" lon="4.70123">
        <ele>304.88</ele>
        <time>2015-09-27T07:51:41Z</time>
      </trkpt>
      <trkpt lat="45.79947" lon="4.70119">
        <ele>305.36</ele>
        <time>2015-09-27T07:51:42Z</time>
      </trkpt>
      <trkpt lat="45.79944" lon="4.70114">
        <ele>305.36</ele>
        <time>2015-09-27T07:51:43Z</time>
      </trkpt>
      <trkpt lat="45.79941" lon="4.7011">
        <ele>305.84</ele>
        <time>2015-09-27T07:51:44Z</time>
      </trkpt>
      <trkpt lat="45.79932" lon="4.70098">
        <ele>306.32</ele>
        <time>2015-09-27T07:51:47Z</time>
      </trkpt>
      <trkpt lat="45.79906" lon="4.70059">
        <ele>308.72</ele>
        <time>2015-09-27T07:51:57Z</time>
      </trkpt>
      <trkpt lat="45.79885" lon="4.69998">
        <ele>313.05</ele>
        <time>2015-09-27T07:52:07Z</time>
      </trkpt>
      <trkpt lat="45.79889" lon="4.69948">
        <ele>318.33</ele>
        <time>2015-09-27T07:52:17Z</time>
      </trkpt>
      <trkpt lat="45.79901" lon="4.69893">
        <ele>323.62</ele>
        <time>2015-09-27T07:52:28Z</time>
      </trkpt>
      <trkpt lat="45.7991" lon="4.69839">
        <ele>324.58</ele>
        <time>2015-09-27T07:52:38Z</time>
      </trkpt>
      <trkpt lat="45.7992" lon="4.69796">
        <ele>327.47</ele>
        <time>2015-09-27T07:52:48Z</time>
      </trkpt>
      <trkpt lat="45.79921" lon="4.69753">
        <ele>330.83</ele>
        <time>2015-09-27T07:52:57Z</time>
      </trkpt>
      <trkpt lat="45.79925" lon="4.69697">
        <ele>330.83</ele>
        <time>2015-09-27T07:53:08Z</time>
      </trkpt>
      <trkpt lat="45.79925" lon="4.69629">
        <ele>334.2</ele>
        <time>2015-09-27T07:53:22Z</time>
      </trkpt>
      <trkpt lat="45.79935" lon="4.69557">
        <ele>336.12</ele>
        <time>2015-09-27T07:53:37Z</time>
      </trkpt>
      <trkpt lat="45.79942" lon="4.69479">
        <ele>334.2</ele>
        <time>2015-09-27T07:53:54Z</time>
      </trkpt>
      <trkpt lat="45.79944" lon="4.69435">
        <ele>335.64</ele>
        <time>2015-09-27T07:54:03Z</time>
      </trkpt>
      <trkpt lat="45.79942" lon="4.69431">
        <ele>335.64</ele>
        <time>2015-09-27T07:54:04Z</time>
      </trkpt>
      <trkpt lat="45.7994" lon="4.69428">
        <ele>335.64</ele>
        <time>2015-09-27T07:54:05Z</time>
      </trkpt>
      <trkpt lat="45.79937" lon="4.69426">
        <ele>335.64</ele>
        <time>2015-09-27T07:54:06Z</time>
      </trkpt>
      <trkpt lat="45.79934" lon="4.69424">
        <ele>335.16</ele>
        <time>2015-09-27T07:54:07Z</time>
      </trkpt>
      <trkpt lat="45.79922" lon="4.69418">
        <ele>334.2</ele>
        <time>2015-09-27T07:54:11Z</time>
      </trkpt>
      <trkpt lat="45.79919" lon="4.69415">
        <ele>334.2</ele>
        <time>2015-09-27T07:54:12Z</time>
      </trkpt>
      <trkpt lat="45.79916" lon="4.69412">
        <ele>334.2</ele>
        <time>2015-09-27T07:54:13Z</time>
      </trkpt>
      <trkpt lat="45.79913" lon="4.6941">
        <ele>334.2</ele>
        <time>2015-09-27T07:54:14Z</time>
      </trkpt>
      <trkpt lat="45.7991" lon="4.69407">
        <ele>334.2</ele>
        <time>2015-09-27T07:54:15Z</time>
      </trkpt>
      <trkpt lat="45.79907" lon="4.69404">
        <ele>333.71</ele>
        <time>2015-09-27T07:54:16Z</time>
      </trkpt>
      <trkpt lat="45.79905" lon="4.694">
        <ele>333.71</ele>
        <time>2015-09-27T07:54:17Z</time>
      </trkpt>
      <trkpt lat="45.79875" lon="4.6936">
        <ele>333.71</ele>
        <time>2015-09-27T07:54:29Z</time>
      </trkpt>
      <trkpt lat="45.79834" lon="4.69287">
        <ele>333.23</ele>
        <time>2015-09-27T07:54:47Z</time>
      </trkpt>
      <trkpt lat="45.798" lon="4.69222">
        <ele>335.16</ele>
        <time>2015-09-27T07:55:03Z</time>
      </trkpt>
      <trkpt lat="45.79768" lon="4.6918">
        <ele>337.08</ele>
        <time>2015-09-27T07:55:16Z</time>
      </trkpt>
      <trkpt lat="45.79706" lon="4.69139">
        <ele>334.2</ele>
        <time>2015-09-27T07:55:34Z</time>
      </trkpt>
      <trkpt lat="45.79662" lon="4.69111">
        <ele>333.23</ele>
        <time>2015-09-27T07:55:46Z</time>
      </trkpt>
      <trkpt lat="45.79651" lon="4.69102">
        <ele>333.23</ele>
        <time>2015-09-27T07:55:49Z</time>
      </trkpt>
      <trkpt lat="45.79647" lon="4.69099">
        <ele>333.23</ele>
        <time>2015-09-27T07:55:50Z</time>
      </trkpt>
      <trkpt lat="45.79644" lon="4.69095">
        <ele>333.23</ele>
        <time>2015-09-27T07:55:51Z</time>
      </trkpt>
      <trkpt lat="45.79641" lon="4.69092">
        <ele>332.75</ele>
        <time>2015-09-27T07:55:52Z</time>
      </trkpt>
      <trkpt lat="45.79638" lon="4.69089">
        <ele>332.75</ele>
        <time>2015-09-27T07:55:53Z</time>
      </trkpt>
      <trkpt lat="45.79635" lon="4.69085">
        <ele>332.75</ele>
        <time>2015-09-27T07:55:54Z</time>
      </trkpt>
      <trkpt lat="45.79632" lon="4.69081">
        <ele>332.75</ele>
        <time>2015-09-27T07:55:55Z</time>
      </trkpt>
      <trkpt lat="45.79611" lon="4.69046">
        <ele>332.75</ele>
        <time>2015-09-27T07:56:03Z</time>
      </trkpt>
      <trkpt lat="45.79608" lon="4.69042">
        <ele>332.75</ele>
        <time>2015-09-27T07:56:04Z</time>
      </trkpt>
      <trkpt lat="45.79569" lon="4.6902">
        <ele>332.75</ele>
        <time>2015-09-27T07:56:16Z</time>
      </trkpt>
      <trkpt lat="45.79517" lon="4.69015">
        <ele>336.12</ele>
        <time>2015-09-27T07:56:30Z</time>
      </trkpt>
      <trkpt lat="45.79476" lon="4.69005">
        <ele>339.48</ele>
        <time>2015-09-27T07:56:43Z</time>
      </trkpt>
      <trkpt lat="45.79471" lon="4.6896">
        <ele>341.41</ele>
        <time>2015-09-27T07:56:54Z</time>
      </trkpt>
      <trkpt lat="45.79473" lon="4.68909">
        <ele>342.37</ele>
        <time>2015-09-27T07:57:06Z</time>
      </trkpt>
      <trkpt lat="45.79478" lon="4.68866">
        <ele>342.85</ele>
        <time>2015-09-27T07:57:17Z</time>
      </trkpt>
      <trkpt lat="45.7948" lon="4.68822">
        <ele>344.29</ele>
        <time>2015-09-27T07:57:27Z</time>
      </trkpt>
      <trkpt lat="45.79489" lon="4.68763">
        <ele>346.69</ele>
        <time>2015-09-27T07:57:40Z</time>
      </trkpt>
      <trkpt lat="45.79505" lon="4.68721">
        <ele>347.17</ele>
        <time>2015-09-27T07:57:52Z</time>
      </trkpt>
      <trkpt lat="45.79535" lon="4.6866">
        <ele>350.06</ele>
        <time>2015-09-27T07:58:09Z</time>
      </trkpt>
      <trkpt lat="45.79544" lon="4.68636">
        <ele>350.54</ele>
        <time>2015-09-27T07:58:19Z</time>
      </trkpt>
      <trkpt lat="45.79539" lon="4.68631">
        <ele>351.5</ele>
        <time>2015-09-27T07:58:31Z</time>
      </trkpt>
      <trkpt lat="45.79539" lon="4.68631">
        <ele>351.5</ele>
        <time>2015-09-27T07:58:32Z</time>
      </trkpt>
      <trkpt lat="45.79536" lon="4.6863">
        <ele>351.02</ele>
        <time>2015-09-27T07:58:41Z</time>
      </trkpt>
      <trkpt lat="45.79534" lon="4.6863">
        <ele>350.06</ele>
        <time>2015-09-27T07:59:29Z</time>
      </trkpt>
      <trkpt lat="45.79533" lon="4.68631">
        <ele>350.54</ele>
        <time>2015-09-27T08:00:12Z</time>
      </trkpt>
      <trkpt lat="45.79534" lon="4.68632">
        <ele>350.06</ele>
        <time>2015-09-27T08:00:52Z</time>
      </trkpt>
      <trkpt lat="45.79535" lon="4.68631">
        <ele>350.06</ele>
        <time>2015-09-27T08:01:33Z</time>
      </trkpt>
      <trkpt lat="45.79535" lon="4.68632">
        <ele>349.1</ele>
        <time>2015-09-27T08:02:12Z</time>
      </trkpt>
      <trkpt lat="45.79537" lon="4.6863">
        <ele>349.58</ele>
        <time>2015-09-27T08:02:31Z</time>
      </trkpt>
      <trkpt lat="45.7954" lon="4.68632">
        <ele>349.58</ele>
        <time>2015-09-27T08:02:35Z</time>
      </trkpt>
      <trkpt lat="45.79541" lon="4.68632">
        <ele>349.58</ele>
        <time>2015-09-27T08:02:36Z</time>
      </trkpt>
      <trkpt lat="45.79543" lon="4.68632">
        <ele>349.58</ele>
        <time>2015-09-27T08:02:37Z</time>
      </trkpt>
      <trkpt lat="45.79545" lon="4.68633">
        <ele>349.58</ele>
        <time>2015-09-27T08:02:39Z</time>
      </trkpt>
      <trkpt lat="45.79546" lon="4.68633">
        <ele>349.58</ele>
        <time>2015-09-27T08:02:40Z</time>
      </trkpt>
      <trkpt lat="45.79547" lon="4.68632">
        <ele>350.06</ele>
        <time>2015-09-27T08:02:41Z</time>
      </trkpt>
      <trkpt lat="45.79548" lon="4.68631">
        <ele>350.06</ele>
        <time>2015-09-27T08:02:42Z</time>
      </trkpt>
      <trkpt lat="45.79549" lon="4.68629">
        <ele>350.06</ele>
        <time>2015-09-27T08:02:43Z</time>
      </trkpt>
      <trkpt lat="45.7955" lon="4.68626">
        <ele>350.06</ele>
        <time>2015-09-27T08:02:44Z</time>
      </trkpt>
      <trkpt lat="45.79564" lon="4.68599">
        <ele>351.02</ele>
        <time>2015-09-27T08:02:56Z</time>
      </trkpt>
      <trkpt lat="45.79568" lon="4.68588">
        <ele>351.02</ele>
        <time>2015-09-27T08:03:00Z</time>
      </trkpt>
      <trkpt lat="45.79569" lon="4.68586">
        <ele>351.5</ele>
        <time>2015-09-27T08:03:01Z</time>
      </trkpt>
      <trkpt lat="45.79583" lon="4.6854">
        <ele>354.38</ele>
        <time>2015-09-27T08:03:15Z</time>
      </trkpt>
      <trkpt lat="45.79601" lon="4.68491">
        <ele>357.75</ele>
        <time>2015-09-27T08:03:31Z</time>
      </trkpt>
      <trkpt lat="45.79621" lon="4.68437">
        <ele>360.63</ele>
        <time>2015-09-27T08:03:46Z</time>
      </trkpt>
      <trkpt lat="45.79643" lon="4.68376">
        <ele>363.04</ele>
        <time>2015-09-27T08:04:04Z</time>
      </trkpt>
      <trkpt lat="45.79657" lon="4.68333">
        <ele>364</ele>
        <time>2015-09-27T08:04:18Z</time>
      </trkpt>
      <trkpt lat="45.7966" lon="4.68293">
        <ele>365.92</ele>
        <time>2015-09-27T08:04:30Z</time>
      </trkpt>
      <trkpt lat="45.79663" lon="4.68274">
        <ele>366.88</ele>
        <time>2015-09-27T08:04:36Z</time>
      </trkpt>
      <trkpt lat="45.79666" lon="4.68248">
        <ele>368.8</ele>
        <time>2015-09-27T08:04:45Z</time>
      </trkpt>
      <trkpt lat="45.79667" lon="4.68245">
        <ele>368.32</ele>
        <time>2015-09-27T08:04:46Z</time>
      </trkpt>
      <trkpt lat="45.79667" lon="4.68242">
        <ele>368.8</ele>
        <time>2015-09-27T08:04:47Z</time>
      </trkpt>
      <trkpt lat="45.79668" lon="4.6824">
        <ele>368.8</ele>
        <time>2015-09-27T08:04:48Z</time>
      </trkpt>
      <trkpt lat="45.79669" lon="4.68237">
        <ele>368.8</ele>
        <time>2015-09-27T08:04:49Z</time>
      </trkpt>
      <trkpt lat="45.79673" lon="4.68202">
        <ele>372.17</ele>
        <time>2015-09-27T08:05:00Z</time>
      </trkpt>
      <trkpt lat="45.79675" lon="4.68166">
        <ele>376.01</ele>
        <time>2015-09-27T08:05:11Z</time>
      </trkpt>
      <trkpt lat="45.79675" lon="4.68163">
        <ele>376.01</ele>
        <time>2015-09-27T08:05:12Z</time>
      </trkpt>
      <trkpt lat="45.79675" lon="4.6816">
        <ele>376.49</ele>
        <time>2015-09-27T08:05:13Z</time>
      </trkpt>
      <trkpt lat="45.79675" lon="4.68157">
        <ele>376.49</ele>
        <time>2015-09-27T08:05:14Z</time>
      </trkpt>
      <trkpt lat="45.79675" lon="4.68154">
        <ele>376.49</ele>
        <time>2015-09-27T08:05:15Z</time>
      </trkpt>
      <trkpt lat="45.7967" lon="4.68108">
        <ele>378.42</ele>
        <time>2015-09-27T08:05:29Z</time>
      </trkpt>
      <trkpt lat="45.79661" lon="4.68042">
        <ele>379.38</ele>
        <time>2015-09-27T08:05:47Z</time>
      </trkpt>
      <trkpt lat="45.79649" lon="4.67969">
        <ele>379.86</ele>
        <time>2015-09-27T08:06:04Z</time>
      </trkpt>
      <trkpt lat="45.79622" lon="4.67901">
        <ele>378.9</ele>
        <time>2015-09-27T08:06:19Z</time>
      </trkpt>
      <trkpt lat="45.79599" lon="4.67831">
        <ele>380.34</ele>
        <time>2015-09-27T08:06:34Z</time>
      </trkpt>
      <trkpt lat="45.79577" lon="4.67762">
        <ele>383.7</ele>
        <time>2015-09-27T08:06:50Z</time>
      </trkpt>
      <trkpt lat="45.79558" lon="4.67709">
        <ele>387.07</ele>
        <time>2015-09-27T08:07:06Z</time>
      </trkpt>
      <trkpt lat="45.79542" lon="4.67677">
        <ele>391.39</ele>
        <time>2015-09-27T08:07:20Z</time>
      </trkpt>
      <trkpt lat="45.79542" lon="4.67675">
        <ele>391.39</ele>
        <time>2015-09-27T08:07:21Z</time>
      </trkpt>
      <trkpt lat="45.79537" lon="4.67663">
        <ele>392.36</ele>
        <time>2015-09-27T08:07:29Z</time>
      </trkpt>
      <trkpt lat="45.79536" lon="4.67662">
        <ele>392.36</ele>
        <time>2015-09-27T08:07:30Z</time>
      </trkpt>
      <trkpt lat="45.79536" lon="4.67662">
        <ele>392.84</ele>
        <time>2015-09-27T08:07:43Z</time>
      </trkpt>
      <trkpt lat="45.79536" lon="4.6766">
        <ele>392.36</ele>
        <time>2015-09-27T08:07:44Z</time>
      </trkpt>
      <trkpt lat="45.79535" lon="4.67658">
        <ele>392.36</ele>
        <time>2015-09-27T08:07:45Z</time>
      </trkpt>
      <trkpt lat="45.79534" lon="4.67656">
        <ele>392.84</ele>
        <time>2015-09-27T08:07:46Z</time>
      </trkpt>
      <trkpt lat="45.79534" lon="4.67654">
        <ele>392.84</ele>
        <time>2015-09-27T08:07:47Z</time>
      </trkpt>
      <trkpt lat="45.79533" lon="4.67652">
        <ele>393.32</ele>
        <time>2015-09-27T08:07:48Z</time>
      </trkpt>
      <trkpt lat="45.79532" lon="4.6765">
        <ele>393.32</ele>
        <time>2015-09-27T08:07:49Z</time>
      </trkpt>
      <trkpt lat="45.79532" lon="4.67647">
        <ele>393.8</ele>
        <time>2015-09-27T08:07:50Z</time>
      </trkpt>
      <trkpt lat="45.79531" lon="4.67645">
        <ele>393.8</ele>
        <time>2015-09-27T08:07:51Z</time>
      </trkpt>
      <trkpt lat="45.7953" lon="4.67643">
        <ele>394.28</ele>
        <time>2015-09-27T08:07:52Z</time>
      </trkpt>
      <trkpt lat="45.79529" lon="4.67642">
        <ele>394.28</ele>
        <time>2015-09-27T08:07:53Z</time>
      </trkpt>
      <trkpt lat="45.79527" lon="4.67639">
        <ele>394.28</ele>
        <time>2015-09-27T08:07:54Z</time>
      </trkpt>
      <trkpt lat="45.79527" lon="4.67637">
        <ele>394.76</ele>
        <time>2015-09-27T08:07:55Z</time>
      </trkpt>
      <trkpt lat="45.79526" lon="4.67635">
        <ele>394.76</ele>
        <time>2015-09-27T08:07:56Z</time>
      </trkpt>
      <trkpt lat="45.79526" lon="4.67633">
        <ele>395.24</ele>
        <time>2015-09-27T08:07:57Z</time>
      </trkpt>
      <trkpt lat="45.79525" lon="4.67632">
        <ele>395.24</ele>
        <time>2015-09-27T08:07:58Z</time>
      </trkpt>
      <trkpt lat="45.79524" lon="4.6763">
        <ele>395.72</ele>
        <time>2015-09-27T08:07:59Z</time>
      </trkpt>
      <trkpt lat="45.79524" lon="4.67627">
        <ele>396.2</ele>
        <time>2015-09-27T08:08:00Z</time>
      </trkpt>
      <trkpt lat="45.79522" lon="4.67618">
        <ele>397.16</ele>
        <time>2015-09-27T08:08:05Z</time>
      </trkpt>
      <trkpt lat="45.79519" lon="4.6761">
        <ele>397.64</ele>
        <time>2015-09-27T08:08:09Z</time>
      </trkpt>
      <trkpt lat="45.79519" lon="4.67607">
        <ele>397.64</ele>
        <time>2015-09-27T08:08:10Z</time>
      </trkpt>
      <trkpt lat="45.79519" lon="4.67605">
        <ele>397.64</ele>
        <time>2015-09-27T08:08:11Z</time>
      </trkpt>
      <trkpt lat="45.79515" lon="4.67586">
        <ele>398.12</ele>
        <time>2015-09-27T08:08:20Z</time>
      </trkpt>
      <trkpt lat="45.79514" lon="4.67585">
        <ele>398.12</ele>
        <time>2015-09-27T08:08:21Z</time>
      </trkpt>
      <trkpt lat="45.79513" lon="4.67583">
        <ele>398.12</ele>
        <time>2015-09-27T08:08:22Z</time>
      </trkpt>
      <trkpt lat="45.79513" lon="4.67581">
        <ele>398.6</ele>
        <time>2015-09-27T08:08:23Z</time>
      </trkpt>
      <trkpt lat="45.79513" lon="4.67578">
        <ele>398.6</ele>
        <time>2015-09-27T08:08:24Z</time>
      </trkpt>
      <trkpt lat="45.79512" lon="4.67576">
        <ele>399.08</ele>
        <time>2015-09-27T08:08:25Z</time>
      </trkpt>
      <trkpt lat="45.79512" lon="4.67574">
        <ele>399.08</ele>
        <time>2015-09-27T08:08:26Z</time>
      </trkpt>
      <trkpt lat="45.79507" lon="4.67549">
        <ele>401.49</ele>
        <time>2015-09-27T08:08:39Z</time>
      </trkpt>
      <trkpt lat="45.79507" lon="4.67547">
        <ele>401.97</ele>
        <time>2015-09-27T08:08:40Z</time>
      </trkpt>
      <trkpt lat="45.79506" lon="4.67545">
        <ele>401.97</ele>
        <time>2015-09-27T08:08:41Z</time>
      </trkpt>
      <trkpt lat="45.79506" lon="4.67519">
        <ele>404.37</ele>
        <time>2015-09-27T08:08:54Z</time>
      </trkpt>
      <trkpt lat="45.79505" lon="4.67517">
        <ele>404.37</ele>
        <time>2015-09-27T08:08:55Z</time>
      </trkpt>
      <trkpt lat="45.79505" lon="4.67515">
        <ele>404.85</ele>
        <time>2015-09-27T08:08:56Z</time>
      </trkpt>
      <trkpt lat="45.79504" lon="4.67513">
        <ele>404.37</ele>
        <time>2015-09-27T08:08:57Z</time>
      </trkpt>
      <trkpt lat="45.79504" lon="4.6751">
        <ele>404.85</ele>
        <time>2015-09-27T08:08:58Z</time>
      </trkpt>
      <trkpt lat="45.79501" lon="4.67492">
        <ele>405.33</ele>
        <time>2015-09-27T08:09:07Z</time>
      </trkpt>
      <trkpt lat="45.79501" lon="4.6749">
        <ele>405.33</ele>
        <time>2015-09-27T08:09:08Z</time>
      </trkpt>
      <trkpt lat="45.795" lon="4.67488">
        <ele>405.33</ele>
        <time>2015-09-27T08:09:09Z</time>
      </trkpt>
      <trkpt lat="45.795" lon="4.67485">
        <ele>405.33</ele>
        <time>2015-09-27T08:09:10Z</time>
      </trkpt>
      <trkpt lat="45.79499" lon="4.67483">
        <ele>405.33</ele>
        <time>2015-09-27T08:09:11Z</time>
      </trkpt>
      <trkpt lat="45.79497" lon="4.67462">
        <ele>406.77</ele>
        <time>2015-09-27T08:09:21Z</time>
      </trkpt>
      <trkpt lat="45.79496" lon="4.6746">
        <ele>406.77</ele>
        <time>2015-09-27T08:09:22Z</time>
      </trkpt>
      <trkpt lat="45.79495" lon="4.67458">
        <ele>406.77</ele>
        <time>2015-09-27T08:09:23Z</time>
      </trkpt>
      <trkpt lat="45.79495" lon="4.67456">
        <ele>407.26</ele>
        <time>2015-09-27T08:09:24Z</time>
      </trkpt>
      <trkpt lat="45.79495" lon="4.67453">
        <ele>407.74</ele>
        <time>2015-09-27T08:09:25Z</time>
      </trkpt>
      <trkpt lat="45.79495" lon="4.67451">
        <ele>407.74</ele>
        <time>2015-09-27T08:09:26Z</time>
      </trkpt>
      <trkpt lat="45.79495" lon="4.67449">
        <ele>407.74</ele>
        <time>2015-09-27T08:09:27Z</time>
      </trkpt>
      <trkpt lat="45.79495" lon="4.67447">
        <ele>407.74</ele>
        <time>2015-09-27T08:09:28Z</time>
      </trkpt>
      <trkpt lat="45.795" lon="4.67421">
        <ele>409.18</ele>
        <time>2015-09-27T08:09:40Z</time>
      </trkpt>
      <trkpt lat="45.795" lon="4.67419">
        <ele>409.66</ele>
        <time>2015-09-27T08:09:41Z</time>
      </trkpt>
      <trkpt lat="45.795" lon="4.67417">
        <ele>409.66</ele>
        <time>2015-09-27T08:09:42Z</time>
      </trkpt>
      <trkpt lat="45.795" lon="4.67415">
        <ele>410.14</ele>
        <time>2015-09-27T08:09:43Z</time>
      </trkpt>
      <trkpt lat="45.795" lon="4.67413">
        <ele>410.14</ele>
        <time>2015-09-27T08:09:44Z</time>
      </trkpt>
      <trkpt lat="45.79499" lon="4.6741">
        <ele>410.14</ele>
        <time>2015-09-27T08:09:45Z</time>
      </trkpt>
      <trkpt lat="45.795" lon="4.67408">
        <ele>410.14</ele>
        <time>2015-09-27T08:09:46Z</time>
      </trkpt>
      <trkpt lat="45.795" lon="4.67405">
        <ele>410.62</ele>
        <time>2015-09-27T08:09:47Z</time>
      </trkpt>
      <trkpt lat="45.795" lon="4.67403">
        <ele>410.62</ele>
        <time>2015-09-27T08:09:48Z</time>
      </trkpt>
      <trkpt lat="45.79507" lon="4.67386">
        <ele>410.14</ele>
        <time>2015-09-27T08:09:56Z</time>
      </trkpt>
      <trkpt lat="45.79508" lon="4.67384">
        <ele>410.14</ele>
        <time>2015-09-27T08:09:57Z</time>
      </trkpt>
      <trkpt lat="45.79509" lon="4.67382">
        <ele>410.62</ele>
        <time>2015-09-27T08:09:58Z</time>
      </trkpt>
      <trkpt lat="45.7951" lon="4.6738">
        <ele>410.62</ele>
        <time>2015-09-27T08:09:59Z</time>
      </trkpt>
      <trkpt lat="45.7951" lon="4.67378">
        <ele>411.1</ele>
        <time>2015-09-27T08:10:00Z</time>
      </trkpt>
      <trkpt lat="45.79511" lon="4.67376">
        <ele>411.1</ele>
        <time>2015-09-27T08:10:01Z</time>
      </trkpt>
      <trkpt lat="45.79515" lon="4.67361">
        <ele>410.62</ele>
        <time>2015-09-27T08:10:08Z</time>
      </trkpt>
      <trkpt lat="45.79515" lon="4.67358">
        <ele>410.62</ele>
        <time>2015-09-27T08:10:09Z</time>
      </trkpt>
      <trkpt lat="45.79516" lon="4.67356">
        <ele>410.62</ele>
        <time>2015-09-27T08:10:10Z</time>
      </trkpt>
      <trkpt lat="45.79516" lon="4.67354">
        <ele>410.62</ele>
        <time>2015-09-27T08:10:11Z</time>
      </trkpt>
      <trkpt lat="45.79517" lon="4.67352">
        <ele>410.14</ele>
        <time>2015-09-27T08:10:12Z</time>
      </trkpt>
      <trkpt lat="45.79517" lon="4.6735">
        <ele>410.14</ele>
        <time>2015-09-27T08:10:13Z</time>
      </trkpt>
      <trkpt lat="45.79517" lon="4.67348">
        <ele>410.14</ele>
        <time>2015-09-27T08:10:14Z</time>
      </trkpt>
      <trkpt lat="45.79517" lon="4.67345">
        <ele>410.14</ele>
        <time>2015-09-27T08:10:15Z</time>
      </trkpt>
      <trkpt lat="45.79516" lon="4.67326">
        <ele>413.02</ele>
        <time>2015-09-27T08:10:23Z</time>
      </trkpt>
      <trkpt lat="45.79514" lon="4.6732">
        <ele>416.87</ele>
        <time>2015-09-27T08:10:34Z</time>
      </trkpt>
      <trkpt lat="45.79513" lon="4.67317">
        <ele>414.95</ele>
        <time>2015-09-27T08:11:11Z</time>
      </trkpt>
      <trkpt lat="45.79514" lon="4.67318">
        <ele>416.39</ele>
        <time>2015-09-27T08:11:47Z</time>
      </trkpt>
      <trkpt lat="45.79514" lon="4.67319">
        <ele>416.39</ele>
        <time>2015-09-27T08:11:48Z</time>
      </trkpt>
      <trkpt lat="45.79513" lon="4.6732">
        <ele>415.91</ele>
        <time>2015-09-27T08:12:01Z</time>
      </trkpt>
      <trkpt lat="45.79514" lon="4.6732">
        <ele>416.87</ele>
        <time>2015-09-27T08:12:17Z</time>
      </trkpt>
      <trkpt lat="45.79515" lon="4.6732">
        <ele>417.35</ele>
        <time>2015-09-27T08:12:18Z</time>
      </trkpt>
      <trkpt lat="45.79517" lon="4.67318">
        <ele>417.35</ele>
        <time>2015-09-27T08:12:19Z</time>
      </trkpt>
      <trkpt lat="45.79518" lon="4.67316">
        <ele>417.35</ele>
        <time>2015-09-27T08:12:20Z</time>
      </trkpt>
      <trkpt lat="45.79519" lon="4.67314">
        <ele>417.35</ele>
        <time>2015-09-27T08:12:21Z</time>
      </trkpt>
      <trkpt lat="45.79532" lon="4.67287">
        <ele>418.31</ele>
        <time>2015-09-27T08:12:31Z</time>
      </trkpt>
      <trkpt lat="45.79547" lon="4.67253">
        <ele>419.27</ele>
        <time>2015-09-27T08:12:43Z</time>
      </trkpt>
      <trkpt lat="45.79567" lon="4.67221">
        <ele>421.68</ele>
        <time>2015-09-27T08:12:56Z</time>
      </trkpt>
      <trkpt lat="45.79588" lon="4.67187">
        <ele>423.6</ele>
        <time>2015-09-27T08:13:10Z</time>
      </trkpt>
      <trkpt lat="45.79593" lon="4.67148">
        <ele>428.4</ele>
        <time>2015-09-27T08:13:22Z</time>
      </trkpt>
      <trkpt lat="45.79593" lon="4.67143">
        <ele>428.89</ele>
        <time>2015-09-27T08:13:24Z</time>
      </trkpt>
      <trkpt lat="45.79593" lon="4.67141">
        <ele>429.37</ele>
        <time>2015-09-27T08:13:25Z</time>
      </trkpt>
      <trkpt lat="45.79597" lon="4.67105">
        <ele>436.1</ele>
        <time>2015-09-27T08:13:37Z</time>
      </trkpt>
      <trkpt lat="45.79605" lon="4.6706">
        <ele>437.06</ele>
        <time>2015-09-27T08:13:47Z</time>
      </trkpt>
      <trkpt lat="45.79602" lon="4.6702">
        <ele>436.58</ele>
        <time>2015-09-27T08:13:53Z</time>
      </trkpt>
      <trkpt lat="45.79601" lon="4.67013">
        <ele>436.58</ele>
        <time>2015-09-27T08:13:54Z</time>
      </trkpt>
      <trkpt lat="45.796" lon="4.67008">
        <ele>436.1</ele>
        <time>2015-09-27T08:13:55Z</time>
      </trkpt>
      <trkpt lat="45.79598" lon="4.67004">
        <ele>436.1</ele>
        <time>2015-09-27T08:13:56Z</time>
      </trkpt>
      <trkpt lat="45.79597" lon="4.67001">
        <ele>436.1</ele>
        <time>2015-09-27T08:13:57Z</time>
      </trkpt>
      <trkpt lat="45.79595" lon="4.66999">
        <ele>435.61</ele>
        <time>2015-09-27T08:13:59Z</time>
      </trkpt>
      <trkpt lat="45.79599" lon="4.6696">
        <ele>435.13</ele>
        <time>2015-09-27T08:14:12Z</time>
      </trkpt>
      <trkpt lat="45.79598" lon="4.66951">
        <ele>435.13</ele>
        <time>2015-09-27T08:14:13Z</time>
      </trkpt>
      <trkpt lat="45.79596" lon="4.6685">
        <ele>434.17</ele>
        <time>2015-09-27T08:14:23Z</time>
      </trkpt>
      <trkpt lat="45.79596" lon="4.66839">
        <ele>433.69</ele>
        <time>2015-09-27T08:14:24Z</time>
      </trkpt>
      <trkpt lat="45.79596" lon="4.66827">
        <ele>433.21</ele>
        <time>2015-09-27T08:14:25Z</time>
      </trkpt>
      <trkpt lat="45.79595" lon="4.66815">
        <ele>433.21</ele>
        <time>2015-09-27T08:14:26Z</time>
      </trkpt>
      <trkpt lat="45.79595" lon="4.66804">
        <ele>433.21</ele>
        <time>2015-09-27T08:14:27Z</time>
      </trkpt>
      <trkpt lat="45.79595" lon="4.66794">
        <ele>432.73</ele>
        <time>2015-09-27T08:14:28Z</time>
      </trkpt>
      <trkpt lat="45.79595" lon="4.66784">
        <ele>432.73</ele>
        <time>2015-09-27T08:14:29Z</time>
      </trkpt>
      <trkpt lat="45.79594" lon="4.66774">
        <ele>432.25</ele>
        <time>2015-09-27T08:14:30Z</time>
      </trkpt>
      <trkpt lat="45.79593" lon="4.66765">
        <ele>431.77</ele>
        <time>2015-09-27T08:14:31Z</time>
      </trkpt>
      <trkpt lat="45.79592" lon="4.66756">
        <ele>431.29</ele>
        <time>2015-09-27T08:14:32Z</time>
      </trkpt>
      <trkpt lat="45.79591" lon="4.66741">
        <ele>430.81</ele>
        <time>2015-09-27T08:14:34Z</time>
      </trkpt>
      <trkpt lat="45.79588" lon="4.66735">
        <ele>430.33</ele>
        <time>2015-09-27T08:14:35Z</time>
      </trkpt>
      <trkpt lat="45.79583" lon="4.66722">
        <ele>429.37</ele>
        <time>2015-09-27T08:14:37Z</time>
      </trkpt>
      <trkpt lat="45.7958" lon="4.66716">
        <ele>428.89</ele>
        <time>2015-09-27T08:14:38Z</time>
      </trkpt>
      <trkpt lat="45.79572" lon="4.66704">
        <ele>427.92</ele>
        <time>2015-09-27T08:14:40Z</time>
      </trkpt>
      <trkpt lat="45.79567" lon="4.66688">
        <ele>426.96</ele>
        <time>2015-09-27T08:14:42Z</time>
      </trkpt>
      <trkpt lat="45.79565" lon="4.6668">
        <ele>426.48</ele>
        <time>2015-09-27T08:14:43Z</time>
      </trkpt>
      <trkpt lat="45.79565" lon="4.6667">
        <ele>426</ele>
        <time>2015-09-27T08:14:44Z</time>
      </trkpt>
      <trkpt lat="45.79564" lon="4.66662">
        <ele>425.52</ele>
        <time>2015-09-27T08:14:45Z</time>
      </trkpt>
      <trkpt lat="45.79562" lon="4.66654">
        <ele>425.04</ele>
        <time>2015-09-27T08:14:46Z</time>
      </trkpt>
      <trkpt lat="45.79562" lon="4.66648">
        <ele>425.04</ele>
        <time>2015-09-27T08:14:47Z</time>
      </trkpt>
      <trkpt lat="45.79563" lon="4.66641">
        <ele>424.56</ele>
        <time>2015-09-27T08:14:48Z</time>
      </trkpt>
      <trkpt lat="45.79566" lon="4.66636">
        <ele>424.08</ele>
        <time>2015-09-27T08:14:49Z</time>
      </trkpt>
      <trkpt lat="45.79568" lon="4.66632">
        <ele>424.08</ele>
        <time>2015-09-27T08:14:50Z</time>
      </trkpt>
      <trkpt lat="45.7957" lon="4.6663">
        <ele>423.6</ele>
        <time>2015-09-27T08:14:51Z</time>
      </trkpt>
      <trkpt lat="45.79572" lon="4.66628">
        <ele>423.12</ele>
        <time>2015-09-27T08:14:52Z</time>
      </trkpt>
      <trkpt lat="45.79573" lon="4.66626">
        <ele>422.64</ele>
        <time>2015-09-27T08:14:53Z</time>
      </trkpt>
      <trkpt lat="45.79574" lon="4.66625">
        <ele>422.64</ele>
        <time>2015-09-27T08:14:54Z</time>
      </trkpt>
      <trkpt lat="45.79576" lon="4.66624">
        <ele>422.16</ele>
        <time>2015-09-27T08:14:55Z</time>
      </trkpt>
      <trkpt lat="45.79579" lon="4.66619">
        <ele>422.16</ele>
        <time>2015-09-27T08:14:58Z</time>
      </trkpt>
      <trkpt lat="45.79581" lon="4.66616">
        <ele>422.16</ele>
        <time>2015-09-27T08:14:59Z</time>
      </trkpt>
      <trkpt lat="45.79582" lon="4.66615">
        <ele>422.64</ele>
        <time>2015-09-27T08:15:00Z</time>
      </trkpt>
      <trkpt lat="45.79583" lon="4.66613">
        <ele>422.64</ele>
        <time>2015-09-27T08:15:01Z</time>
      </trkpt>
      <trkpt lat="45.79585" lon="4.66612">
        <ele>422.64</ele>
        <time>2015-09-27T08:15:02Z</time>
      </trkpt>
      <trkpt lat="45.79587" lon="4.66611">
        <ele>422.64</ele>
        <time>2015-09-27T08:15:03Z</time>
      </trkpt>
      <trkpt lat="45.79605" lon="4.66603">
        <ele>423.12</ele>
        <time>2015-09-27T08:15:14Z</time>
      </trkpt>
      <trkpt lat="45.7961" lon="4.666">
        <ele>423.6</ele>
        <time>2015-09-27T08:15:17Z</time>
      </trkpt>
      <trkpt lat="45.79612" lon="4.66599">
        <ele>423.6</ele>
        <time>2015-09-27T08:15:18Z</time>
      </trkpt>
      <trkpt lat="45.79613" lon="4.66598">
        <ele>423.6</ele>
        <time>2015-09-27T08:15:19Z</time>
      </trkpt>
      <trkpt lat="45.79628" lon="4.66591">
        <ele>423.6</ele>
        <time>2015-09-27T08:15:27Z</time>
      </trkpt>
      <trkpt lat="45.79631" lon="4.66588">
        <ele>424.56</ele>
        <time>2015-09-27T08:15:30Z</time>
      </trkpt>
      <trkpt lat="45.79639" lon="4.6657">
        <ele>426.96</ele>
        <time>2015-09-27T08:15:45Z</time>
      </trkpt>
      <trkpt lat="45.7964" lon="4.66566">
        <ele>427.44</ele>
        <time>2015-09-27T08:16:12Z</time>
      </trkpt>
      <trkpt lat="45.79641" lon="4.66564">
        <ele>426.96</ele>
        <time>2015-09-27T08:16:13Z</time>
      </trkpt>
      <trkpt lat="45.79642" lon="4.66562">
        <ele>426.48</ele>
        <time>2015-09-27T08:16:14Z</time>
      </trkpt>
      <trkpt lat="45.79653" lon="4.66543">
        <ele>423.12</ele>
        <time>2015-09-27T08:16:23Z</time>
      </trkpt>
      <trkpt lat="45.79661" lon="4.6652">
        <ele>423.12</ele>
        <time>2015-09-27T08:16:31Z</time>
      </trkpt>
      <trkpt lat="45.79663" lon="4.66516">
        <ele>423.6</ele>
        <time>2015-09-27T08:16:46Z</time>
      </trkpt>
      <trkpt lat="45.79664" lon="4.66513">
        <ele>425.52</ele>
        <time>2015-09-27T08:17:05Z</time>
      </trkpt>
      <trkpt lat="45.79664" lon="4.66513">
        <ele>425.52</ele>
        <time>2015-09-27T08:17:06Z</time>
      </trkpt>
      <trkpt lat="45.79679" lon="4.66481">
        <ele>422.64</ele>
        <time>2015-09-27T08:17:16Z</time>
      </trkpt>
      <trkpt lat="45.79686" lon="4.66464">
        <ele>422.16</ele>
        <time>2015-09-27T08:17:20Z</time>
      </trkpt>
      <trkpt lat="45.7969" lon="4.66449">
        <ele>422.16</ele>
        <time>2015-09-27T08:17:24Z</time>
      </trkpt>
      <trkpt lat="45.79695" lon="4.66446">
        <ele>421.68</ele>
        <time>2015-09-27T08:17:26Z</time>
      </trkpt>
      <trkpt lat="45.7971" lon="4.66428">
        <ele>421.19</ele>
        <time>2015-09-27T08:17:33Z</time>
      </trkpt>
      <trkpt lat="45.79732" lon="4.66395">
        <ele>424.56</ele>
        <time>2015-09-27T08:17:47Z</time>
      </trkpt>
      <trkpt lat="45.79752" lon="4.66371">
        <ele>428.4</ele>
        <time>2015-09-27T08:17:57Z</time>
      </trkpt>
      <trkpt lat="45.79775" lon="4.66323">
        <ele>432.25</ele>
        <time>2015-09-27T08:18:10Z</time>
      </trkpt>
      <trkpt lat="45.79791" lon="4.66279">
        <ele>431.77</ele>
        <time>2015-09-27T08:18:20Z</time>
      </trkpt>
      <trkpt lat="45.79807" lon="4.66232">
        <ele>431.29</ele>
        <time>2015-09-27T08:18:30Z</time>
      </trkpt>
      <trkpt lat="45.79834" lon="4.66199">
        <ele>429.37</ele>
        <time>2015-09-27T08:18:41Z</time>
      </trkpt>
      <trkpt lat="45.79861" lon="4.66148">
        <ele>429.37</ele>
        <time>2015-09-27T08:18:54Z</time>
      </trkpt>
      <trkpt lat="45.79865" lon="4.66132">
        <ele>429.37</ele>
        <time>2015-09-27T08:18:58Z</time>
      </trkpt>
      <trkpt lat="45.79879" lon="4.66062">
        <ele>430.81</ele>
        <time>2015-09-27T08:19:13Z</time>
      </trkpt>
      <trkpt lat="45.79899" lon="4.65991">
        <ele>432.73</ele>
        <time>2015-09-27T08:19:27Z</time>
      </trkpt>
      <trkpt lat="45.79921" lon="4.65929">
        <ele>434.17</ele>
        <time>2015-09-27T08:19:40Z</time>
      </trkpt>
      <trkpt lat="45.79957" lon="4.65879">
        <ele>436.1</ele>
        <time>2015-09-27T08:19:53Z</time>
      </trkpt>
      <trkpt lat="45.79966" lon="4.65832">
        <ele>439.46</ele>
        <time>2015-09-27T08:20:04Z</time>
      </trkpt>
      <trkpt lat="45.79969" lon="4.65799">
        <ele>440.42</ele>
        <time>2015-09-27T08:20:14Z</time>
      </trkpt>
      <trkpt lat="45.79973" lon="4.65777">
        <ele>441.86</ele>
        <time>2015-09-27T08:20:20Z</time>
      </trkpt>
      <trkpt lat="45.79976" lon="4.65754">
        <ele>442.34</ele>
        <time>2015-09-27T08:20:29Z</time>
      </trkpt>
      <trkpt lat="45.79958" lon="4.6575">
        <ele>442.82</ele>
        <time>2015-09-27T08:20:40Z</time>
      </trkpt>
      <trkpt lat="45.79933" lon="4.65747">
        <ele>442.82</ele>
        <time>2015-09-27T08:20:52Z</time>
      </trkpt>
      <trkpt lat="45.79899" lon="4.6575">
        <ele>444.27</ele>
        <time>2015-09-27T08:21:05Z</time>
      </trkpt>
      <trkpt lat="45.79869" lon="4.65753">
        <ele>444.75</ele>
        <time>2015-09-27T08:21:17Z</time>
      </trkpt>
      <trkpt lat="45.79826" lon="4.65761">
        <ele>444.27</ele>
        <time>2015-09-27T08:21:30Z</time>
      </trkpt>
      <trkpt lat="45.79801" lon="4.65762">
        <ele>443.79</ele>
        <time>2015-09-27T08:21:36Z</time>
      </trkpt>
      <trkpt lat="45.79797" lon="4.65761">
        <ele>443.79</ele>
        <time>2015-09-27T08:21:37Z</time>
      </trkpt>
      <trkpt lat="45.79793" lon="4.65761">
        <ele>443.31</ele>
        <time>2015-09-27T08:21:38Z</time>
      </trkpt>
      <trkpt lat="45.79751" lon="4.65771">
        <ele>441.86</ele>
        <time>2015-09-27T08:21:50Z</time>
      </trkpt>
      <trkpt lat="45.79746" lon="4.65772">
        <ele>441.86</ele>
        <time>2015-09-27T08:21:53Z</time>
      </trkpt>
      <trkpt lat="45.79745" lon="4.65771">
        <ele>441.86</ele>
        <time>2015-09-27T08:21:54Z</time>
      </trkpt>
      <trkpt lat="45.79743" lon="4.65771">
        <ele>441.38</ele>
        <time>2015-09-27T08:21:55Z</time>
      </trkpt>
      <trkpt lat="45.79741" lon="4.65772">
        <ele>441.38</ele>
        <time>2015-09-27T08:21:56Z</time>
      </trkpt>
      <trkpt lat="45.7974" lon="4.65774">
        <ele>441.38</ele>
        <time>2015-09-27T08:21:57Z</time>
      </trkpt>
      <trkpt lat="45.79739" lon="4.65776">
        <ele>441.38</ele>
        <time>2015-09-27T08:21:58Z</time>
      </trkpt>
      <trkpt lat="45.79737" lon="4.65778">
        <ele>441.38</ele>
        <time>2015-09-27T08:21:59Z</time>
      </trkpt>
      <trkpt lat="45.79735" lon="4.6578">
        <ele>441.38</ele>
        <time>2015-09-27T08:22:00Z</time>
      </trkpt>
      <trkpt lat="45.79733" lon="4.65781">
        <ele>441.38</ele>
        <time>2015-09-27T08:22:01Z</time>
      </trkpt>
      <trkpt lat="45.79732" lon="4.65783">
        <ele>441.38</ele>
        <time>2015-09-27T08:22:02Z</time>
      </trkpt>
      <trkpt lat="45.7973" lon="4.65784">
        <ele>441.38</ele>
        <time>2015-09-27T08:22:03Z</time>
      </trkpt>
      <trkpt lat="45.79728" lon="4.65784">
        <ele>441.86</ele>
        <time>2015-09-27T08:22:04Z</time>
      </trkpt>
      <trkpt lat="45.79706" lon="4.65796">
        <ele>442.34</ele>
        <time>2015-09-27T08:22:16Z</time>
      </trkpt>
      <trkpt lat="45.7968" lon="4.65808">
        <ele>443.31</ele>
        <time>2015-09-27T08:22:29Z</time>
      </trkpt>
      <trkpt lat="45.79654" lon="4.6582">
        <ele>444.27</ele>
        <time>2015-09-27T08:22:43Z</time>
      </trkpt>
      <trkpt lat="45.79648" lon="4.65823">
        <ele>443.79</ele>
        <time>2015-09-27T08:22:46Z</time>
      </trkpt>
      <trkpt lat="45.79618" lon="4.65828">
        <ele>442.82</ele>
        <time>2015-09-27T08:23:02Z</time>
      </trkpt>
      <trkpt lat="45.79596" lon="4.65833">
        <ele>443.31</ele>
        <time>2015-09-27T08:23:14Z</time>
      </trkpt>
      <trkpt lat="45.79572" lon="4.6583">
        <ele>443.79</ele>
        <time>2015-09-27T08:23:28Z</time>
      </trkpt>
      <trkpt lat="45.7956" lon="4.65824">
        <ele>446.19</ele>
        <time>2015-09-27T08:23:35Z</time>
      </trkpt>
      <trkpt lat="45.79535" lon="4.65808">
        <ele>449.55</ele>
        <time>2015-09-27T08:23:50Z</time>
      </trkpt>
      <trkpt lat="45.79527" lon="4.65803">
        <ele>450.03</ele>
        <time>2015-09-27T08:23:55Z</time>
      </trkpt>
      <trkpt lat="45.79507" lon="4.6579">
        <ele>451.96</ele>
        <time>2015-09-27T08:24:08Z</time>
      </trkpt>
      <trkpt lat="45.79485" lon="4.65777">
        <ele>454.36</ele>
        <time>2015-09-27T08:24:21Z</time>
      </trkpt>
      <trkpt lat="45.79466" lon="4.6577">
        <ele>454.84</ele>
        <time>2015-09-27T08:24:34Z</time>
      </trkpt>
      <trkpt lat="45.79448" lon="4.65765">
        <ele>457.72</ele>
        <time>2015-09-27T08:24:47Z</time>
      </trkpt>
      <trkpt lat="45.79433" lon="4.65763">
        <ele>461.57</ele>
        <time>2015-09-27T08:24:59Z</time>
      </trkpt>
      <trkpt lat="45.79414" lon="4.65759">
        <ele>461.57</ele>
        <time>2015-09-27T08:25:14Z</time>
      </trkpt>
      <trkpt lat="45.79402" lon="4.65759">
        <ele>462.53</ele>
        <time>2015-09-27T08:25:26Z</time>
      </trkpt>
      <trkpt lat="45.79389" lon="4.65756">
        <ele>462.53</ele>
        <time>2015-09-27T08:25:36Z</time>
      </trkpt>
      <trkpt lat="45.79388" lon="4.65755">
        <ele>462.53</ele>
        <time>2015-09-27T08:25:37Z</time>
      </trkpt>
      <trkpt lat="45.79385" lon="4.65756">
        <ele>462.53</ele>
        <time>2015-09-27T08:25:39Z</time>
      </trkpt>
      <trkpt lat="45.79368" lon="4.65752">
        <ele>463.01</ele>
        <time>2015-09-27T08:25:53Z</time>
      </trkpt>
      <trkpt lat="45.79352" lon="4.65749">
        <ele>464.45</ele>
        <time>2015-09-27T08:26:06Z</time>
      </trkpt>
      <trkpt lat="45.79337" lon="4.65748">
        <ele>465.9</ele>
        <time>2015-09-27T08:26:20Z</time>
      </trkpt>
      <trkpt lat="45.79321" lon="4.65752">
        <ele>467.82</ele>
        <time>2015-09-27T08:26:32Z</time>
      </trkpt>
      <trkpt lat="45.79315" lon="4.65752">
        <ele>467.82</ele>
        <time>2015-09-27T08:26:36Z</time>
      </trkpt>
      <trkpt lat="45.79301" lon="4.65752">
        <ele>469.74</ele>
        <time>2015-09-27T08:26:48Z</time>
      </trkpt>
      <trkpt lat="45.79283" lon="4.65754">
        <ele>473.11</ele>
        <time>2015-09-27T08:27:01Z</time>
      </trkpt>
      <trkpt lat="45.79265" lon="4.65759">
        <ele>474.55</ele>
        <time>2015-09-27T08:27:13Z</time>
      </trkpt>
      <trkpt lat="45.79258" lon="4.65758">
        <ele>475.51</ele>
        <time>2015-09-27T08:27:18Z</time>
      </trkpt>
      <trkpt lat="45.79254" lon="4.65757">
        <ele>476.47</ele>
        <time>2015-09-27T08:27:21Z</time>
      </trkpt>
      <trkpt lat="45.79235" lon="4.65753">
        <ele>480.8</ele>
        <time>2015-09-27T08:27:35Z</time>
      </trkpt>
      <trkpt lat="45.79221" lon="4.6575">
        <ele>480.32</ele>
        <time>2015-09-27T08:27:46Z</time>
      </trkpt>
      <trkpt lat="45.79203" lon="4.65745">
        <ele>487.05</ele>
        <time>2015-09-27T08:27:59Z</time>
      </trkpt>
      <trkpt lat="45.79197" lon="4.65745">
        <ele>487.05</ele>
        <time>2015-09-27T08:28:03Z</time>
      </trkpt>
      <trkpt lat="45.79178" lon="4.65742">
        <ele>489.93</ele>
        <time>2015-09-27T08:28:18Z</time>
      </trkpt>
      <trkpt lat="45.7917" lon="4.65742">
        <ele>491.37</ele>
        <time>2015-09-27T08:28:24Z</time>
      </trkpt>
      <trkpt lat="45.79154" lon="4.65736">
        <ele>496.66</ele>
        <time>2015-09-27T08:28:35Z</time>
      </trkpt>
      <trkpt lat="45.79143" lon="4.65731">
        <ele>499.06</ele>
        <time>2015-09-27T08:28:46Z</time>
      </trkpt>
      <trkpt lat="45.79131" lon="4.65727">
        <ele>500.98</ele>
        <time>2015-09-27T08:28:57Z</time>
      </trkpt>
      <trkpt lat="45.79114" lon="4.65725">
        <ele>503.39</ele>
        <time>2015-09-27T08:29:11Z</time>
      </trkpt>
      <trkpt lat="45.79106" lon="4.65726">
        <ele>504.35</ele>
        <time>2015-09-27T08:29:17Z</time>
      </trkpt>
      <trkpt lat="45.79103" lon="4.65725">
        <ele>504.83</ele>
        <time>2015-09-27T08:29:20Z</time>
      </trkpt>
      <trkpt lat="45.79102" lon="4.65724">
        <ele>504.83</ele>
        <time>2015-09-27T08:29:35Z</time>
      </trkpt>
      <trkpt lat="45.79103" lon="4.65724">
        <ele>504.83</ele>
        <time>2015-09-27T08:30:02Z</time>
      </trkpt>
      <trkpt lat="45.79102" lon="4.65723">
        <ele>504.35</ele>
        <time>2015-09-27T08:30:30Z</time>
      </trkpt>
      <trkpt lat="45.79102" lon="4.65722">
        <ele>504.83</ele>
        <time>2015-09-27T08:30:54Z</time>
      </trkpt>
      <trkpt lat="45.79102" lon="4.65722">
        <ele>504.35</ele>
        <time>2015-09-27T08:31:26Z</time>
      </trkpt>
      <trkpt lat="45.79102" lon="4.65722">
        <ele>504.35</ele>
        <time>2015-09-27T08:31:59Z</time>
      </trkpt>
      <trkpt lat="45.79102" lon="4.65722">
        <ele>504.35</ele>
        <time>2015-09-27T08:32:23Z</time>
      </trkpt>
      <trkpt lat="45.79099" lon="4.65715">
        <ele>504.83</ele>
        <time>2015-09-27T08:32:40Z</time>
      </trkpt>
      <trkpt lat="45.79095" lon="4.65713">
        <ele>505.31</ele>
        <time>2015-09-27T08:32:43Z</time>
      </trkpt>
      <trkpt lat="45.79074" lon="4.65693">
        <ele>505.31</ele>
        <time>2015-09-27T08:32:57Z</time>
      </trkpt>
      <trkpt lat="45.79056" lon="4.65675">
        <ele>507.23</ele>
        <time>2015-09-27T08:33:08Z</time>
      </trkpt>
      <trkpt lat="45.79034" lon="4.65649">
        <ele>508.19</ele>
        <time>2015-09-27T08:33:20Z</time>
      </trkpt>
      <trkpt lat="45.79017" lon="4.65622">
        <ele>509.64</ele>
        <time>2015-09-27T08:33:32Z</time>
      </trkpt>
      <trkpt lat="45.79008" lon="4.65601">
        <ele>511.56</ele>
        <time>2015-09-27T08:33:41Z</time>
      </trkpt>
      <trkpt lat="45.79001" lon="4.65558">
        <ele>511.56</ele>
        <time>2015-09-27T08:33:57Z</time>
      </trkpt>
      <trkpt lat="45.78992" lon="4.65521">
        <ele>511.08</ele>
        <time>2015-09-27T08:34:11Z</time>
      </trkpt>
      <trkpt lat="45.78989" lon="4.65498">
        <ele>512.04</ele>
        <time>2015-09-27T08:34:24Z</time>
      </trkpt>
      <trkpt lat="45.78989" lon="4.65496">
        <ele>512.04</ele>
        <time>2015-09-27T08:34:25Z</time>
      </trkpt>
      <trkpt lat="45.78987" lon="4.65482">
        <ele>513</ele>
        <time>2015-09-27T08:34:32Z</time>
      </trkpt>
      <trkpt lat="45.78984" lon="4.65451">
        <ele>514.44</ele>
        <time>2015-09-27T08:34:44Z</time>
      </trkpt>
      <trkpt lat="45.78986" lon="4.65426">
        <ele>513</ele>
        <time>2015-09-27T08:34:54Z</time>
      </trkpt>
      <trkpt lat="45.78978" lon="4.6539">
        <ele>515.88</ele>
        <time>2015-09-27T08:35:09Z</time>
      </trkpt>
      <trkpt lat="45.78974" lon="4.65377">
        <ele>517.81</ele>
        <time>2015-09-27T08:35:14Z</time>
      </trkpt>
      <trkpt lat="45.78965" lon="4.65352">
        <ele>519.73</ele>
        <time>2015-09-27T08:35:25Z</time>
      </trkpt>
      <trkpt lat="45.78964" lon="4.65349">
        <ele>519.73</ele>
        <time>2015-09-27T08:35:26Z</time>
      </trkpt>
      <trkpt lat="45.78953" lon="4.65324">
        <ele>520.21</ele>
        <time>2015-09-27T08:35:37Z</time>
      </trkpt>
      <trkpt lat="45.7895" lon="4.65321">
        <ele>519.73</ele>
        <time>2015-09-27T08:35:39Z</time>
      </trkpt>
      <trkpt lat="45.78948" lon="4.65318">
        <ele>519.73</ele>
        <time>2015-09-27T08:35:41Z</time>
      </trkpt>
      <trkpt lat="45.78936" lon="4.65283">
        <ele>521.65</ele>
        <time>2015-09-27T08:35:56Z</time>
      </trkpt>
      <trkpt lat="45.78924" lon="4.65256">
        <ele>523.58</ele>
        <time>2015-09-27T08:36:08Z</time>
      </trkpt>
      <trkpt lat="45.78911" lon="4.65233">
        <ele>525.5</ele>
        <time>2015-09-27T08:36:19Z</time>
      </trkpt>
      <trkpt lat="45.78898" lon="4.65207">
        <ele>526.94</ele>
        <time>2015-09-27T08:36:30Z</time>
      </trkpt>
      <trkpt lat="45.78881" lon="4.65191">
        <ele>532.23</ele>
        <time>2015-09-27T08:36:42Z</time>
      </trkpt>
      <trkpt lat="45.78878" lon="4.65189">
        <ele>533.19</ele>
        <time>2015-09-27T08:36:44Z</time>
      </trkpt>
      <trkpt lat="45.78859" lon="4.65177">
        <ele>539.92</ele>
        <time>2015-09-27T08:36:55Z</time>
      </trkpt>
      <trkpt lat="45.78855" lon="4.65174">
        <ele>541.84</ele>
        <time>2015-09-27T08:36:58Z</time>
      </trkpt>
      <trkpt lat="45.78846" lon="4.6517">
        <ele>544.24</ele>
        <time>2015-09-27T08:37:04Z</time>
      </trkpt>
      <trkpt lat="45.78832" lon="4.65158">
        <ele>547.61</ele>
        <time>2015-09-27T08:37:16Z</time>
      </trkpt>
      <trkpt lat="45.78828" lon="4.65158">
        <ele>546.17</ele>
        <time>2015-09-27T08:37:41Z</time>
      </trkpt>
      <trkpt lat="45.78827" lon="4.65159">
        <ele>548.57</ele>
        <time>2015-09-27T08:38:12Z</time>
      </trkpt>
      <trkpt lat="45.78819" lon="4.65148">
        <ele>547.61</ele>
        <time>2015-09-27T08:38:20Z</time>
      </trkpt>
      <trkpt lat="45.78807" lon="4.65132">
        <ele>549.05</ele>
        <time>2015-09-27T08:38:32Z</time>
      </trkpt>
      <trkpt lat="45.78804" lon="4.65126">
        <ele>550.49</ele>
        <time>2015-09-27T08:38:36Z</time>
      </trkpt>
      <trkpt lat="45.78803" lon="4.65121">
        <ele>551.45</ele>
        <time>2015-09-27T08:38:39Z</time>
      </trkpt>
      <trkpt lat="45.788" lon="4.65117">
        <ele>551.93</ele>
        <time>2015-09-27T08:38:42Z</time>
      </trkpt>
      <trkpt lat="45.78794" lon="4.65103">
        <ele>555.3</ele>
        <time>2015-09-27T08:38:55Z</time>
      </trkpt>
      <trkpt lat="45.78792" lon="4.651">
        <ele>557.22</ele>
        <time>2015-09-27T08:39:06Z</time>
      </trkpt>
      <trkpt lat="45.78791" lon="4.65094">
        <ele>558.18</ele>
        <time>2015-09-27T08:39:18Z</time>
      </trkpt>
      <trkpt lat="45.7879" lon="4.65093">
        <ele>558.66</ele>
        <time>2015-09-27T08:39:33Z</time>
      </trkpt>
      <trkpt lat="45.78787" lon="4.65084">
        <ele>557.7</ele>
        <time>2015-09-27T08:39:47Z</time>
      </trkpt>
      <trkpt lat="45.78784" lon="4.65078">
        <ele>557.7</ele>
        <time>2015-09-27T08:39:53Z</time>
      </trkpt>
      <trkpt lat="45.78781" lon="4.65075">
        <ele>558.18</ele>
        <time>2015-09-27T08:39:57Z</time>
      </trkpt>
      <trkpt lat="45.78771" lon="4.65062">
        <ele>561.55</ele>
        <time>2015-09-27T08:40:09Z</time>
      </trkpt>
      <trkpt lat="45.78762" lon="4.65049">
        <ele>563.47</ele>
        <time>2015-09-27T08:40:21Z</time>
      </trkpt>
      <trkpt lat="45.78753" lon="4.65044">
        <ele>565.87</ele>
        <time>2015-09-27T08:40:32Z</time>
      </trkpt>
      <trkpt lat="45.78736" lon="4.65029">
        <ele>568.76</ele>
        <time>2015-09-27T08:40:46Z</time>
      </trkpt>
      <trkpt lat="45.78727" lon="4.65025">
        <ele>569.72</ele>
        <time>2015-09-27T08:40:52Z</time>
      </trkpt>
      <trkpt lat="45.7872" lon="4.65022">
        <ele>570.2</ele>
        <time>2015-09-27T08:40:58Z</time>
      </trkpt>
      <trkpt lat="45.7871" lon="4.65025">
        <ele>570.68</ele>
        <time>2015-09-27T08:41:07Z</time>
      </trkpt>
      <trkpt lat="45.78698" lon="4.65027">
        <ele>571.64</ele>
        <time>2015-09-27T08:41:22Z</time>
      </trkpt>
      <trkpt lat="45.78698" lon="4.65027">
        <ele>571.16</ele>
        <time>2015-09-27T08:41:43Z</time>
      </trkpt>
      <trkpt lat="45.78697" lon="4.65028">
        <ele>571.64</ele>
        <time>2015-09-27T08:41:46Z</time>
      </trkpt>
      <trkpt lat="45.78695" lon="4.65029">
        <ele>572.12</ele>
        <time>2015-09-27T08:42:02Z</time>
      </trkpt>
      <trkpt lat="45.78695" lon="4.65028">
        <ele>573.08</ele>
        <time>2015-09-27T08:42:28Z</time>
      </trkpt>
      <trkpt lat="45.78695" lon="4.65028">
        <ele>573.08</ele>
        <time>2015-09-27T08:42:51Z</time>
      </trkpt>
      <trkpt lat="45.78694" lon="4.65028">
        <ele>573.08</ele>
        <time>2015-09-27T08:43:05Z</time>
      </trkpt>
      <trkpt lat="45.7869" lon="4.65028">
        <ele>573.56</ele>
        <time>2015-09-27T08:43:09Z</time>
      </trkpt>
      <trkpt lat="45.78678" lon="4.65026">
        <ele>573.08</ele>
        <time>2015-09-27T08:43:17Z</time>
      </trkpt>
      <trkpt lat="45.78649" lon="4.65021">
        <ele>577.41</ele>
        <time>2015-09-27T08:43:31Z</time>
      </trkpt>
      <trkpt lat="45.7862" lon="4.65017">
        <ele>578.85</ele>
        <time>2015-09-27T08:43:45Z</time>
      </trkpt>
      <trkpt lat="45.78603" lon="4.65005">
        <ele>578.37</ele>
        <time>2015-09-27T08:43:54Z</time>
      </trkpt>
      <trkpt lat="45.78597" lon="4.65001">
        <ele>578.37</ele>
        <time>2015-09-27T08:43:58Z</time>
      </trkpt>
      <trkpt lat="45.7859" lon="4.64991">
        <ele>579.33</ele>
        <time>2015-09-27T08:44:05Z</time>
      </trkpt>
      <trkpt lat="45.78581" lon="4.64986">
        <ele>580.29</ele>
        <time>2015-09-27T08:44:13Z</time>
      </trkpt>
      <trkpt lat="45.78579" lon="4.64984">
        <ele>580.29</ele>
        <time>2015-09-27T08:44:15Z</time>
      </trkpt>
      <trkpt lat="45.7857" lon="4.6498">
        <ele>582.22</ele>
        <time>2015-09-27T08:44:20Z</time>
      </trkpt>
      <trkpt lat="45.78553" lon="4.6497">
        <ele>584.14</ele>
        <time>2015-09-27T08:44:31Z</time>
      </trkpt>
      <trkpt lat="45.7854" lon="4.64975">
        <ele>587.98</ele>
        <time>2015-09-27T08:44:38Z</time>
      </trkpt>
      <trkpt lat="45.78514" lon="4.6499">
        <ele>592.79</ele>
        <time>2015-09-27T08:44:52Z</time>
      </trkpt>
      <trkpt lat="45.78493" lon="4.64994">
        <ele>594.23</ele>
        <time>2015-09-27T08:45:02Z</time>
      </trkpt>
      <trkpt lat="45.78486" lon="4.64997">
        <ele>595.67</ele>
        <time>2015-09-27T08:45:06Z</time>
      </trkpt>
      <trkpt lat="45.78463" lon="4.64997">
        <ele>599.52</ele>
        <time>2015-09-27T08:45:18Z</time>
      </trkpt>
      <trkpt lat="45.78439" lon="4.64994">
        <ele>602.88</ele>
        <time>2015-09-27T08:45:33Z</time>
      </trkpt>
      <trkpt lat="45.78425" lon="4.64989">
        <ele>604.33</ele>
        <time>2015-09-27T08:45:42Z</time>
      </trkpt>
      <trkpt lat="45.78418" lon="4.64988">
        <ele>604.81</ele>
        <time>2015-09-27T08:45:47Z</time>
      </trkpt>
      <trkpt lat="45.78405" lon="4.64989">
        <ele>603.85</ele>
        <time>2015-09-27T08:46:01Z</time>
      </trkpt>
      <trkpt lat="45.78404" lon="4.64987">
        <ele>602.88</ele>
        <time>2015-09-27T08:46:21Z</time>
      </trkpt>
      <trkpt lat="45.78405" lon="4.64985">
        <ele>600.96</ele>
        <time>2015-09-27T08:46:48Z</time>
      </trkpt>
      <trkpt lat="45.78405" lon="4.64984">
        <ele>600</ele>
        <time>2015-09-27T08:47:09Z</time>
      </trkpt>
      <trkpt lat="45.78404" lon="4.64985">
        <ele>599.52</ele>
        <time>2015-09-27T08:47:33Z</time>
      </trkpt>
      <trkpt lat="45.78401" lon="4.64979">
        <ele>599.52</ele>
        <time>2015-09-27T08:47:43Z</time>
      </trkpt>
      <trkpt lat="45.78399" lon="4.64977">
        <ele>600</ele>
        <time>2015-09-27T08:47:45Z</time>
      </trkpt>
      <trkpt lat="45.78391" lon="4.64964">
        <ele>600.48</ele>
        <time>2015-09-27T08:47:53Z</time>
      </trkpt>
      <trkpt lat="45.78386" lon="4.64948">
        <ele>600.48</ele>
        <time>2015-09-27T08:48:02Z</time>
      </trkpt>
      <trkpt lat="45.78385" lon="4.64934">
        <ele>600.96</ele>
        <time>2015-09-27T08:48:10Z</time>
      </trkpt>
      <trkpt lat="45.78382" lon="4.64921">
        <ele>601.92</ele>
        <time>2015-09-27T08:48:17Z</time>
      </trkpt>
      <trkpt lat="45.78379" lon="4.64903">
        <ele>602.4</ele>
        <time>2015-09-27T08:48:27Z</time>
      </trkpt>
      <trkpt lat="45.78376" lon="4.6489">
        <ele>601.92</ele>
        <time>2015-09-27T08:48:34Z</time>
      </trkpt>
      <trkpt lat="45.78376" lon="4.64881">
        <ele>600.48</ele>
        <time>2015-09-27T08:48:38Z</time>
      </trkpt>
      <trkpt lat="45.78377" lon="4.64866">
        <ele>598.08</ele>
        <time>2015-09-27T08:48:43Z</time>
      </trkpt>
      <trkpt lat="45.78375" lon="4.64833">
        <ele>597.12</ele>
        <time>2015-09-27T08:48:54Z</time>
      </trkpt>
      <trkpt lat="45.78375" lon="4.64823">
        <ele>598.08</ele>
        <time>2015-09-27T08:48:57Z</time>
      </trkpt>
      <trkpt lat="45.78373" lon="4.64817">
        <ele>598.56</ele>
        <time>2015-09-27T08:48:59Z</time>
      </trkpt>
      <trkpt lat="45.78368" lon="4.64799">
        <ele>599.52</ele>
        <time>2015-09-27T08:49:12Z</time>
      </trkpt>
      <trkpt lat="45.78368" lon="4.64798">
        <ele>599.52</ele>
        <time>2015-09-27T08:49:13Z</time>
      </trkpt>
      <trkpt lat="45.78357" lon="4.6477">
        <ele>600.48</ele>
        <time>2015-09-27T08:49:26Z</time>
      </trkpt>
      <trkpt lat="45.78355" lon="4.64765">
        <ele>600.96</ele>
        <time>2015-09-27T08:49:28Z</time>
      </trkpt>
      <trkpt lat="45.78335" lon="4.64743">
        <ele>604.33</ele>
        <time>2015-09-27T08:49:41Z</time>
      </trkpt>
      <trkpt lat="45.7831" lon="4.64714">
        <ele>604.81</ele>
        <time>2015-09-27T08:49:55Z</time>
      </trkpt>
      <trkpt lat="45.78309" lon="4.64712">
        <ele>605.29</ele>
        <time>2015-09-27T08:49:56Z</time>
      </trkpt>
      <trkpt lat="45.78296" lon="4.6469">
        <ele>608.65</ele>
        <time>2015-09-27T08:50:06Z</time>
      </trkpt>
      <trkpt lat="45.78294" lon="4.64687">
        <ele>609.13</ele>
        <time>2015-09-27T08:50:08Z</time>
      </trkpt>
      <trkpt lat="45.7829" lon="4.64675">
        <ele>611.06</ele>
        <time>2015-09-27T08:50:19Z</time>
      </trkpt>
      <trkpt lat="45.78288" lon="4.64673">
        <ele>611.54</ele>
        <time>2015-09-27T08:50:29Z</time>
      </trkpt>
      <trkpt lat="45.78284" lon="4.6467">
        <ele>612.5</ele>
        <time>2015-09-27T08:50:32Z</time>
      </trkpt>
      <trkpt lat="45.78272" lon="4.6466">
        <ele>613.94</ele>
        <time>2015-09-27T08:50:42Z</time>
      </trkpt>
      <trkpt lat="45.78254" lon="4.64644">
        <ele>612.98</ele>
        <time>2015-09-27T08:50:52Z</time>
      </trkpt>
      <trkpt lat="45.78229" lon="4.64614">
        <ele>611.54</ele>
        <time>2015-09-27T08:51:04Z</time>
      </trkpt>
      <trkpt lat="45.782" lon="4.64585">
        <ele>612.5</ele>
        <time>2015-09-27T08:51:14Z</time>
      </trkpt>
      <trkpt lat="45.78172" lon="4.64562">
        <ele>612.98</ele>
        <time>2015-09-27T08:51:26Z</time>
      </trkpt>
      <trkpt lat="45.78163" lon="4.64561">
        <ele>613.46</ele>
        <time>2015-09-27T08:51:32Z</time>
      </trkpt>
      <trkpt lat="45.78147" lon="4.64546">
        <ele>615.38</ele>
        <time>2015-09-27T08:51:46Z</time>
      </trkpt>
      <trkpt lat="45.78128" lon="4.64535">
        <ele>619.23</ele>
        <time>2015-09-27T08:51:59Z</time>
      </trkpt>
      <trkpt lat="45.78107" lon="4.64523">
        <ele>627.4</ele>
        <time>2015-09-27T08:52:14Z</time>
      </trkpt>
      <trkpt lat="45.78093" lon="4.64515">
        <ele>631.72</ele>
        <time>2015-09-27T08:52:29Z</time>
      </trkpt>
      <trkpt lat="45.78082" lon="4.64513">
        <ele>635.57</ele>
        <time>2015-09-27T08:52:41Z</time>
      </trkpt>
      <trkpt lat="45.78068" lon="4.64505">
        <ele>637.01</ele>
        <time>2015-09-27T08:52:55Z</time>
      </trkpt>
      <trkpt lat="45.78061" lon="4.64497">
        <ele>637.97</ele>
        <time>2015-09-27T08:53:08Z</time>
      </trkpt>
      <trkpt lat="45.78049" lon="4.64477">
        <ele>640.86</ele>
        <time>2015-09-27T08:53:21Z</time>
      </trkpt>
      <trkpt lat="45.78036" lon="4.64464">
        <ele>641.82</ele>
        <time>2015-09-27T08:53:34Z</time>
      </trkpt>
      <trkpt lat="45.78032" lon="4.64457">
        <ele>643.26</ele>
        <time>2015-09-27T08:53:47Z</time>
      </trkpt>
      <trkpt lat="45.78033" lon="4.64456">
        <ele>641.34</ele>
        <time>2015-09-27T08:54:08Z</time>
      </trkpt>
      <trkpt lat="45.78033" lon="4.64456">
        <ele>641.34</ele>
        <time>2015-09-27T08:54:40Z</time>
      </trkpt>
      <trkpt lat="45.78034" lon="4.64454">
        <ele>642.78</ele>
        <time>2015-09-27T08:55:11Z</time>
      </trkpt>
      <trkpt lat="45.78033" lon="4.64453">
        <ele>643.26</ele>
        <time>2015-09-27T08:55:43Z</time>
      </trkpt>
      <trkpt lat="45.78026" lon="4.64445">
        <ele>642.78</ele>
        <time>2015-09-27T08:55:58Z</time>
      </trkpt>
      <trkpt lat="45.78004" lon="4.64412">
        <ele>642.78</ele>
        <time>2015-09-27T08:56:10Z</time>
      </trkpt>
      <trkpt lat="45.77997" lon="4.64403">
        <ele>641.82</ele>
        <time>2015-09-27T08:56:12Z</time>
      </trkpt>
      <trkpt lat="45.77993" lon="4.64398">
        <ele>641.82</ele>
        <time>2015-09-27T08:56:13Z</time>
      </trkpt>
      <trkpt lat="45.77986" lon="4.64388">
        <ele>640.86</ele>
        <time>2015-09-27T08:56:15Z</time>
      </trkpt>
      <trkpt lat="45.77978" lon="4.64368">
        <ele>639.41</ele>
        <time>2015-09-27T08:56:18Z</time>
      </trkpt>
      <trkpt lat="45.7797" lon="4.64352">
        <ele>638.45</ele>
        <time>2015-09-27T08:56:20Z</time>
      </trkpt>
      <trkpt lat="45.77967" lon="4.64346">
        <ele>637.49</ele>
        <time>2015-09-27T08:56:21Z</time>
      </trkpt>
      <trkpt lat="45.77961" lon="4.64335">
        <ele>636.05</ele>
        <time>2015-09-27T08:56:25Z</time>
      </trkpt>
      <trkpt lat="45.77959" lon="4.64332">
        <ele>635.57</ele>
        <time>2015-09-27T08:56:26Z</time>
      </trkpt>
      <trkpt lat="45.77939" lon="4.64292">
        <ele>631.24</ele>
        <time>2015-09-27T08:56:37Z</time>
      </trkpt>
      <trkpt lat="45.77936" lon="4.64284">
        <ele>630.76</ele>
        <time>2015-09-27T08:56:38Z</time>
      </trkpt>
      <trkpt lat="45.77933" lon="4.64275">
        <ele>629.8</ele>
        <time>2015-09-27T08:56:39Z</time>
      </trkpt>
      <trkpt lat="45.77929" lon="4.64267">
        <ele>629.32</ele>
        <time>2015-09-27T08:56:40Z</time>
      </trkpt>
      <trkpt lat="45.77924" lon="4.64257">
        <ele>628.36</ele>
        <time>2015-09-27T08:56:41Z</time>
      </trkpt>
      <trkpt lat="45.77919" lon="4.64247">
        <ele>627.4</ele>
        <time>2015-09-27T08:56:42Z</time>
      </trkpt>
      <trkpt lat="45.77915" lon="4.64237">
        <ele>626.44</ele>
        <time>2015-09-27T08:56:43Z</time>
      </trkpt>
      <trkpt lat="45.7791" lon="4.64227">
        <ele>625.47</ele>
        <time>2015-09-27T08:56:44Z</time>
      </trkpt>
      <trkpt lat="45.77861" lon="4.64126">
        <ele>617.3</ele>
        <time>2015-09-27T08:56:54Z</time>
      </trkpt>
      <trkpt lat="45.77848" lon="4.641">
        <ele>614.42</ele>
        <time>2015-09-27T08:56:57Z</time>
      </trkpt>
      <trkpt lat="45.77844" lon="4.6409">
        <ele>613.46</ele>
        <time>2015-09-27T08:56:58Z</time>
      </trkpt>
      <trkpt lat="45.77803" lon="4.64006">
        <ele>606.73</ele>
        <time>2015-09-27T08:57:07Z</time>
      </trkpt>
      <trkpt lat="45.778" lon="4.64001">
        <ele>606.73</ele>
        <time>2015-09-27T08:57:08Z</time>
      </trkpt>
      <trkpt lat="45.77797" lon="4.64">
        <ele>606.25</ele>
        <time>2015-09-27T08:57:09Z</time>
      </trkpt>
      <trkpt lat="45.77795" lon="4.64003">
        <ele>605.77</ele>
        <time>2015-09-27T08:57:10Z</time>
      </trkpt>
      <trkpt lat="45.77794" lon="4.64007">
        <ele>605.29</ele>
        <time>2015-09-27T08:57:11Z</time>
      </trkpt>
      <trkpt lat="45.77793" lon="4.6401">
        <ele>604.81</ele>
        <time>2015-09-27T08:57:12Z</time>
      </trkpt>
      <trkpt lat="45.77792" lon="4.64012">
        <ele>604.81</ele>
        <time>2015-09-27T08:57:13Z</time>
      </trkpt>
      <trkpt lat="45.7779" lon="4.64011">
        <ele>604.33</ele>
        <time>2015-09-27T08:57:22Z</time>
      </trkpt>
      <trkpt lat="45.77793" lon="4.6401">
        <ele>601.92</ele>
        <time>2015-09-27T08:57:42Z</time>
      </trkpt>
      <trkpt lat="45.77793" lon="4.64009">
        <ele>601.92</ele>
        <time>2015-09-27T08:58:16Z</time>
      </trkpt>
      <trkpt lat="45.77791" lon="4.64009">
        <ele>601.92</ele>
        <time>2015-09-27T08:58:48Z</time>
      </trkpt>
      <trkpt lat="45.77791" lon="4.64006">
        <ele>601.92</ele>
        <time>2015-09-27T08:59:23Z</time>
      </trkpt>
      <trkpt lat="45.77788" lon="4.64006">
        <ele>602.88</ele>
        <time>2015-09-27T09:00:01Z</time>
      </trkpt>
      <trkpt lat="45.77787" lon="4.64008">
        <ele>602.88</ele>
        <time>2015-09-27T09:00:38Z</time>
      </trkpt>
      <trkpt lat="45.77789" lon="4.6401">
        <ele>602.88</ele>
        <time>2015-09-27T09:00:49Z</time>
      </trkpt>
      <trkpt lat="45.77791" lon="4.64009">
        <ele>603.36</ele>
        <time>2015-09-27T09:01:02Z</time>
      </trkpt>
      <trkpt lat="45.77792" lon="4.64005">
        <ele>603.85</ele>
        <time>2015-09-27T09:01:17Z</time>
      </trkpt>
      <trkpt lat="45.77793" lon="4.64004">
        <ele>603.85</ele>
        <time>2015-09-27T09:01:18Z</time>
      </trkpt>
      <trkpt lat="45.77794" lon="4.64002">
        <ele>603.85</ele>
        <time>2015-09-27T09:01:19Z</time>
      </trkpt>
      <trkpt lat="45.77795" lon="4.64001">
        <ele>603.85</ele>
        <time>2015-09-27T09:01:20Z</time>
      </trkpt>
      <trkpt lat="45.77797" lon="4.64001">
        <ele>603.85</ele>
        <time>2015-09-27T09:01:21Z</time>
      </trkpt>
      <trkpt lat="45.77799" lon="4.64001">
        <ele>603.85</ele>
        <time>2015-09-27T09:01:22Z</time>
      </trkpt>
      <trkpt lat="45.77801" lon="4.64003">
        <ele>603.36</ele>
        <time>2015-09-27T09:01:24Z</time>
      </trkpt>
      <trkpt lat="45.77801" lon="4.64006">
        <ele>603.36</ele>
        <time>2015-09-27T09:01:25Z</time>
      </trkpt>
      <trkpt lat="45.77802" lon="4.64009">
        <ele>603.36</ele>
        <time>2015-09-27T09:01:26Z</time>
      </trkpt>
      <trkpt lat="45.77802" lon="4.64019">
        <ele>602.4</ele>
        <time>2015-09-27T09:01:28Z</time>
      </trkpt>
      <trkpt lat="45.77804" lon="4.64026">
        <ele>602.4</ele>
        <time>2015-09-27T09:01:29Z</time>
      </trkpt>
      <trkpt lat="45.77806" lon="4.6404">
        <ele>601.44</ele>
        <time>2015-09-27T09:01:31Z</time>
      </trkpt>
      <trkpt lat="45.7781" lon="4.6409">
        <ele>597.6</ele>
        <time>2015-09-27T09:01:38Z</time>
      </trkpt>
      <trkpt lat="45.77812" lon="4.64108">
        <ele>596.15</ele>
        <time>2015-09-27T09:01:41Z</time>
      </trkpt>
      <trkpt lat="45.77821" lon="4.64181">
        <ele>592.31</ele>
        <time>2015-09-27T09:01:51Z</time>
      </trkpt>
      <trkpt lat="45.77823" lon="4.64188">
        <ele>592.31</ele>
        <time>2015-09-27T09:01:52Z</time>
      </trkpt>
      <trkpt lat="45.77828" lon="4.642">
        <ele>591.83</ele>
        <time>2015-09-27T09:01:54Z</time>
      </trkpt>
      <trkpt lat="45.7783" lon="4.64205">
        <ele>591.83</ele>
        <time>2015-09-27T09:01:55Z</time>
      </trkpt>
      <trkpt lat="45.77844" lon="4.64245">
        <ele>591.35</ele>
        <time>2015-09-27T09:02:05Z</time>
      </trkpt>
      <trkpt lat="45.77839" lon="4.64289">
        <ele>597.6</ele>
        <time>2015-09-27T09:02:18Z</time>
      </trkpt>
      <trkpt lat="45.7783" lon="4.64329">
        <ele>607.21</ele>
        <time>2015-09-27T09:02:32Z</time>
      </trkpt>
      <trkpt lat="45.77822" lon="4.64379">
        <ele>613.94</ele>
        <time>2015-09-27T09:02:46Z</time>
      </trkpt>
      <trkpt lat="45.77824" lon="4.6443">
        <ele>615.38</ele>
        <time>2015-09-27T09:02:59Z</time>
      </trkpt>
      <trkpt lat="45.77825" lon="4.64473">
        <ele>614.42</ele>
        <time>2015-09-27T09:03:11Z</time>
      </trkpt>
      <trkpt lat="45.7783" lon="4.64522">
        <ele>612.02</ele>
        <time>2015-09-27T09:03:19Z</time>
      </trkpt>
      <trkpt lat="45.77831" lon="4.6453">
        <ele>611.54</ele>
        <time>2015-09-27T09:03:20Z</time>
      </trkpt>
      <trkpt lat="45.77834" lon="4.64556">
        <ele>610.09</ele>
        <time>2015-09-27T09:03:23Z</time>
      </trkpt>
      <trkpt lat="45.77836" lon="4.64565">
        <ele>609.61</ele>
        <time>2015-09-27T09:03:24Z</time>
      </trkpt>
      <trkpt lat="45.77836" lon="4.64574">
        <ele>608.65</ele>
        <time>2015-09-27T09:03:25Z</time>
      </trkpt>
      <trkpt lat="45.77836" lon="4.64601">
        <ele>606.73</ele>
        <time>2015-09-27T09:03:28Z</time>
      </trkpt>
      <trkpt lat="45.77829" lon="4.64688">
        <ele>600</ele>
        <time>2015-09-27T09:03:39Z</time>
      </trkpt>
      <trkpt lat="45.77826" lon="4.64718">
        <ele>600</ele>
        <time>2015-09-27T09:03:43Z</time>
      </trkpt>
      <trkpt lat="45.77823" lon="4.64732">
        <ele>600</ele>
        <time>2015-09-27T09:03:45Z</time>
      </trkpt>
      <trkpt lat="45.77821" lon="4.64739">
        <ele>599.52</ele>
        <time>2015-09-27T09:03:46Z</time>
      </trkpt>
      <trkpt lat="45.77819" lon="4.64747">
        <ele>599.52</ele>
        <time>2015-09-27T09:03:47Z</time>
      </trkpt>
      <trkpt lat="45.77816" lon="4.64755">
        <ele>599.04</ele>
        <time>2015-09-27T09:03:48Z</time>
      </trkpt>
      <trkpt lat="45.77814" lon="4.64762">
        <ele>599.04</ele>
        <time>2015-09-27T09:03:49Z</time>
      </trkpt>
      <trkpt lat="45.77807" lon="4.64793">
        <ele>597.6</ele>
        <time>2015-09-27T09:03:55Z</time>
      </trkpt>
      <trkpt lat="45.77805" lon="4.648">
        <ele>597.6</ele>
        <time>2015-09-27T09:03:56Z</time>
      </trkpt>
      <trkpt lat="45.77803" lon="4.64807">
        <ele>597.12</ele>
        <time>2015-09-27T09:03:57Z</time>
      </trkpt>
      <trkpt lat="45.77801" lon="4.64814">
        <ele>597.12</ele>
        <time>2015-09-27T09:03:58Z</time>
      </trkpt>
      <trkpt lat="45.77799" lon="4.64821">
        <ele>596.64</ele>
        <time>2015-09-27T09:03:59Z</time>
      </trkpt>
      <trkpt lat="45.77797" lon="4.64829">
        <ele>596.15</ele>
        <time>2015-09-27T09:04:00Z</time>
      </trkpt>
      <trkpt lat="45.77796" lon="4.64837">
        <ele>596.15</ele>
        <time>2015-09-27T09:04:01Z</time>
      </trkpt>
      <trkpt lat="45.77796" lon="4.64846">
        <ele>595.67</ele>
        <time>2015-09-27T09:04:02Z</time>
      </trkpt>
      <trkpt lat="45.77794" lon="4.64863">
        <ele>595.19</ele>
        <time>2015-09-27T09:04:04Z</time>
      </trkpt>
      <trkpt lat="45.77793" lon="4.6487">
        <ele>595.19</ele>
        <time>2015-09-27T09:04:05Z</time>
      </trkpt>
      <trkpt lat="45.77793" lon="4.64877">
        <ele>594.71</ele>
        <time>2015-09-27T09:04:06Z</time>
      </trkpt>
      <trkpt lat="45.77793" lon="4.64903">
        <ele>593.75</ele>
        <time>2015-09-27T09:04:10Z</time>
      </trkpt>
      <trkpt lat="45.77793" lon="4.64911">
        <ele>593.75</ele>
        <time>2015-09-27T09:04:11Z</time>
      </trkpt>
      <trkpt lat="45.77791" lon="4.64926">
        <ele>592.79</ele>
        <time>2015-09-27T09:04:13Z</time>
      </trkpt>
      <trkpt lat="45.7779" lon="4.64933">
        <ele>592.79</ele>
        <time>2015-09-27T09:04:14Z</time>
      </trkpt>
      <trkpt lat="45.77788" lon="4.64941">
        <ele>592.31</ele>
        <time>2015-09-27T09:04:15Z</time>
      </trkpt>
      <trkpt lat="45.77786" lon="4.64957">
        <ele>591.35</ele>
        <time>2015-09-27T09:04:17Z</time>
      </trkpt>
      <trkpt lat="45.77783" lon="4.64987">
        <ele>590.39</ele>
        <time>2015-09-27T09:04:20Z</time>
      </trkpt>
      <trkpt lat="45.77783" lon="4.65054">
        <ele>586.54</ele>
        <time>2015-09-27T09:04:26Z</time>
      </trkpt>
      <trkpt lat="45.77784" lon="4.65064">
        <ele>585.58</ele>
        <time>2015-09-27T09:04:27Z</time>
      </trkpt>
      <trkpt lat="45.77786" lon="4.65073">
        <ele>585.58</ele>
        <time>2015-09-27T09:04:28Z</time>
      </trkpt>
      <trkpt lat="45.7779" lon="4.65088">
        <ele>584.62</ele>
        <time>2015-09-27T09:04:30Z</time>
      </trkpt>
      <trkpt lat="45.77792" lon="4.65094">
        <ele>584.62</ele>
        <time>2015-09-27T09:04:31Z</time>
      </trkpt>
      <trkpt lat="45.778" lon="4.65122">
        <ele>584.14</ele>
        <time>2015-09-27T09:04:36Z</time>
      </trkpt>
      <trkpt lat="45.77809" lon="4.65192">
        <ele>580.29</ele>
        <time>2015-09-27T09:04:46Z</time>
      </trkpt>
      <trkpt lat="45.7781" lon="4.65203">
        <ele>579.33</ele>
        <time>2015-09-27T09:04:49Z</time>
      </trkpt>
      <trkpt lat="45.77811" lon="4.65208">
        <ele>578.85</ele>
        <time>2015-09-27T09:04:50Z</time>
      </trkpt>
      <trkpt lat="45.77813" lon="4.65222">
        <ele>577.89</ele>
        <time>2015-09-27T09:04:52Z</time>
      </trkpt>
      <trkpt lat="45.77815" lon="4.65228">
        <ele>577.41</ele>
        <time>2015-09-27T09:04:53Z</time>
      </trkpt>
      <trkpt lat="45.77818" lon="4.65234">
        <ele>576.93</ele>
        <time>2015-09-27T09:04:54Z</time>
      </trkpt>
      <trkpt lat="45.77821" lon="4.6524">
        <ele>576.45</ele>
        <time>2015-09-27T09:04:55Z</time>
      </trkpt>
      <trkpt lat="45.77823" lon="4.65246">
        <ele>575.97</ele>
        <time>2015-09-27T09:04:56Z</time>
      </trkpt>
      <trkpt lat="45.77825" lon="4.65251">
        <ele>575.49</ele>
        <time>2015-09-27T09:04:57Z</time>
      </trkpt>
      <trkpt lat="45.77828" lon="4.65256">
        <ele>574.53</ele>
        <time>2015-09-27T09:04:58Z</time>
      </trkpt>
      <trkpt lat="45.7783" lon="4.65261">
        <ele>574.04</ele>
        <time>2015-09-27T09:04:59Z</time>
      </trkpt>
      <trkpt lat="45.77834" lon="4.65277">
        <ele>572.12</ele>
        <time>2015-09-27T09:05:02Z</time>
      </trkpt>
      <trkpt lat="45.77833" lon="4.65282">
        <ele>571.16</ele>
        <time>2015-09-27T09:05:03Z</time>
      </trkpt>
      <trkpt lat="45.77831" lon="4.65288">
        <ele>570.68</ele>
        <time>2015-09-27T09:05:04Z</time>
      </trkpt>
      <trkpt lat="45.77829" lon="4.65293">
        <ele>570.2</ele>
        <time>2015-09-27T09:05:05Z</time>
      </trkpt>
      <trkpt lat="45.77827" lon="4.65298">
        <ele>569.72</ele>
        <time>2015-09-27T09:05:06Z</time>
      </trkpt>
      <trkpt lat="45.77825" lon="4.65303">
        <ele>568.76</ele>
        <time>2015-09-27T09:05:07Z</time>
      </trkpt>
      <trkpt lat="45.77824" lon="4.65309">
        <ele>568.28</ele>
        <time>2015-09-27T09:05:08Z</time>
      </trkpt>
      <trkpt lat="45.77824" lon="4.65316">
        <ele>567.8</ele>
        <time>2015-09-27T09:05:09Z</time>
      </trkpt>
      <trkpt lat="45.77823" lon="4.65322">
        <ele>567.32</ele>
        <time>2015-09-27T09:05:10Z</time>
      </trkpt>
      <trkpt lat="45.77796" lon="4.65384">
        <ele>560.11</ele>
        <time>2015-09-27T09:05:22Z</time>
      </trkpt>
      <trkpt lat="45.77793" lon="4.65391">
        <ele>559.62</ele>
        <time>2015-09-27T09:05:23Z</time>
      </trkpt>
      <trkpt lat="45.7779" lon="4.65399">
        <ele>559.14</ele>
        <time>2015-09-27T09:05:24Z</time>
      </trkpt>
      <trkpt lat="45.77788" lon="4.65407">
        <ele>558.66</ele>
        <time>2015-09-27T09:05:25Z</time>
      </trkpt>
      <trkpt lat="45.77787" lon="4.65417">
        <ele>558.66</ele>
        <time>2015-09-27T09:05:26Z</time>
      </trkpt>
      <trkpt lat="45.77787" lon="4.65427">
        <ele>558.18</ele>
        <time>2015-09-27T09:05:27Z</time>
      </trkpt>
      <trkpt lat="45.77785" lon="4.65444">
        <ele>558.18</ele>
        <time>2015-09-27T09:05:29Z</time>
      </trkpt>
      <trkpt lat="45.77784" lon="4.65453">
        <ele>557.7</ele>
        <time>2015-09-27T09:05:30Z</time>
      </trkpt>
      <trkpt lat="45.77781" lon="4.65462">
        <ele>557.7</ele>
        <time>2015-09-27T09:05:31Z</time>
      </trkpt>
      <trkpt lat="45.77777" lon="4.65469">
        <ele>557.22</ele>
        <time>2015-09-27T09:05:32Z</time>
      </trkpt>
      <trkpt lat="45.77771" lon="4.65477">
        <ele>557.22</ele>
        <time>2015-09-27T09:05:33Z</time>
      </trkpt>
      <trkpt lat="45.77767" lon="4.65481">
        <ele>557.22</ele>
        <time>2015-09-27T09:05:34Z</time>
      </trkpt>
      <trkpt lat="45.77762" lon="4.65486">
        <ele>557.22</ele>
        <time>2015-09-27T09:05:35Z</time>
      </trkpt>
      <trkpt lat="45.77756" lon="4.65489">
        <ele>556.74</ele>
        <time>2015-09-27T09:05:36Z</time>
      </trkpt>
      <trkpt lat="45.77751" lon="4.65494">
        <ele>556.74</ele>
        <time>2015-09-27T09:05:37Z</time>
      </trkpt>
      <trkpt lat="45.77749" lon="4.65501">
        <ele>555.78</ele>
        <time>2015-09-27T09:05:38Z</time>
      </trkpt>
      <trkpt lat="45.77748" lon="4.65509">
        <ele>555.3</ele>
        <time>2015-09-27T09:05:39Z</time>
      </trkpt>
      <trkpt lat="45.77748" lon="4.65518">
        <ele>554.82</ele>
        <time>2015-09-27T09:05:40Z</time>
      </trkpt>
      <trkpt lat="45.77747" lon="4.65528">
        <ele>553.86</ele>
        <time>2015-09-27T09:05:41Z</time>
      </trkpt>
      <trkpt lat="45.77748" lon="4.65537">
        <ele>553.38</ele>
        <time>2015-09-27T09:05:42Z</time>
      </trkpt>
      <trkpt lat="45.7775" lon="4.65547">
        <ele>552.41</ele>
        <time>2015-09-27T09:05:43Z</time>
      </trkpt>
      <trkpt lat="45.77751" lon="4.65556">
        <ele>551.93</ele>
        <time>2015-09-27T09:05:44Z</time>
      </trkpt>
      <trkpt lat="45.77753" lon="4.65565">
        <ele>550.97</ele>
        <time>2015-09-27T09:05:45Z</time>
      </trkpt>
      <trkpt lat="45.77754" lon="4.65575">
        <ele>550.49</ele>
        <time>2015-09-27T09:05:46Z</time>
      </trkpt>
      <trkpt lat="45.77753" lon="4.65623">
        <ele>547.13</ele>
        <time>2015-09-27T09:05:54Z</time>
      </trkpt>
      <trkpt lat="45.77754" lon="4.65627">
        <ele>546.65</ele>
        <time>2015-09-27T09:05:55Z</time>
      </trkpt>
      <trkpt lat="45.77756" lon="4.65631">
        <ele>545.69</ele>
        <time>2015-09-27T09:05:56Z</time>
      </trkpt>
      <trkpt lat="45.77757" lon="4.65637">
        <ele>544.72</ele>
        <time>2015-09-27T09:05:57Z</time>
      </trkpt>
      <trkpt lat="45.77763" lon="4.65656">
        <ele>542.32</ele>
        <time>2015-09-27T09:06:01Z</time>
      </trkpt>
      <trkpt lat="45.77764" lon="4.65662">
        <ele>541.36</ele>
        <time>2015-09-27T09:06:02Z</time>
      </trkpt>
      <trkpt lat="45.77772" lon="4.65698">
        <ele>535.59</ele>
        <time>2015-09-27T09:06:08Z</time>
      </trkpt>
      <trkpt lat="45.77774" lon="4.65706">
        <ele>534.63</ele>
        <time>2015-09-27T09:06:09Z</time>
      </trkpt>
      <trkpt lat="45.77777" lon="4.65713">
        <ele>533.67</ele>
        <time>2015-09-27T09:06:10Z</time>
      </trkpt>
      <trkpt lat="45.7778" lon="4.65717">
        <ele>532.23</ele>
        <time>2015-09-27T09:06:11Z</time>
      </trkpt>
      <trkpt lat="45.77781" lon="4.65719">
        <ele>531.27</ele>
        <time>2015-09-27T09:06:12Z</time>
      </trkpt>
      <trkpt lat="45.77783" lon="4.65721">
        <ele>530.3</ele>
        <time>2015-09-27T09:06:13Z</time>
      </trkpt>
      <trkpt lat="45.77785" lon="4.65724">
        <ele>529.82</ele>
        <time>2015-09-27T09:06:14Z</time>
      </trkpt>
      <trkpt lat="45.77786" lon="4.65728">
        <ele>528.86</ele>
        <time>2015-09-27T09:06:15Z</time>
      </trkpt>
      <trkpt lat="45.77787" lon="4.65732">
        <ele>527.9</ele>
        <time>2015-09-27T09:06:16Z</time>
      </trkpt>
      <trkpt lat="45.77788" lon="4.65736">
        <ele>526.94</ele>
        <time>2015-09-27T09:06:17Z</time>
      </trkpt>
      <trkpt lat="45.77787" lon="4.65741">
        <ele>525.98</ele>
        <time>2015-09-27T09:06:18Z</time>
      </trkpt>
      <trkpt lat="45.77787" lon="4.65745">
        <ele>525.5</ele>
        <time>2015-09-27T09:06:19Z</time>
      </trkpt>
      <trkpt lat="45.77787" lon="4.65749">
        <ele>525.02</ele>
        <time>2015-09-27T09:06:20Z</time>
      </trkpt>
      <trkpt lat="45.77793" lon="4.65775">
        <ele>521.65</ele>
        <time>2015-09-27T09:06:25Z</time>
      </trkpt>
      <trkpt lat="45.77797" lon="4.65779">
        <ele>521.17</ele>
        <time>2015-09-27T09:06:26Z</time>
      </trkpt>
      <trkpt lat="45.77801" lon="4.65784">
        <ele>520.21</ele>
        <time>2015-09-27T09:06:27Z</time>
      </trkpt>
      <trkpt lat="45.77805" lon="4.65787">
        <ele>519.73</ele>
        <time>2015-09-27T09:06:28Z</time>
      </trkpt>
      <trkpt lat="45.77808" lon="4.65789">
        <ele>519.25</ele>
        <time>2015-09-27T09:06:29Z</time>
      </trkpt>
      <trkpt lat="45.77824" lon="4.65801">
        <ele>516.85</ele>
        <time>2015-09-27T09:06:34Z</time>
      </trkpt>
      <trkpt lat="45.77826" lon="4.65806">
        <ele>516.37</ele>
        <time>2015-09-27T09:06:35Z</time>
      </trkpt>
      <trkpt lat="45.77828" lon="4.6581">
        <ele>515.4</ele>
        <time>2015-09-27T09:06:36Z</time>
      </trkpt>
      <trkpt lat="45.77829" lon="4.65815">
        <ele>514.44</ele>
        <time>2015-09-27T09:06:37Z</time>
      </trkpt>
      <trkpt lat="45.77831" lon="4.65822">
        <ele>513.48</ele>
        <time>2015-09-27T09:06:38Z</time>
      </trkpt>
      <trkpt lat="45.7784" lon="4.65864">
        <ele>508.67</ele>
        <time>2015-09-27T09:06:44Z</time>
      </trkpt>
      <trkpt lat="45.77851" lon="4.65896">
        <ele>503.87</ele>
        <time>2015-09-27T09:06:49Z</time>
      </trkpt>
      <trkpt lat="45.77853" lon="4.65903">
        <ele>502.91</ele>
        <time>2015-09-27T09:06:50Z</time>
      </trkpt>
      <trkpt lat="45.77854" lon="4.65911">
        <ele>502.43</ele>
        <time>2015-09-27T09:06:51Z</time>
      </trkpt>
      <trkpt lat="45.77857" lon="4.65931">
        <ele>501.46</ele>
        <time>2015-09-27T09:06:53Z</time>
      </trkpt>
      <trkpt lat="45.7786" lon="4.65961">
        <ele>500.02</ele>
        <time>2015-09-27T09:06:56Z</time>
      </trkpt>
      <trkpt lat="45.77861" lon="4.65969">
        <ele>499.06</ele>
        <time>2015-09-27T09:06:57Z</time>
      </trkpt>
      <trkpt lat="45.77861" lon="4.65979">
        <ele>498.58</ele>
        <time>2015-09-27T09:06:58Z</time>
      </trkpt>
      <trkpt lat="45.7786" lon="4.66057">
        <ele>495.7</ele>
        <time>2015-09-27T09:07:06Z</time>
      </trkpt>
      <trkpt lat="45.77862" lon="4.66064">
        <ele>495.7</ele>
        <time>2015-09-27T09:07:07Z</time>
      </trkpt>
      <trkpt lat="45.77866" lon="4.66087">
        <ele>494.74</ele>
        <time>2015-09-27T09:07:10Z</time>
      </trkpt>
      <trkpt lat="45.77866" lon="4.66102">
        <ele>493.77</ele>
        <time>2015-09-27T09:07:12Z</time>
      </trkpt>
      <trkpt lat="45.77864" lon="4.6611">
        <ele>492.81</ele>
        <time>2015-09-27T09:07:13Z</time>
      </trkpt>
      <trkpt lat="45.77862" lon="4.66117">
        <ele>492.33</ele>
        <time>2015-09-27T09:07:14Z</time>
      </trkpt>
      <trkpt lat="45.77861" lon="4.66125">
        <ele>491.85</ele>
        <time>2015-09-27T09:07:15Z</time>
      </trkpt>
      <trkpt lat="45.7786" lon="4.66133">
        <ele>491.37</ele>
        <time>2015-09-27T09:07:16Z</time>
      </trkpt>
      <trkpt lat="45.7786" lon="4.66141">
        <ele>491.37</ele>
        <time>2015-09-27T09:07:17Z</time>
      </trkpt>
      <trkpt lat="45.7786" lon="4.66149">
        <ele>490.89</ele>
        <time>2015-09-27T09:07:18Z</time>
      </trkpt>
      <trkpt lat="45.77858" lon="4.66156">
        <ele>490.41</ele>
        <time>2015-09-27T09:07:19Z</time>
      </trkpt>
      <trkpt lat="45.77856" lon="4.66163">
        <ele>490.41</ele>
        <time>2015-09-27T09:07:20Z</time>
      </trkpt>
      <trkpt lat="45.77853" lon="4.6617">
        <ele>489.93</ele>
        <time>2015-09-27T09:07:21Z</time>
      </trkpt>
      <trkpt lat="45.7785" lon="4.66178">
        <ele>488.97</ele>
        <time>2015-09-27T09:07:22Z</time>
      </trkpt>
      <trkpt lat="45.77845" lon="4.66195">
        <ele>488.49</ele>
        <time>2015-09-27T09:07:24Z</time>
      </trkpt>
      <trkpt lat="45.77843" lon="4.66203">
        <ele>488.01</ele>
        <time>2015-09-27T09:07:25Z</time>
      </trkpt>
      <trkpt lat="45.77837" lon="4.66272">
        <ele>486.08</ele>
        <time>2015-09-27T09:07:33Z</time>
      </trkpt>
      <trkpt lat="45.77836" lon="4.66281">
        <ele>485.6</ele>
        <time>2015-09-27T09:07:34Z</time>
      </trkpt>
      <trkpt lat="45.77835" lon="4.66289">
        <ele>485.6</ele>
        <time>2015-09-27T09:07:35Z</time>
      </trkpt>
      <trkpt lat="45.77832" lon="4.66316">
        <ele>485.12</ele>
        <time>2015-09-27T09:07:38Z</time>
      </trkpt>
      <trkpt lat="45.77832" lon="4.66324">
        <ele>485.12</ele>
        <time>2015-09-27T09:07:39Z</time>
      </trkpt>
      <trkpt lat="45.77829" lon="4.66357">
        <ele>484.64</ele>
        <time>2015-09-27T09:07:43Z</time>
      </trkpt>
      <trkpt lat="45.7783" lon="4.66382">
        <ele>484.16</ele>
        <time>2015-09-27T09:07:46Z</time>
      </trkpt>
      <trkpt lat="45.77832" lon="4.66389">
        <ele>483.68</ele>
        <time>2015-09-27T09:07:47Z</time>
      </trkpt>
      <trkpt lat="45.77851" lon="4.66458">
        <ele>480.32</ele>
        <time>2015-09-27T09:07:56Z</time>
      </trkpt>
      <trkpt lat="45.77856" lon="4.66492">
        <ele>477.91</ele>
        <time>2015-09-27T09:07:59Z</time>
      </trkpt>
      <trkpt lat="45.77859" lon="4.66504">
        <ele>476.95</ele>
        <time>2015-09-27T09:08:00Z</time>
      </trkpt>
      <trkpt lat="45.77863" lon="4.66515">
        <ele>476.47</ele>
        <time>2015-09-27T09:08:01Z</time>
      </trkpt>
      <trkpt lat="45.77871" lon="4.66531">
        <ele>475.03</ele>
        <time>2015-09-27T09:08:03Z</time>
      </trkpt>
      <trkpt lat="45.77875" lon="4.66539">
        <ele>474.07</ele>
        <time>2015-09-27T09:08:04Z</time>
      </trkpt>
      <trkpt lat="45.77878" lon="4.66548">
        <ele>473.11</ele>
        <time>2015-09-27T09:08:05Z</time>
      </trkpt>
      <trkpt lat="45.7788" lon="4.66556">
        <ele>472.14</ele>
        <time>2015-09-27T09:08:06Z</time>
      </trkpt>
      <trkpt lat="45.77882" lon="4.66564">
        <ele>471.18</ele>
        <time>2015-09-27T09:08:07Z</time>
      </trkpt>
      <trkpt lat="45.77884" lon="4.6657">
        <ele>469.74</ele>
        <time>2015-09-27T09:08:08Z</time>
      </trkpt>
      <trkpt lat="45.77886" lon="4.66576">
        <ele>468.78</ele>
        <time>2015-09-27T09:08:09Z</time>
      </trkpt>
      <trkpt lat="45.77888" lon="4.66582">
        <ele>468.3</ele>
        <time>2015-09-27T09:08:10Z</time>
      </trkpt>
      <trkpt lat="45.7789" lon="4.66586">
        <ele>467.34</ele>
        <time>2015-09-27T09:08:11Z</time>
      </trkpt>
      <trkpt lat="45.77893" lon="4.6659">
        <ele>466.86</ele>
        <time>2015-09-27T09:08:12Z</time>
      </trkpt>
      <trkpt lat="45.77896" lon="4.66593">
        <ele>466.38</ele>
        <time>2015-09-27T09:08:13Z</time>
      </trkpt>
      <trkpt lat="45.77898" lon="4.66597">
        <ele>465.42</ele>
        <time>2015-09-27T09:08:14Z</time>
      </trkpt>
      <trkpt lat="45.779" lon="4.66601">
        <ele>464.93</ele>
        <time>2015-09-27T09:08:15Z</time>
      </trkpt>
      <trkpt lat="45.779" lon="4.66605">
        <ele>464.45</ele>
        <time>2015-09-27T09:08:16Z</time>
      </trkpt>
      <trkpt lat="45.779" lon="4.66609">
        <ele>463.49</ele>
        <time>2015-09-27T09:08:17Z</time>
      </trkpt>
      <trkpt lat="45.779" lon="4.66612">
        <ele>463.01</ele>
        <time>2015-09-27T09:08:18Z</time>
      </trkpt>
      <trkpt lat="45.77899" lon="4.66615">
        <ele>462.53</ele>
        <time>2015-09-27T09:08:19Z</time>
      </trkpt>
      <trkpt lat="45.77898" lon="4.66617">
        <ele>462.53</ele>
        <time>2015-09-27T09:08:32Z</time>
      </trkpt>
      <trkpt lat="45.77896" lon="4.66617">
        <ele>462.53</ele>
        <time>2015-09-27T09:08:46Z</time>
      </trkpt>
      <trkpt lat="45.77883" lon="4.66619">
        <ele>461.09</ele>
        <time>2015-09-27T09:08:49Z</time>
      </trkpt>
      <trkpt lat="45.77879" lon="4.66619">
        <ele>460.61</ele>
        <time>2015-09-27T09:08:50Z</time>
      </trkpt>
      <trkpt lat="45.77852" lon="4.66612">
        <ele>456.76</ele>
        <time>2015-09-27T09:08:57Z</time>
      </trkpt>
      <trkpt lat="45.77848" lon="4.6661">
        <ele>456.28</ele>
        <time>2015-09-27T09:08:58Z</time>
      </trkpt>
      <trkpt lat="45.77843" lon="4.66609">
        <ele>455.8</ele>
        <time>2015-09-27T09:08:59Z</time>
      </trkpt>
      <trkpt lat="45.77838" lon="4.66608">
        <ele>455.32</ele>
        <time>2015-09-27T09:09:00Z</time>
      </trkpt>
      <trkpt lat="45.77833" lon="4.66607">
        <ele>455.32</ele>
        <time>2015-09-27T09:09:01Z</time>
      </trkpt>
      <trkpt lat="45.77828" lon="4.66608">
        <ele>454.84</ele>
        <time>2015-09-27T09:09:02Z</time>
      </trkpt>
      <trkpt lat="45.77822" lon="4.66609">
        <ele>454.36</ele>
        <time>2015-09-27T09:09:03Z</time>
      </trkpt>
      <trkpt lat="45.77816" lon="4.66612">
        <ele>453.88</ele>
        <time>2015-09-27T09:09:04Z</time>
      </trkpt>
      <trkpt lat="45.7781" lon="4.66614">
        <ele>453.4</ele>
        <time>2015-09-27T09:09:05Z</time>
      </trkpt>
      <trkpt lat="45.77804" lon="4.66613">
        <ele>452.92</ele>
        <time>2015-09-27T09:09:06Z</time>
      </trkpt>
      <trkpt lat="45.77797" lon="4.66609">
        <ele>452.44</ele>
        <time>2015-09-27T09:09:07Z</time>
      </trkpt>
      <trkpt lat="45.77792" lon="4.66604">
        <ele>451.96</ele>
        <time>2015-09-27T09:09:08Z</time>
      </trkpt>
      <trkpt lat="45.77788" lon="4.666">
        <ele>451</ele>
        <time>2015-09-27T09:09:09Z</time>
      </trkpt>
      <trkpt lat="45.77784" lon="4.66599">
        <ele>450.52</ele>
        <time>2015-09-27T09:09:10Z</time>
      </trkpt>
      <trkpt lat="45.77782" lon="4.66599">
        <ele>450.03</ele>
        <time>2015-09-27T09:09:11Z</time>
      </trkpt>
      <trkpt lat="45.77779" lon="4.66601">
        <ele>449.07</ele>
        <time>2015-09-27T09:09:12Z</time>
      </trkpt>
      <trkpt lat="45.77777" lon="4.66602">
        <ele>448.59</ele>
        <time>2015-09-27T09:09:13Z</time>
      </trkpt>
      <trkpt lat="45.77776" lon="4.66603">
        <ele>448.11</ele>
        <time>2015-09-27T09:09:14Z</time>
      </trkpt>
      <trkpt lat="45.77774" lon="4.66605">
        <ele>447.63</ele>
        <time>2015-09-27T09:09:15Z</time>
      </trkpt>
      <trkpt lat="45.77773" lon="4.66609">
        <ele>447.15</ele>
        <time>2015-09-27T09:09:16Z</time>
      </trkpt>
      <trkpt lat="45.77773" lon="4.66613">
        <ele>446.67</ele>
        <time>2015-09-27T09:09:17Z</time>
      </trkpt>
      <trkpt lat="45.77774" lon="4.66616">
        <ele>446.67</ele>
        <time>2015-09-27T09:09:18Z</time>
      </trkpt>
      <trkpt lat="45.77775" lon="4.6662">
        <ele>446.19</ele>
        <time>2015-09-27T09:09:19Z</time>
      </trkpt>
      <trkpt lat="45.77777" lon="4.66625">
        <ele>445.71</ele>
        <time>2015-09-27T09:09:20Z</time>
      </trkpt>
      <trkpt lat="45.77791" lon="4.66697">
        <ele>441.86</ele>
        <time>2015-09-27T09:09:30Z</time>
      </trkpt>
      <trkpt lat="45.77803" lon="4.6674">
        <ele>439.94</ele>
        <time>2015-09-27T09:09:34Z</time>
      </trkpt>
      <trkpt lat="45.77806" lon="4.66764">
        <ele>439.46</ele>
        <time>2015-09-27T09:09:36Z</time>
      </trkpt>
      <trkpt lat="45.77808" lon="4.66841">
        <ele>431.77</ele>
        <time>2015-09-27T09:09:45Z</time>
      </trkpt>
      <trkpt lat="45.77806" lon="4.66851">
        <ele>429.37</ele>
        <time>2015-09-27T09:09:52Z</time>
      </trkpt>
      <trkpt lat="45.77806" lon="4.66855">
        <ele>429.37</ele>
        <time>2015-09-27T09:09:53Z</time>
      </trkpt>
      <trkpt lat="45.77807" lon="4.66858">
        <ele>429.37</ele>
        <time>2015-09-27T09:09:54Z</time>
      </trkpt>
      <trkpt lat="45.77809" lon="4.66861">
        <ele>429.85</ele>
        <time>2015-09-27T09:09:55Z</time>
      </trkpt>
      <trkpt lat="45.77812" lon="4.66861">
        <ele>429.85</ele>
        <time>2015-09-27T09:09:56Z</time>
      </trkpt>
      <trkpt lat="45.77815" lon="4.66861">
        <ele>429.85</ele>
        <time>2015-09-27T09:09:57Z</time>
      </trkpt>
      <trkpt lat="45.77819" lon="4.6686">
        <ele>429.85</ele>
        <time>2015-09-27T09:09:58Z</time>
      </trkpt>
      <trkpt lat="45.77823" lon="4.66859">
        <ele>429.85</ele>
        <time>2015-09-27T09:09:59Z</time>
      </trkpt>
      <trkpt lat="45.77839" lon="4.66852">
        <ele>429.37</ele>
        <time>2015-09-27T09:10:02Z</time>
      </trkpt>
      <trkpt lat="45.77906" lon="4.66841">
        <ele>426</ele>
        <time>2015-09-27T09:10:14Z</time>
      </trkpt>
      <trkpt lat="45.7795" lon="4.66838">
        <ele>424.08</ele>
        <time>2015-09-27T09:10:22Z</time>
      </trkpt>
      <trkpt lat="45.77956" lon="4.66839">
        <ele>424.08</ele>
        <time>2015-09-27T09:10:23Z</time>
      </trkpt>
      <trkpt lat="45.77999" lon="4.66854">
        <ele>423.6</ele>
        <time>2015-09-27T09:10:31Z</time>
      </trkpt>
      <trkpt lat="45.78003" lon="4.66856">
        <ele>423.6</ele>
        <time>2015-09-27T09:10:32Z</time>
      </trkpt>
      <trkpt lat="45.78075" lon="4.66874">
        <ele>422.64</ele>
        <time>2015-09-27T09:10:46Z</time>
      </trkpt>
      <trkpt lat="45.7808" lon="4.66873">
        <ele>422.16</ele>
        <time>2015-09-27T09:10:47Z</time>
      </trkpt>
      <trkpt lat="45.78086" lon="4.66872">
        <ele>422.16</ele>
        <time>2015-09-27T09:10:48Z</time>
      </trkpt>
      <trkpt lat="45.78091" lon="4.66869">
        <ele>421.68</ele>
        <time>2015-09-27T09:10:49Z</time>
      </trkpt>
      <trkpt lat="45.78097" lon="4.66866">
        <ele>421.68</ele>
        <time>2015-09-27T09:10:50Z</time>
      </trkpt>
      <trkpt lat="45.78103" lon="4.66862">
        <ele>421.19</ele>
        <time>2015-09-27T09:10:51Z</time>
      </trkpt>
      <trkpt lat="45.78108" lon="4.66857">
        <ele>421.19</ele>
        <time>2015-09-27T09:10:52Z</time>
      </trkpt>
      <trkpt lat="45.78125" lon="4.66841">
        <ele>420.23</ele>
        <time>2015-09-27T09:10:55Z</time>
      </trkpt>
      <trkpt lat="45.7813" lon="4.66833">
        <ele>419.75</ele>
        <time>2015-09-27T09:10:56Z</time>
      </trkpt>
      <trkpt lat="45.78135" lon="4.66825">
        <ele>418.79</ele>
        <time>2015-09-27T09:10:57Z</time>
      </trkpt>
      <trkpt lat="45.78139" lon="4.66815">
        <ele>418.31</ele>
        <time>2015-09-27T09:10:58Z</time>
      </trkpt>
      <trkpt lat="45.78142" lon="4.66806">
        <ele>417.35</ele>
        <time>2015-09-27T09:10:59Z</time>
      </trkpt>
      <trkpt lat="45.78144" lon="4.66797">
        <ele>416.87</ele>
        <time>2015-09-27T09:11:00Z</time>
      </trkpt>
      <trkpt lat="45.78145" lon="4.66788">
        <ele>415.91</ele>
        <time>2015-09-27T09:11:01Z</time>
      </trkpt>
      <trkpt lat="45.7816" lon="4.6664">
        <ele>408.7</ele>
        <time>2015-09-27T09:11:13Z</time>
      </trkpt>
      <trkpt lat="45.78162" lon="4.66627">
        <ele>407.74</ele>
        <time>2015-09-27T09:11:14Z</time>
      </trkpt>
      <trkpt lat="45.78168" lon="4.66601">
        <ele>406.77</ele>
        <time>2015-09-27T09:11:16Z</time>
      </trkpt>
      <trkpt lat="45.78172" lon="4.66589">
        <ele>406.29</ele>
        <time>2015-09-27T09:11:17Z</time>
      </trkpt>
      <trkpt lat="45.78177" lon="4.6658">
        <ele>405.33</ele>
        <time>2015-09-27T09:11:18Z</time>
      </trkpt>
      <trkpt lat="45.78183" lon="4.66572">
        <ele>404.85</ele>
        <time>2015-09-27T09:11:19Z</time>
      </trkpt>
      <trkpt lat="45.78191" lon="4.66567">
        <ele>403.89</ele>
        <time>2015-09-27T09:11:20Z</time>
      </trkpt>
      <trkpt lat="45.78199" lon="4.66567">
        <ele>402.93</ele>
        <time>2015-09-27T09:11:21Z</time>
      </trkpt>
      <trkpt lat="45.78206" lon="4.66573">
        <ele>402.45</ele>
        <time>2015-09-27T09:11:22Z</time>
      </trkpt>
      <trkpt lat="45.78213" lon="4.66581">
        <ele>401.97</ele>
        <time>2015-09-27T09:11:23Z</time>
      </trkpt>
      <trkpt lat="45.7822" lon="4.66591">
        <ele>401.49</ele>
        <time>2015-09-27T09:11:24Z</time>
      </trkpt>
      <trkpt lat="45.78226" lon="4.66602">
        <ele>401.97</ele>
        <time>2015-09-27T09:11:25Z</time>
      </trkpt>
      <trkpt lat="45.78264" lon="4.66668">
        <ele>403.89</ele>
        <time>2015-09-27T09:11:32Z</time>
      </trkpt>
      <trkpt lat="45.7827" lon="4.66673">
        <ele>404.37</ele>
        <time>2015-09-27T09:11:33Z</time>
      </trkpt>
      <trkpt lat="45.78277" lon="4.66674">
        <ele>404.37</ele>
        <time>2015-09-27T09:11:34Z</time>
      </trkpt>
      <trkpt lat="45.78284" lon="4.66674">
        <ele>404.85</ele>
        <time>2015-09-27T09:11:35Z</time>
      </trkpt>
      <trkpt lat="45.78291" lon="4.66673">
        <ele>404.85</ele>
        <time>2015-09-27T09:11:36Z</time>
      </trkpt>
      <trkpt lat="45.7832" lon="4.66664">
        <ele>405.81</ele>
        <time>2015-09-27T09:11:41Z</time>
      </trkpt>
      <trkpt lat="45.7833" lon="4.66659">
        <ele>405.81</ele>
        <time>2015-09-27T09:11:45Z</time>
      </trkpt>
      <trkpt lat="45.78331" lon="4.6666">
        <ele>405.81</ele>
        <time>2015-09-27T09:11:46Z</time>
      </trkpt>
      <trkpt lat="45.78333" lon="4.66662">
        <ele>405.81</ele>
        <time>2015-09-27T09:11:47Z</time>
      </trkpt>
      <trkpt lat="45.78338" lon="4.66671">
        <ele>404.85</ele>
        <time>2015-09-27T09:11:49Z</time>
      </trkpt>
      <trkpt lat="45.78352" lon="4.66711">
        <ele>399.57</ele>
        <time>2015-09-27T09:11:54Z</time>
      </trkpt>
      <trkpt lat="45.78363" lon="4.6678">
        <ele>393.32</ele>
        <time>2015-09-27T09:12:00Z</time>
      </trkpt>
      <trkpt lat="45.7837" lon="4.66843">
        <ele>387.55</ele>
        <time>2015-09-27T09:12:06Z</time>
      </trkpt>
      <trkpt lat="45.78373" lon="4.66882">
        <ele>383.7</ele>
        <time>2015-09-27T09:12:10Z</time>
      </trkpt>
      <trkpt lat="45.78375" lon="4.66926">
        <ele>376.97</ele>
        <time>2015-09-27T09:12:18Z</time>
      </trkpt>
      <trkpt lat="45.7838" lon="4.66954">
        <ele>370.73</ele>
        <time>2015-09-27T09:12:25Z</time>
      </trkpt>
      <trkpt lat="45.7838" lon="4.66966">
        <ele>365.44</ele>
        <time>2015-09-27T09:12:35Z</time>
      </trkpt>
      <trkpt lat="45.7838" lon="4.66969">
        <ele>365.44</ele>
        <time>2015-09-27T09:12:37Z</time>
      </trkpt>
      <trkpt lat="45.7839" lon="4.67001">
        <ele>361.11</ele>
        <time>2015-09-27T09:12:45Z</time>
      </trkpt>
      <trkpt lat="45.78388" lon="4.67022">
        <ele>357.75</ele>
        <time>2015-09-27T09:12:51Z</time>
      </trkpt>
      <trkpt lat="45.78383" lon="4.67058">
        <ele>353.42</ele>
        <time>2015-09-27T09:13:00Z</time>
      </trkpt>
      <trkpt lat="45.7839" lon="4.67072">
        <ele>352.94</ele>
        <time>2015-09-27T09:13:08Z</time>
      </trkpt>
      <trkpt lat="45.78392" lon="4.67078">
        <ele>352.94</ele>
        <time>2015-09-27T09:13:11Z</time>
      </trkpt>
      <trkpt lat="45.78395" lon="4.67093">
        <ele>353.9</ele>
        <time>2015-09-27T09:13:17Z</time>
      </trkpt>
      <trkpt lat="45.78402" lon="4.67112">
        <ele>354.86</ele>
        <time>2015-09-27T09:13:23Z</time>
      </trkpt>
      <trkpt lat="45.78409" lon="4.67137">
        <ele>355.34</ele>
        <time>2015-09-27T09:13:29Z</time>
      </trkpt>
      <trkpt lat="45.78426" lon="4.67187">
        <ele>358.71</ele>
        <time>2015-09-27T09:13:40Z</time>
      </trkpt>
      <trkpt lat="45.78425" lon="4.67202">
        <ele>359.19</ele>
        <time>2015-09-27T09:13:44Z</time>
      </trkpt>
      <trkpt lat="45.78425" lon="4.67209">
        <ele>359.67</ele>
        <time>2015-09-27T09:13:46Z</time>
      </trkpt>
      <trkpt lat="45.78435" lon="4.6724">
        <ele>360.63</ele>
        <time>2015-09-27T09:13:52Z</time>
      </trkpt>
      <trkpt lat="45.78439" lon="4.67272">
        <ele>360.63</ele>
        <time>2015-09-27T09:13:57Z</time>
      </trkpt>
      <trkpt lat="45.78457" lon="4.67359">
        <ele>358.71</ele>
        <time>2015-09-27T09:14:07Z</time>
      </trkpt>
      <trkpt lat="45.7846" lon="4.67379">
        <ele>357.75</ele>
        <time>2015-09-27T09:14:09Z</time>
      </trkpt>
      <trkpt lat="45.78476" lon="4.67446">
        <ele>357.27</ele>
        <time>2015-09-27T09:14:16Z</time>
      </trkpt>
      <trkpt lat="45.78491" lon="4.67484">
        <ele>356.31</ele>
        <time>2015-09-27T09:14:20Z</time>
      </trkpt>
      <trkpt lat="45.78507" lon="4.67514">
        <ele>355.34</ele>
        <time>2015-09-27T09:14:24Z</time>
      </trkpt>
      <trkpt lat="45.78523" lon="4.67536">
        <ele>353.9</ele>
        <time>2015-09-27T09:14:27Z</time>
      </trkpt>
      <trkpt lat="45.78542" lon="4.67569">
        <ele>351.98</ele>
        <time>2015-09-27T09:14:31Z</time>
      </trkpt>
      <trkpt lat="45.78567" lon="4.67626">
        <ele>348.13</ele>
        <time>2015-09-27T09:14:37Z</time>
      </trkpt>
      <trkpt lat="45.78589" lon="4.67669">
        <ele>345.73</ele>
        <time>2015-09-27T09:14:42Z</time>
      </trkpt>
      <trkpt lat="45.78629" lon="4.67736">
        <ele>342.85</ele>
        <time>2015-09-27T09:14:51Z</time>
      </trkpt>
      <trkpt lat="45.78645" lon="4.67763">
        <ele>340.92</ele>
        <time>2015-09-27T09:14:55Z</time>
      </trkpt>
      <trkpt lat="45.78661" lon="4.67789">
        <ele>339</ele>
        <time>2015-09-27T09:14:59Z</time>
      </trkpt>
      <trkpt lat="45.78653" lon="4.67824">
        <ele>338.52</ele>
        <time>2015-09-27T09:15:09Z</time>
      </trkpt>
      <trkpt lat="45.78651" lon="4.67834">
        <ele>339.96</ele>
        <time>2015-09-27T09:15:14Z</time>
      </trkpt>
      <trkpt lat="45.78657" lon="4.6785">
        <ele>343.81</ele>
        <time>2015-09-27T09:15:27Z</time>
      </trkpt>
      <trkpt lat="45.78662" lon="4.67857">
        <ele>344.77</ele>
        <time>2015-09-27T09:15:32Z</time>
      </trkpt>
      <trkpt lat="45.78679" lon="4.67881">
        <ele>348.13</ele>
        <time>2015-09-27T09:15:46Z</time>
      </trkpt>
      <trkpt lat="45.78681" lon="4.67885">
        <ele>348.13</ele>
        <time>2015-09-27T09:15:48Z</time>
      </trkpt>
      <trkpt lat="45.78693" lon="4.67907">
        <ele>351.02</ele>
        <time>2015-09-27T09:16:00Z</time>
      </trkpt>
      <trkpt lat="45.78702" lon="4.67919">
        <ele>352.94</ele>
        <time>2015-09-27T09:16:07Z</time>
      </trkpt>
      <trkpt lat="45.78705" lon="4.67924">
        <ele>354.38</ele>
        <time>2015-09-27T09:16:11Z</time>
      </trkpt>
      <trkpt lat="45.78708" lon="4.6793">
        <ele>354.38</ele>
        <time>2015-09-27T09:16:15Z</time>
      </trkpt>
      <trkpt lat="45.78715" lon="4.67938">
        <ele>356.31</ele>
        <time>2015-09-27T09:16:21Z</time>
      </trkpt>
      <trkpt lat="45.78726" lon="4.67955">
        <ele>359.67</ele>
        <time>2015-09-27T09:16:33Z</time>
      </trkpt>
      <trkpt lat="45.78744" lon="4.67973">
        <ele>362.07</ele>
        <time>2015-09-27T09:16:47Z</time>
      </trkpt>
      <trkpt lat="45.7876" lon="4.67991">
        <ele>365.92</ele>
        <time>2015-09-27T09:17:02Z</time>
      </trkpt>
      <trkpt lat="45.78768" lon="4.67998">
        <ele>366.4</ele>
        <time>2015-09-27T09:17:14Z</time>
      </trkpt>
      <trkpt lat="45.7878" lon="4.68013">
        <ele>367.36</ele>
        <time>2015-09-27T09:17:27Z</time>
      </trkpt>
      <trkpt lat="45.78797" lon="4.6803">
        <ele>367.84</ele>
        <time>2015-09-27T09:17:39Z</time>
      </trkpt>
      <trkpt lat="45.788" lon="4.68033">
        <ele>367.84</ele>
        <time>2015-09-27T09:17:42Z</time>
      </trkpt>
      <trkpt lat="45.78812" lon="4.68046">
        <ele>369.28</ele>
        <time>2015-09-27T09:17:51Z</time>
      </trkpt>
      <trkpt lat="45.7882" lon="4.68055">
        <ele>370.73</ele>
        <time>2015-09-27T09:17:58Z</time>
      </trkpt>
      <trkpt lat="45.78828" lon="4.68068">
        <ele>372.65</ele>
        <time>2015-09-27T09:18:08Z</time>
      </trkpt>
      <trkpt lat="45.78843" lon="4.68085">
        <ele>373.61</ele>
        <time>2015-09-27T09:18:22Z</time>
      </trkpt>
      <trkpt lat="45.78852" lon="4.68094">
        <ele>373.13</ele>
        <time>2015-09-27T09:18:30Z</time>
      </trkpt>
      <trkpt lat="45.78858" lon="4.68101">
        <ele>373.61</ele>
        <time>2015-09-27T09:18:43Z</time>
      </trkpt>
      <trkpt lat="45.78859" lon="4.681">
        <ele>374.09</ele>
        <time>2015-09-27T09:19:00Z</time>
      </trkpt>
      <trkpt lat="45.7886" lon="4.68101">
        <ele>374.57</ele>
        <time>2015-09-27T09:19:22Z</time>
      </trkpt>
      <trkpt lat="45.78864" lon="4.68105">
        <ele>373.61</ele>
        <time>2015-09-27T09:19:47Z</time>
      </trkpt>
      <trkpt lat="45.78865" lon="4.68106">
        <ele>373.13</ele>
        <time>2015-09-27T09:19:48Z</time>
      </trkpt>
      <trkpt lat="45.78878" lon="4.68121">
        <ele>371.21</ele>
        <time>2015-09-27T09:19:59Z</time>
      </trkpt>
      <trkpt lat="45.78886" lon="4.68127">
        <ele>372.17</ele>
        <time>2015-09-27T09:20:04Z</time>
      </trkpt>
      <trkpt lat="45.78913" lon="4.68138">
        <ele>373.13</ele>
        <time>2015-09-27T09:20:17Z</time>
      </trkpt>
      <trkpt lat="45.78953" lon="4.68149">
        <ele>372.65</ele>
        <time>2015-09-27T09:20:31Z</time>
      </trkpt>
      <trkpt lat="45.78995" lon="4.68163">
        <ele>371.21</ele>
        <time>2015-09-27T09:20:43Z</time>
      </trkpt>
      <trkpt lat="45.78999" lon="4.68165">
        <ele>370.73</ele>
        <time>2015-09-27T09:20:44Z</time>
      </trkpt>
      <trkpt lat="45.79018" lon="4.68168">
        <ele>368.8</ele>
        <time>2015-09-27T09:20:49Z</time>
      </trkpt>
      <trkpt lat="45.7902" lon="4.68166">
        <ele>368.32</ele>
        <time>2015-09-27T09:20:50Z</time>
      </trkpt>
      <trkpt lat="45.79022" lon="4.68163">
        <ele>367.84</ele>
        <time>2015-09-27T09:20:51Z</time>
      </trkpt>
      <trkpt lat="45.79024" lon="4.68159">
        <ele>367.36</ele>
        <time>2015-09-27T09:20:52Z</time>
      </trkpt>
      <trkpt lat="45.79026" lon="4.68154">
        <ele>366.88</ele>
        <time>2015-09-27T09:20:53Z</time>
      </trkpt>
      <trkpt lat="45.79028" lon="4.6815">
        <ele>366.4</ele>
        <time>2015-09-27T09:20:54Z</time>
      </trkpt>
      <trkpt lat="45.79031" lon="4.68145">
        <ele>365.44</ele>
        <time>2015-09-27T09:20:55Z</time>
      </trkpt>
      <trkpt lat="45.79033" lon="4.68141">
        <ele>364.96</ele>
        <time>2015-09-27T09:20:56Z</time>
      </trkpt>
      <trkpt lat="45.79037" lon="4.68135">
        <ele>364.48</ele>
        <time>2015-09-27T09:20:57Z</time>
      </trkpt>
      <trkpt lat="45.7904" lon="4.6813">
        <ele>364</ele>
        <time>2015-09-27T09:20:58Z</time>
      </trkpt>
      <trkpt lat="45.79044" lon="4.68124">
        <ele>363.52</ele>
        <time>2015-09-27T09:20:59Z</time>
      </trkpt>
      <trkpt lat="45.79047" lon="4.68118">
        <ele>363.04</ele>
        <time>2015-09-27T09:21:00Z</time>
      </trkpt>
      <trkpt lat="45.7905" lon="4.68112">
        <ele>362.55</ele>
        <time>2015-09-27T09:21:01Z</time>
      </trkpt>
      <trkpt lat="45.79058" lon="4.68101">
        <ele>359.67</ele>
        <time>2015-09-27T09:21:05Z</time>
      </trkpt>
      <trkpt lat="45.79061" lon="4.68101">
        <ele>358.71</ele>
        <time>2015-09-27T09:21:06Z</time>
      </trkpt>
      <trkpt lat="45.79064" lon="4.68104">
        <ele>358.23</ele>
        <time>2015-09-27T09:21:07Z</time>
      </trkpt>
      <trkpt lat="45.79072" lon="4.68112">
        <ele>356.31</ele>
        <time>2015-09-27T09:21:09Z</time>
      </trkpt>
      <trkpt lat="45.79079" lon="4.68116">
        <ele>355.34</ele>
        <time>2015-09-27T09:21:10Z</time>
      </trkpt>
      <trkpt lat="45.79085" lon="4.68119">
        <ele>354.38</ele>
        <time>2015-09-27T09:21:11Z</time>
      </trkpt>
      <trkpt lat="45.79092" lon="4.68121">
        <ele>353.42</ele>
        <time>2015-09-27T09:21:12Z</time>
      </trkpt>
      <trkpt lat="45.79099" lon="4.68123">
        <ele>352.46</ele>
        <time>2015-09-27T09:21:13Z</time>
      </trkpt>
      <trkpt lat="45.79106" lon="4.68125">
        <ele>351.5</ele>
        <time>2015-09-27T09:21:14Z</time>
      </trkpt>
      <trkpt lat="45.79113" lon="4.6813">
        <ele>350.54</ele>
        <time>2015-09-27T09:21:15Z</time>
      </trkpt>
      <trkpt lat="45.79118" lon="4.68135">
        <ele>349.58</ele>
        <time>2015-09-27T09:21:16Z</time>
      </trkpt>
      <trkpt lat="45.79133" lon="4.68149">
        <ele>346.69</ele>
        <time>2015-09-27T09:21:19Z</time>
      </trkpt>
      <trkpt lat="45.79138" lon="4.68153">
        <ele>346.21</ele>
        <time>2015-09-27T09:21:20Z</time>
      </trkpt>
      <trkpt lat="45.79142" lon="4.68155">
        <ele>345.25</ele>
        <time>2015-09-27T09:21:21Z</time>
      </trkpt>
      <trkpt lat="45.7915" lon="4.6816">
        <ele>344.29</ele>
        <time>2015-09-27T09:21:23Z</time>
      </trkpt>
      <trkpt lat="45.79188" lon="4.68187">
        <ele>338.52</ele>
        <time>2015-09-27T09:21:33Z</time>
      </trkpt>
      <trkpt lat="45.79199" lon="4.68215">
        <ele>336.12</ele>
        <time>2015-09-27T09:21:38Z</time>
      </trkpt>
      <trkpt lat="45.79202" lon="4.68238">
        <ele>334.68</ele>
        <time>2015-09-27T09:21:42Z</time>
      </trkpt>
      <trkpt lat="45.792" lon="4.68241">
        <ele>334.2</ele>
        <time>2015-09-27T09:21:43Z</time>
      </trkpt>
      <trkpt lat="45.79192" lon="4.68239">
        <ele>333.23</ele>
        <time>2015-09-27T09:21:45Z</time>
      </trkpt>
      <trkpt lat="45.79188" lon="4.68237">
        <ele>332.27</ele>
        <time>2015-09-27T09:21:46Z</time>
      </trkpt>
      <trkpt lat="45.79184" lon="4.68237">
        <ele>331.79</ele>
        <time>2015-09-27T09:21:47Z</time>
      </trkpt>
      <trkpt lat="45.7918" lon="4.68238">
        <ele>331.79</ele>
        <time>2015-09-27T09:21:48Z</time>
      </trkpt>
      <trkpt lat="45.79177" lon="4.68239">
        <ele>331.31</ele>
        <time>2015-09-27T09:21:49Z</time>
      </trkpt>
      <trkpt lat="45.79176" lon="4.68242">
        <ele>330.83</ele>
        <time>2015-09-27T09:21:50Z</time>
      </trkpt>
      <trkpt lat="45.79173" lon="4.68261">
        <ele>328.91</ele>
        <time>2015-09-27T09:21:54Z</time>
      </trkpt>
      <trkpt lat="45.79173" lon="4.68268">
        <ele>327.95</ele>
        <time>2015-09-27T09:21:55Z</time>
      </trkpt>
      <trkpt lat="45.79176" lon="4.68276">
        <ele>327.95</ele>
        <time>2015-09-27T09:21:56Z</time>
      </trkpt>
      <trkpt lat="45.79182" lon="4.68287">
        <ele>326.99</ele>
        <time>2015-09-27T09:21:57Z</time>
      </trkpt>
      <trkpt lat="45.7919" lon="4.68297">
        <ele>326.02</ele>
        <time>2015-09-27T09:21:58Z</time>
      </trkpt>
      <trkpt lat="45.79199" lon="4.68307">
        <ele>325.06</ele>
        <time>2015-09-27T09:21:59Z</time>
      </trkpt>
      <trkpt lat="45.79207" lon="4.68316">
        <ele>324.1</ele>
        <time>2015-09-27T09:22:00Z</time>
      </trkpt>
      <trkpt lat="45.79214" lon="4.68323">
        <ele>323.14</ele>
        <time>2015-09-27T09:22:01Z</time>
      </trkpt>
      <trkpt lat="45.79222" lon="4.6833">
        <ele>322.18</ele>
        <time>2015-09-27T09:22:02Z</time>
      </trkpt>
      <trkpt lat="45.79229" lon="4.68335">
        <ele>321.22</ele>
        <time>2015-09-27T09:22:03Z</time>
      </trkpt>
      <trkpt lat="45.79232" lon="4.68339">
        <ele>320.26</ele>
        <time>2015-09-27T09:22:04Z</time>
      </trkpt>
      <trkpt lat="45.79234" lon="4.68341">
        <ele>319.78</ele>
        <time>2015-09-27T09:22:05Z</time>
      </trkpt>
      <trkpt lat="45.79237" lon="4.68342">
        <ele>319.3</ele>
        <time>2015-09-27T09:22:06Z</time>
      </trkpt>
      <trkpt lat="45.79238" lon="4.68344">
        <ele>318.81</ele>
        <time>2015-09-27T09:22:07Z</time>
      </trkpt>
      <trkpt lat="45.79239" lon="4.68347">
        <ele>318.33</ele>
        <time>2015-09-27T09:22:08Z</time>
      </trkpt>
      <trkpt lat="45.79239" lon="4.68349">
        <ele>317.37</ele>
        <time>2015-09-27T09:22:09Z</time>
      </trkpt>
      <trkpt lat="45.79239" lon="4.6835">
        <ele>316.89</ele>
        <time>2015-09-27T09:22:10Z</time>
      </trkpt>
      <trkpt lat="45.79238" lon="4.6835">
        <ele>316.41</ele>
        <time>2015-09-27T09:22:11Z</time>
      </trkpt>
      <trkpt lat="45.79236" lon="4.68351">
        <ele>315.93</ele>
        <time>2015-09-27T09:22:13Z</time>
      </trkpt>
      <trkpt lat="45.79235" lon="4.68351">
        <ele>315.45</ele>
        <time>2015-09-27T09:22:14Z</time>
      </trkpt>
      <trkpt lat="45.79233" lon="4.68352">
        <ele>315.45</ele>
        <time>2015-09-27T09:22:15Z</time>
      </trkpt>
      <trkpt lat="45.79232" lon="4.68354">
        <ele>314.97</ele>
        <time>2015-09-27T09:22:16Z</time>
      </trkpt>
      <trkpt lat="45.79231" lon="4.68356">
        <ele>314.49</ele>
        <time>2015-09-27T09:22:17Z</time>
      </trkpt>
      <trkpt lat="45.79216" lon="4.68381">
        <ele>314.97</ele>
        <time>2015-09-27T09:22:26Z</time>
      </trkpt>
      <trkpt lat="45.7921" lon="4.68392">
        <ele>314.97</ele>
        <time>2015-09-27T09:22:30Z</time>
      </trkpt>
      <trkpt lat="45.79208" lon="4.68395">
        <ele>315.45</ele>
        <time>2015-09-27T09:22:31Z</time>
      </trkpt>
      <trkpt lat="45.79207" lon="4.68399">
        <ele>315.45</ele>
        <time>2015-09-27T09:22:32Z</time>
      </trkpt>
      <trkpt lat="45.79202" lon="4.68406">
        <ele>315.45</ele>
        <time>2015-09-27T09:22:34Z</time>
      </trkpt>
      <trkpt lat="45.79199" lon="4.68415">
        <ele>315.93</ele>
        <time>2015-09-27T09:22:37Z</time>
      </trkpt>
      <trkpt lat="45.79193" lon="4.68429">
        <ele>316.41</ele>
        <time>2015-09-27T09:22:42Z</time>
      </trkpt>
      <trkpt lat="45.79185" lon="4.6845">
        <ele>317.37</ele>
        <time>2015-09-27T09:22:48Z</time>
      </trkpt>
      <trkpt lat="45.7917" lon="4.68493">
        <ele>318.33</ele>
        <time>2015-09-27T09:22:59Z</time>
      </trkpt>
      <trkpt lat="45.79166" lon="4.68519">
        <ele>318.81</ele>
        <time>2015-09-27T09:23:05Z</time>
      </trkpt>
      <trkpt lat="45.79158" lon="4.68554">
        <ele>320.26</ele>
        <time>2015-09-27T09:23:13Z</time>
      </trkpt>
      <trkpt lat="45.79148" lon="4.68606">
        <ele>322.66</ele>
        <time>2015-09-27T09:23:23Z</time>
      </trkpt>
      <trkpt lat="45.79148" lon="4.68617">
        <ele>324.1</ele>
        <time>2015-09-27T09:23:26Z</time>
      </trkpt>
      <trkpt lat="45.79143" lon="4.68633">
        <ele>326.02</ele>
        <time>2015-09-27T09:23:31Z</time>
      </trkpt>
      <trkpt lat="45.79136" lon="4.68667">
        <ele>331.31</ele>
        <time>2015-09-27T09:23:41Z</time>
      </trkpt>
      <trkpt lat="45.79119" lon="4.6869">
        <ele>337.56</ele>
        <time>2015-09-27T09:23:53Z</time>
      </trkpt>
      <trkpt lat="45.79112" lon="4.68697">
        <ele>339</ele>
        <time>2015-09-27T09:23:58Z</time>
      </trkpt>
      <trkpt lat="45.79109" lon="4.68704">
        <ele>339.48</ele>
        <time>2015-09-27T09:24:02Z</time>
      </trkpt>
      <trkpt lat="45.79104" lon="4.6871">
        <ele>339.48</ele>
        <time>2015-09-27T09:24:06Z</time>
      </trkpt>
      <trkpt lat="45.79086" lon="4.68727">
        <ele>339</ele>
        <time>2015-09-27T09:24:18Z</time>
      </trkpt>
      <trkpt lat="45.79071" lon="4.68736">
        <ele>340.44</ele>
        <time>2015-09-27T09:24:29Z</time>
      </trkpt>
      <trkpt lat="45.79066" lon="4.68746">
        <ele>340.44</ele>
        <time>2015-09-27T09:24:33Z</time>
      </trkpt>
      <trkpt lat="45.79049" lon="4.68793">
        <ele>340.44</ele>
        <time>2015-09-27T09:24:45Z</time>
      </trkpt>
      <trkpt lat="45.79047" lon="4.68797">
        <ele>339.96</ele>
        <time>2015-09-27T09:24:56Z</time>
      </trkpt>
      <trkpt lat="45.79046" lon="4.68794">
        <ele>339.48</ele>
        <time>2015-09-27T09:25:00Z</time>
      </trkpt>
      <trkpt lat="45.79046" lon="4.68791">
        <ele>339.48</ele>
        <time>2015-09-27T09:25:11Z</time>
      </trkpt>
      <trkpt lat="45.79046" lon="4.68791">
        <ele>339.48</ele>
        <time>2015-09-27T09:25:12Z</time>
      </trkpt>
      <trkpt lat="45.79045" lon="4.68798">
        <ele>339.96</ele>
        <time>2015-09-27T09:25:18Z</time>
      </trkpt>
      <trkpt lat="45.79038" lon="4.68797">
        <ele>339.96</ele>
        <time>2015-09-27T09:25:23Z</time>
      </trkpt>
      <trkpt lat="45.79028" lon="4.68796">
        <ele>339.48</ele>
        <time>2015-09-27T09:25:31Z</time>
      </trkpt>
      <trkpt lat="45.79007" lon="4.68788">
        <ele>339.48</ele>
        <time>2015-09-27T09:25:45Z</time>
      </trkpt>
      <trkpt lat="45.78981" lon="4.68777">
        <ele>339.48</ele>
        <time>2015-09-27T09:25:57Z</time>
      </trkpt>
      <trkpt lat="45.78962" lon="4.68766">
        <ele>339</ele>
        <time>2015-09-27T09:26:03Z</time>
      </trkpt>
      <trkpt lat="45.78954" lon="4.68761">
        <ele>339</ele>
        <time>2015-09-27T09:26:05Z</time>
      </trkpt>
      <trkpt lat="45.78933" lon="4.68745">
        <ele>338.04</ele>
        <time>2015-09-27T09:26:09Z</time>
      </trkpt>
      <trkpt lat="45.78924" lon="4.68732">
        <ele>337.08</ele>
        <time>2015-09-27T09:26:11Z</time>
      </trkpt>
      <trkpt lat="45.78904" lon="4.68713">
        <ele>335.16</ele>
        <time>2015-09-27T09:26:15Z</time>
      </trkpt>
      <trkpt lat="45.78865" lon="4.68661">
        <ele>331.79</ele>
        <time>2015-09-27T09:26:22Z</time>
      </trkpt>
      <trkpt lat="45.78835" lon="4.6864">
        <ele>328.91</ele>
        <time>2015-09-27T09:26:26Z</time>
      </trkpt>
      <trkpt lat="45.78775" lon="4.68576">
        <ele>321.7</ele>
        <time>2015-09-27T09:26:33Z</time>
      </trkpt>
      <trkpt lat="45.78746" lon="4.68566">
        <ele>316.89</ele>
        <time>2015-09-27T09:26:38Z</time>
      </trkpt>
      <trkpt lat="45.78723" lon="4.68572">
        <ele>311.12</ele>
        <time>2015-09-27T09:26:46Z</time>
      </trkpt>
      <trkpt lat="45.78725" lon="4.68592">
        <ele>310.64</ele>
        <time>2015-09-27T09:26:56Z</time>
      </trkpt>
      <trkpt lat="45.78733" lon="4.6861">
        <ele>314.97</ele>
        <time>2015-09-27T09:27:08Z</time>
      </trkpt>
      <trkpt lat="45.78731" lon="4.68616">
        <ele>316.89</ele>
        <time>2015-09-27T09:27:13Z</time>
      </trkpt>
      <trkpt lat="45.78719" lon="4.68632">
        <ele>320.26</ele>
        <time>2015-09-27T09:27:26Z</time>
      </trkpt>
      <trkpt lat="45.787" lon="4.68655">
        <ele>323.62</ele>
        <time>2015-09-27T09:27:41Z</time>
      </trkpt>
      <trkpt lat="45.78683" lon="4.6868">
        <ele>328.91</ele>
        <time>2015-09-27T09:27:55Z</time>
      </trkpt>
      <trkpt lat="45.78678" lon="4.68688">
        <ele>331.31</ele>
        <time>2015-09-27T09:28:07Z</time>
      </trkpt>
      <trkpt lat="45.7867" lon="4.68698">
        <ele>332.27</ele>
        <time>2015-09-27T09:28:19Z</time>
      </trkpt>
      <trkpt lat="45.78664" lon="4.68708">
        <ele>333.23</ele>
        <time>2015-09-27T09:28:25Z</time>
      </trkpt>
      <trkpt lat="45.78633" lon="4.6873">
        <ele>334.68</ele>
        <time>2015-09-27T09:28:43Z</time>
      </trkpt>
      <trkpt lat="45.78599" lon="4.68749">
        <ele>336.12</ele>
        <time>2015-09-27T09:28:58Z</time>
      </trkpt>
      <trkpt lat="45.78563" lon="4.6877">
        <ele>336.12</ele>
        <time>2015-09-27T09:29:13Z</time>
      </trkpt>
      <trkpt lat="45.78524" lon="4.68789">
        <ele>334.68</ele>
        <time>2015-09-27T09:29:25Z</time>
      </trkpt>
      <trkpt lat="45.7851" lon="4.68815">
        <ele>332.27</ele>
        <time>2015-09-27T09:29:30Z</time>
      </trkpt>
      <trkpt lat="45.78509" lon="4.68876">
        <ele>330.83</ele>
        <time>2015-09-27T09:29:42Z</time>
      </trkpt>
      <trkpt lat="45.78508" lon="4.6893">
        <ele>335.64</ele>
        <time>2015-09-27T09:29:56Z</time>
      </trkpt>
      <trkpt lat="45.78504" lon="4.68983">
        <ele>341.89</ele>
        <time>2015-09-27T09:30:13Z</time>
      </trkpt>
      <trkpt lat="45.78494" lon="4.69027">
        <ele>346.69</ele>
        <time>2015-09-27T09:30:29Z</time>
      </trkpt>
      <trkpt lat="45.7848" lon="4.69066">
        <ele>349.1</ele>
        <time>2015-09-27T09:30:44Z</time>
      </trkpt>
      <trkpt lat="45.78463" lon="4.69107">
        <ele>350.06</ele>
        <time>2015-09-27T09:31:00Z</time>
      </trkpt>
      <trkpt lat="45.78446" lon="4.69141">
        <ele>349.58</ele>
        <time>2015-09-27T09:31:14Z</time>
      </trkpt>
      <trkpt lat="45.78425" lon="4.69189">
        <ele>346.21</ele>
        <time>2015-09-27T09:31:27Z</time>
      </trkpt>
      <trkpt lat="45.78403" lon="4.69255">
        <ele>345.25</ele>
        <time>2015-09-27T09:31:39Z</time>
      </trkpt>
      <trkpt lat="45.78395" lon="4.69376">
        <ele>341.89</ele>
        <time>2015-09-27T09:31:51Z</time>
      </trkpt>
      <trkpt lat="45.78394" lon="4.69407">
        <ele>340.44</ele>
        <time>2015-09-27T09:31:54Z</time>
      </trkpt>
      <trkpt lat="45.78398" lon="4.69546">
        <ele>337.56</ele>
        <time>2015-09-27T09:32:08Z</time>
      </trkpt>
      <trkpt lat="45.78398" lon="4.6968">
        <ele>334.2</ele>
        <time>2015-09-27T09:32:19Z</time>
      </trkpt>
      <trkpt lat="45.78398" lon="4.69756">
        <ele>331.31</ele>
        <time>2015-09-27T09:32:26Z</time>
      </trkpt>
      <trkpt lat="45.78394" lon="4.69776">
        <ele>331.31</ele>
        <time>2015-09-27T09:32:28Z</time>
      </trkpt>
      <trkpt lat="45.78394" lon="4.69785">
        <ele>330.83</ele>
        <time>2015-09-27T09:32:29Z</time>
      </trkpt>
      <trkpt lat="45.78394" lon="4.69794">
        <ele>330.83</ele>
        <time>2015-09-27T09:32:30Z</time>
      </trkpt>
      <trkpt lat="45.78393" lon="4.69801">
        <ele>330.83</ele>
        <time>2015-09-27T09:32:31Z</time>
      </trkpt>
      <trkpt lat="45.78392" lon="4.69809">
        <ele>330.83</ele>
        <time>2015-09-27T09:32:32Z</time>
      </trkpt>
      <trkpt lat="45.78392" lon="4.69816">
        <ele>330.83</ele>
        <time>2015-09-27T09:32:33Z</time>
      </trkpt>
      <trkpt lat="45.78391" lon="4.69824">
        <ele>330.35</ele>
        <time>2015-09-27T09:32:34Z</time>
      </trkpt>
      <trkpt lat="45.78384" lon="4.69861">
        <ele>330.35</ele>
        <time>2015-09-27T09:32:39Z</time>
      </trkpt>
      <trkpt lat="45.78383" lon="4.69869">
        <ele>330.35</ele>
        <time>2015-09-27T09:32:40Z</time>
      </trkpt>
      <trkpt lat="45.78348" lon="4.69976">
        <ele>330.35</ele>
        <time>2015-09-27T09:32:54Z</time>
      </trkpt>
      <trkpt lat="45.78297" lon="4.70081">
        <ele>331.79</ele>
        <time>2015-09-27T09:33:07Z</time>
      </trkpt>
      <trkpt lat="45.78265" lon="4.70143">
        <ele>333.23</ele>
        <time>2015-09-27T09:33:16Z</time>
      </trkpt>
      <trkpt lat="45.78267" lon="4.70149">
        <ele>333.23</ele>
        <time>2015-09-27T09:33:17Z</time>
      </trkpt>
      <trkpt lat="45.7827" lon="4.70151">
        <ele>333.23</ele>
        <time>2015-09-27T09:33:18Z</time>
      </trkpt>
      <trkpt lat="45.78279" lon="4.70154">
        <ele>333.23</ele>
        <time>2015-09-27T09:33:20Z</time>
      </trkpt>
      <trkpt lat="45.78296" lon="4.70164">
        <ele>333.23</ele>
        <time>2015-09-27T09:33:23Z</time>
      </trkpt>
      <trkpt lat="45.78316" lon="4.70178">
        <ele>331.79</ele>
        <time>2015-09-27T09:33:26Z</time>
      </trkpt>
      <trkpt lat="45.78323" lon="4.70182">
        <ele>331.31</ele>
        <time>2015-09-27T09:33:27Z</time>
      </trkpt>
      <trkpt lat="45.78367" lon="4.7021">
        <ele>328.43</ele>
        <time>2015-09-27T09:33:33Z</time>
      </trkpt>
      <trkpt lat="45.7839" lon="4.70228">
        <ele>326.5</ele>
        <time>2015-09-27T09:33:36Z</time>
      </trkpt>
      <trkpt lat="45.78476" lon="4.7031">
        <ele>319.3</ele>
        <time>2015-09-27T09:33:47Z</time>
      </trkpt>
      <trkpt lat="45.78495" lon="4.70323">
        <ele>317.37</ele>
        <time>2015-09-27T09:33:51Z</time>
      </trkpt>
      <trkpt lat="45.78499" lon="4.70324">
        <ele>316.89</ele>
        <time>2015-09-27T09:33:52Z</time>
      </trkpt>
      <trkpt lat="45.78502" lon="4.70322">
        <ele>316.41</ele>
        <time>2015-09-27T09:33:53Z</time>
      </trkpt>
      <trkpt lat="45.78505" lon="4.70318">
        <ele>316.41</ele>
        <time>2015-09-27T09:33:54Z</time>
      </trkpt>
      <trkpt lat="45.78506" lon="4.70315">
        <ele>316.41</ele>
        <time>2015-09-27T09:33:55Z</time>
      </trkpt>
      <trkpt lat="45.78508" lon="4.70311">
        <ele>316.41</ele>
        <time>2015-09-27T09:33:56Z</time>
      </trkpt>
      <trkpt lat="45.7851" lon="4.70308">
        <ele>316.41</ele>
        <time>2015-09-27T09:33:57Z</time>
      </trkpt>
      <trkpt lat="45.78549" lon="4.70259">
        <ele>314.01</ele>
        <time>2015-09-27T09:34:06Z</time>
      </trkpt>
      <trkpt lat="45.78559" lon="4.70251">
        <ele>313.53</ele>
        <time>2015-09-27T09:34:08Z</time>
      </trkpt>
      <trkpt lat="45.78581" lon="4.70252">
        <ele>312.09</ele>
        <time>2015-09-27T09:34:12Z</time>
      </trkpt>
      <trkpt lat="45.78587" lon="4.70255">
        <ele>311.6</ele>
        <time>2015-09-27T09:34:13Z</time>
      </trkpt>
      <trkpt lat="45.78592" lon="4.70258">
        <ele>311.12</ele>
        <time>2015-09-27T09:34:14Z</time>
      </trkpt>
      <trkpt lat="45.78662" lon="4.7029">
        <ele>307.76</ele>
        <time>2015-09-27T09:34:25Z</time>
      </trkpt>
      <trkpt lat="45.78669" lon="4.70292">
        <ele>307.28</ele>
        <time>2015-09-27T09:34:26Z</time>
      </trkpt>
      <trkpt lat="45.78676" lon="4.70296">
        <ele>307.28</ele>
        <time>2015-09-27T09:34:27Z</time>
      </trkpt>
      <trkpt lat="45.78731" lon="4.70326">
        <ele>306.32</ele>
        <time>2015-09-27T09:34:37Z</time>
      </trkpt>
      <trkpt lat="45.78736" lon="4.70329">
        <ele>306.8</ele>
        <time>2015-09-27T09:34:38Z</time>
      </trkpt>
      <trkpt lat="45.78787" lon="4.70347">
        <ele>306.32</ele>
        <time>2015-09-27T09:34:46Z</time>
      </trkpt>
      <trkpt lat="45.78793" lon="4.7035">
        <ele>305.84</ele>
        <time>2015-09-27T09:34:47Z</time>
      </trkpt>
      <trkpt lat="45.78798" lon="4.70355">
        <ele>305.84</ele>
        <time>2015-09-27T09:34:48Z</time>
      </trkpt>
      <trkpt lat="45.78801" lon="4.70362">
        <ele>305.36</ele>
        <time>2015-09-27T09:34:49Z</time>
      </trkpt>
      <trkpt lat="45.78804" lon="4.7037">
        <ele>305.36</ele>
        <time>2015-09-27T09:34:50Z</time>
      </trkpt>
      <trkpt lat="45.78805" lon="4.7038">
        <ele>304.88</ele>
        <time>2015-09-27T09:34:51Z</time>
      </trkpt>
      <trkpt lat="45.78807" lon="4.70399">
        <ele>303.91</ele>
        <time>2015-09-27T09:34:53Z</time>
      </trkpt>
      <trkpt lat="45.78807" lon="4.70453">
        <ele>301.03</ele>
        <time>2015-09-27T09:34:59Z</time>
      </trkpt>
      <trkpt lat="45.78809" lon="4.70461">
        <ele>301.03</ele>
        <time>2015-09-27T09:35:00Z</time>
      </trkpt>
      <trkpt lat="45.78813" lon="4.7047">
        <ele>301.03</ele>
        <time>2015-09-27T09:35:01Z</time>
      </trkpt>
      <trkpt lat="45.78817" lon="4.70477">
        <ele>301.03</ele>
        <time>2015-09-27T09:35:02Z</time>
      </trkpt>
      <trkpt lat="45.78821" lon="4.70484">
        <ele>301.03</ele>
        <time>2015-09-27T09:35:03Z</time>
      </trkpt>
      <trkpt lat="45.78846" lon="4.70534">
        <ele>301.51</ele>
        <time>2015-09-27T09:35:10Z</time>
      </trkpt>
      <trkpt lat="45.78866" lon="4.70575">
        <ele>301.51</ele>
        <time>2015-09-27T09:35:18Z</time>
      </trkpt>
      <trkpt lat="45.78869" lon="4.70581">
        <ele>301.99</ele>
        <time>2015-09-27T09:35:19Z</time>
      </trkpt>
      <trkpt lat="45.78873" lon="4.70588">
        <ele>301.99</ele>
        <time>2015-09-27T09:35:20Z</time>
      </trkpt>
      <trkpt lat="45.78878" lon="4.70593">
        <ele>301.51</ele>
        <time>2015-09-27T09:35:21Z</time>
      </trkpt>
      <trkpt lat="45.78883" lon="4.70598">
        <ele>301.51</ele>
        <time>2015-09-27T09:35:22Z</time>
      </trkpt>
      <trkpt lat="45.78889" lon="4.70602">
        <ele>301.51</ele>
        <time>2015-09-27T09:35:23Z</time>
      </trkpt>
      <trkpt lat="45.78902" lon="4.70609">
        <ele>301.51</ele>
        <time>2015-09-27T09:35:25Z</time>
      </trkpt>
      <trkpt lat="45.78909" lon="4.70612">
        <ele>301.51</ele>
        <time>2015-09-27T09:35:26Z</time>
      </trkpt>
      <trkpt lat="45.78978" lon="4.70628">
        <ele>299.59</ele>
        <time>2015-09-27T09:35:35Z</time>
      </trkpt>
      <trkpt lat="45.78985" lon="4.70631">
        <ele>299.59</ele>
        <time>2015-09-27T09:35:36Z</time>
      </trkpt>
      <trkpt lat="45.79008" lon="4.7064">
        <ele>299.11</ele>
        <time>2015-09-27T09:35:39Z</time>
      </trkpt>
      <trkpt lat="45.79015" lon="4.70642">
        <ele>299.11</ele>
        <time>2015-09-27T09:35:40Z</time>
      </trkpt>
      <trkpt lat="45.79036" lon="4.70645">
        <ele>298.15</ele>
        <time>2015-09-27T09:35:43Z</time>
      </trkpt>
      <trkpt lat="45.79041" lon="4.70647">
        <ele>298.15</ele>
        <time>2015-09-27T09:35:44Z</time>
      </trkpt>
      <trkpt lat="45.79059" lon="4.70654">
        <ele>297.67</ele>
        <time>2015-09-27T09:35:49Z</time>
      </trkpt>
      <trkpt lat="45.79061" lon="4.70658">
        <ele>297.18</ele>
        <time>2015-09-27T09:35:50Z</time>
      </trkpt>
      <trkpt lat="45.79061" lon="4.70665">
        <ele>296.7</ele>
        <time>2015-09-27T09:35:51Z</time>
      </trkpt>
      <trkpt lat="45.79059" lon="4.70789">
        <ele>293.82</ele>
        <time>2015-09-27T09:36:06Z</time>
      </trkpt>
      <trkpt lat="45.79059" lon="4.70807">
        <ele>294.3</ele>
        <time>2015-09-27T09:36:08Z</time>
      </trkpt>
      <trkpt lat="45.79054" lon="4.70859">
        <ele>293.34</ele>
        <time>2015-09-27T09:36:14Z</time>
      </trkpt>
      <trkpt lat="45.79051" lon="4.70867">
        <ele>293.34</ele>
        <time>2015-09-27T09:36:15Z</time>
      </trkpt>
      <trkpt lat="45.79046" lon="4.70873">
        <ele>292.86</ele>
        <time>2015-09-27T09:36:16Z</time>
      </trkpt>
      <trkpt lat="45.7904" lon="4.7088">
        <ele>292.38</ele>
        <time>2015-09-27T09:36:17Z</time>
      </trkpt>
      <trkpt lat="45.79036" lon="4.70888">
        <ele>292.38</ele>
        <time>2015-09-27T09:36:18Z</time>
      </trkpt>
      <trkpt lat="45.79033" lon="4.70899">
        <ele>291.9</ele>
        <time>2015-09-27T09:36:19Z</time>
      </trkpt>
      <trkpt lat="45.79032" lon="4.7091">
        <ele>291.42</ele>
        <time>2015-09-27T09:36:20Z</time>
      </trkpt>
      <trkpt lat="45.79033" lon="4.70922">
        <ele>291.42</ele>
        <time>2015-09-27T09:36:21Z</time>
      </trkpt>
      <trkpt lat="45.79035" lon="4.70935">
        <ele>290.94</ele>
        <time>2015-09-27T09:36:22Z</time>
      </trkpt>
      <trkpt lat="45.79035" lon="4.70949">
        <ele>290.46</ele>
        <time>2015-09-27T09:36:23Z</time>
      </trkpt>
      <trkpt lat="45.79032" lon="4.70962">
        <ele>289.49</ele>
        <time>2015-09-27T09:36:24Z</time>
      </trkpt>
      <trkpt lat="45.79029" lon="4.70977">
        <ele>289.01</ele>
        <time>2015-09-27T09:36:25Z</time>
      </trkpt>
      <trkpt lat="45.78995" lon="4.7108">
        <ele>286.13</ele>
        <time>2015-09-27T09:36:32Z</time>
      </trkpt>
      <trkpt lat="45.7894" lon="4.7118">
        <ele>288.05</ele>
        <time>2015-09-27T09:36:42Z</time>
      </trkpt>
      <trkpt lat="45.78884" lon="4.71247">
        <ele>294.3</ele>
        <time>2015-09-27T09:36:55Z</time>
      </trkpt>
      <trkpt lat="45.78824" lon="4.71292">
        <ele>298.63</ele>
        <time>2015-09-27T09:37:10Z</time>
      </trkpt>
      <trkpt lat="45.7876" lon="4.71346">
        <ele>299.59</ele>
        <time>2015-09-27T09:37:24Z</time>
      </trkpt>
      <trkpt lat="45.78688" lon="4.71409">
        <ele>301.03</ele>
        <time>2015-09-27T09:37:38Z</time>
      </trkpt>
      <trkpt lat="45.78596" lon="4.71496">
        <ele>300.55</ele>
        <time>2015-09-27T09:37:54Z</time>
      </trkpt>
      <trkpt lat="45.78514" lon="4.71624">
        <ele>300.07</ele>
        <time>2015-09-27T09:38:10Z</time>
      </trkpt>
      <trkpt lat="45.78447" lon="4.71742">
        <ele>298.15</ele>
        <time>2015-09-27T09:38:24Z</time>
      </trkpt>
      <trkpt lat="45.78443" lon="4.71752">
        <ele>297.67</ele>
        <time>2015-09-27T09:38:28Z</time>
      </trkpt>
      <trkpt lat="45.78441" lon="4.71753">
        <ele>297.67</ele>
        <time>2015-09-27T09:38:29Z</time>
      </trkpt>
      <trkpt lat="45.78427" lon="4.71765">
        <ele>298.15</ele>
        <time>2015-09-27T09:38:34Z</time>
      </trkpt>
      <trkpt lat="45.78425" lon="4.7177">
        <ele>298.15</ele>
        <time>2015-09-27T09:38:35Z</time>
      </trkpt>
      <trkpt lat="45.78425" lon="4.71776">
        <ele>298.63</ele>
        <time>2015-09-27T09:38:36Z</time>
      </trkpt>
      <trkpt lat="45.78427" lon="4.71781">
        <ele>298.63</ele>
        <time>2015-09-27T09:38:37Z</time>
      </trkpt>
      <trkpt lat="45.7843" lon="4.71786">
        <ele>298.63</ele>
        <time>2015-09-27T09:38:38Z</time>
      </trkpt>
      <trkpt lat="45.78434" lon="4.7179">
        <ele>298.63</ele>
        <time>2015-09-27T09:38:39Z</time>
      </trkpt>
      <trkpt lat="45.78438" lon="4.71793">
        <ele>298.63</ele>
        <time>2015-09-27T09:38:40Z</time>
      </trkpt>
      <trkpt lat="45.78442" lon="4.71793">
        <ele>299.11</ele>
        <time>2015-09-27T09:38:41Z</time>
      </trkpt>
      <trkpt lat="45.78446" lon="4.71792">
        <ele>299.11</ele>
        <time>2015-09-27T09:38:42Z</time>
      </trkpt>
      <trkpt lat="45.78449" lon="4.7179">
        <ele>299.11</ele>
        <time>2015-09-27T09:38:43Z</time>
      </trkpt>
      <trkpt lat="45.78452" lon="4.71787">
        <ele>299.11</ele>
        <time>2015-09-27T09:38:44Z</time>
      </trkpt>
      <trkpt lat="45.78464" lon="4.71779">
        <ele>297.67</ele>
        <time>2015-09-27T09:38:49Z</time>
      </trkpt>
      <trkpt lat="45.78467" lon="4.71779">
        <ele>297.18</ele>
        <time>2015-09-27T09:38:50Z</time>
      </trkpt>
      <trkpt lat="45.78488" lon="4.71784">
        <ele>296.22</ele>
        <time>2015-09-27T09:38:56Z</time>
      </trkpt>
      <trkpt lat="45.78489" lon="4.71787">
        <ele>295.74</ele>
        <time>2015-09-27T09:38:57Z</time>
      </trkpt>
      <trkpt lat="45.7849" lon="4.71791">
        <ele>295.74</ele>
        <time>2015-09-27T09:38:58Z</time>
      </trkpt>
      <trkpt lat="45.7849" lon="4.71794">
        <ele>295.26</ele>
        <time>2015-09-27T09:38:59Z</time>
      </trkpt>
      <trkpt lat="45.78491" lon="4.71797">
        <ele>295.26</ele>
        <time>2015-09-27T09:39:00Z</time>
      </trkpt>
      <trkpt lat="45.78502" lon="4.71825">
        <ele>291.42</ele>
        <time>2015-09-27T09:39:10Z</time>
      </trkpt>
      <trkpt lat="45.78513" lon="4.71855">
        <ele>289.01</ele>
        <time>2015-09-27T09:39:20Z</time>
      </trkpt>
      <trkpt lat="45.78515" lon="4.71855">
        <ele>289.01</ele>
        <time>2015-09-27T09:39:21Z</time>
      </trkpt>
      <trkpt lat="45.78516" lon="4.71855">
        <ele>289.01</ele>
        <time>2015-09-27T09:39:22Z</time>
      </trkpt>
      <trkpt lat="45.78517" lon="4.71856">
        <ele>288.53</ele>
        <time>2015-09-27T09:39:23Z</time>
      </trkpt>
      <trkpt lat="45.78518" lon="4.71858">
        <ele>289.01</ele>
        <time>2015-09-27T09:39:24Z</time>
      </trkpt>
      <trkpt lat="45.78518" lon="4.7186">
        <ele>289.01</ele>
        <time>2015-09-27T09:39:25Z</time>
      </trkpt>
      <trkpt lat="45.7852" lon="4.71862">
        <ele>289.49</ele>
        <time>2015-09-27T09:39:26Z</time>
      </trkpt>
      <trkpt lat="45.7852" lon="4.71864">
        <ele>290.46</ele>
        <time>2015-09-27T09:39:27Z</time>
      </trkpt>
      <trkpt lat="45.78521" lon="4.71866">
        <ele>290.46</ele>
        <time>2015-09-27T09:39:28Z</time>
      </trkpt>
      <trkpt lat="45.7852" lon="4.71869">
        <ele>290.46</ele>
        <time>2015-09-27T09:39:39Z</time>
      </trkpt>
      <trkpt lat="45.78519" lon="4.71872">
        <ele>290.94</ele>
        <time>2015-09-27T09:39:57Z</time>
      </trkpt>
      <trkpt lat="45.78517" lon="4.71874">
        <ele>291.9</ele>
        <time>2015-09-27T09:40:10Z</time>
      </trkpt>
      <trkpt lat="45.78516" lon="4.71875">
        <ele>292.86</ele>
        <time>2015-09-27T09:40:31Z</time>
      </trkpt>
      <trkpt lat="45.78515" lon="4.71877">
        <ele>292.86</ele>
        <time>2015-09-27T09:40:32Z</time>
      </trkpt>
      <trkpt lat="45.78515" lon="4.71879">
        <ele>292.86</ele>
        <time>2015-09-27T09:40:33Z</time>
      </trkpt>
      <trkpt lat="45.78514" lon="4.71881">
        <ele>292.86</ele>
        <time>2015-09-27T09:40:34Z</time>
      </trkpt>
      <trkpt lat="45.78514" lon="4.71883">
        <ele>292.86</ele>
        <time>2015-09-27T09:40:35Z</time>
      </trkpt>
      <trkpt lat="45.78513" lon="4.71885">
        <ele>292.86</ele>
        <time>2015-09-27T09:40:36Z</time>
      </trkpt>
      <trkpt lat="45.78513" lon="4.71887">
        <ele>292.38</ele>
        <time>2015-09-27T09:40:37Z</time>
      </trkpt>
      <trkpt lat="45.78513" lon="4.71889">
        <ele>292.86</ele>
        <time>2015-09-27T09:40:51Z</time>
      </trkpt>
      <trkpt lat="45.78513" lon="4.71889">
        <ele>292.86</ele>
        <time>2015-09-27T09:41:04Z</time>
      </trkpt>
      <trkpt lat="45.78511" lon="4.71884">
        <ele>292.86</ele>
        <time>2015-09-27T09:41:23Z</time>
      </trkpt>
      <trkpt lat="45.78511" lon="4.71883">
        <ele>292.38</ele>
        <time>2015-09-27T09:41:42Z</time>
      </trkpt>
      <trkpt lat="45.78511" lon="4.71884">
        <ele>292.38</ele>
        <time>2015-09-27T09:42:03Z</time>
      </trkpt>
      <trkpt lat="45.78512" lon="4.71882">
        <ele>292.38</ele>
        <time>2015-09-27T09:42:07Z</time>
      </trkpt>
      <trkpt lat="45.78514" lon="4.7188">
        <ele>292.38</ele>
        <time>2015-09-27T09:42:08Z</time>
      </trkpt>
      <trkpt lat="45.78515" lon="4.71878">
        <ele>292.38</ele>
        <time>2015-09-27T09:42:09Z</time>
      </trkpt>
      <trkpt lat="45.78516" lon="4.71876">
        <ele>292.38</ele>
        <time>2015-09-27T09:42:10Z</time>
      </trkpt>
      <trkpt lat="45.78517" lon="4.71873">
        <ele>292.38</ele>
        <time>2015-09-27T09:42:11Z</time>
      </trkpt>
      <trkpt lat="45.78523" lon="4.71868">
        <ele>292.38</ele>
        <time>2015-09-27T09:42:14Z</time>
      </trkpt>
      <trkpt lat="45.78525" lon="4.71866">
        <ele>290.46</ele>
        <time>2015-09-27T09:42:29Z</time>
      </trkpt>
      <trkpt lat="45.78526" lon="4.71866">
        <ele>290.46</ele>
        <time>2015-09-27T09:42:41Z</time>
      </trkpt>
      <trkpt lat="45.78526" lon="4.71866">
        <ele>290.94</ele>
        <time>2015-09-27T09:43:08Z</time>
      </trkpt>
      <trkpt lat="45.78526" lon="4.71866">
        <ele>290.94</ele>
        <time>2015-09-27T09:43:27Z</time>
      </trkpt>
      <trkpt lat="45.78526" lon="4.71866">
        <ele>290.46</ele>
        <time>2015-09-27T09:43:35Z</time>
      </trkpt>
      <trkpt lat="45.78522" lon="4.7187">
        <ele>291.42</ele>
        <time>2015-09-27T09:43:39Z</time>
      </trkpt>
      <trkpt lat="45.78511" lon="4.71881">
        <ele>291.9</ele>
        <time>2015-09-27T09:43:54Z</time>
      </trkpt>
      <trkpt lat="45.7851" lon="4.71881">
        <ele>292.38</ele>
        <time>2015-09-27T09:44:11Z</time>
      </trkpt>
      <trkpt lat="45.78509" lon="4.71882">
        <ele>291.9</ele>
        <time>2015-09-27T09:44:30Z</time>
      </trkpt>
    </trkseg>
  </trk>
</gpx>